GFSGL_500_spd_000.txt.gz
Wind_Speed
26 27 28 25 26 25 23 26 28 28 28 25 27 29 33 37 37 38 40 41 41 44 42 43 43 42 46 49 47 49 49 43 33 30 35 39 41 46 47 54 53 50 54
32 31 29 27 28 27 26 26 29 29 30 30 31 33 35 39 41 41 42 44 44 43 40 47 48 47 47 50 48 46 45 41 38 35 36 39 39 42 44 49 54 54 51
32 33 29 29 29 30 29 29 30 33 34 34 34 35 39 41 42 44 45 48 49 45 46 48 49 50 49 49 47 43 40 37 38 36 37 37 41 44 43 45 50 57 51
30 28 28 29 30 31 31 31 33 35 35 36 36 38 40 42 43 46 47 48 46 45 47 49 48 51 52 48 46 41 38 37 38 39 36 39 42 47 44 48 48 54 53
31 29 30 32 32 33 34 32 35 37 38 38 38 40 42 44 45 47 47 48 45 46 47 47 47 50 48 48 42 39 37 36 40 41 42 42 44 42 44 47 47 52 50
34 34 32 32 35 34 38 35 37 39 40 41 41 41 42 44 46 48 47 45 44 46 45 42 47 46 40 34 34 33 34 38 42 44 47 51 43 39 42 45 46 47 48
35 33 32 36 38 37 38 38 39 40 42 42 46 48 42 46 50 47 45 42 41 41 41 42 46 40 38 39 34 36 36 37 42 48 50 44 40 31 37 42 44 46 46
35 34 33 36 39 39 38 39 41 41 39 43 48 49 35 46 47 43 43 40 38 41 41 42 45 35 39 37 38 34 35 36 41 46 49 42 29 19 29 38 39 43 42
34 32 36 38 39 39 40 40 41 40 36 37 45 43 48 50 41 40 39 39 41 43 43 42 41 39 38 32 30 30 29 37 39 46 44 37 39 32 26 32 38 39 37
35 36 39 38 41 43 40 41 40 36 34 42 44 52 42 46 38 34 40 40 43 42 43 46 40 33 34 31 28 26 27 35 39 38 37 36 40 40 27 30 29 42 42
38 39 40 43 43 45 41 40 38 31 34 43 51 46 52 44 44 41 43 42 42 41 43 41 31 36 30 28 26 25 27 26 34 31 29 33 41 24 19 26 27 33 42
36 38 40 51 59 50 42 39 37 34 39 44 46 46 46 45 44 46 48 45 42 41 40 34 33 31 30 27 26 25 26 24 35 32 27 31 37 16 20 21 25 33 38
38 41 45 50 51 38 24 37 43 40 49 48 45 45 45 47 43 43 45 42 40 38 35 31 29 28 29 25 25 24 24 26 25 38 25 26 29 18 20 21 24 34 40
39 42 45 46 54 52 31 27 42 41 46 45 42 44 44 43 42 41 41 38 37 37 33 31 28 28 29 26 26 23 22 22 24 30 36 22 21 9 18 17 20 28 37
44 43 51 56 48 47 52 54 49 46 42 42 44 43 40 41 42 39 37 36 36 35 33 31 30 28 35 27 26 22 22 21 24 24 34 31 15 9 21 18 19 22 34
45 48 58 50 48 57 55 51 49 45 44 45 45 40 41 41 39 36 34 32 34 33 30 31 28 25 16 19 21 21 20 20 21 23 22 37 23 12 7 22 22 23 28
54 52 56 66 52 54 53 51 40 50 51 51 50 46 43 40 38 33 29 30 31 29 28 28 20 19 18 18 20 21 21 19 19 20 19 23 31 7 2 21 25 24 29
59 60 61 56 49 48 48 51 45 52 52 50 49 45 41 37 34 29 27 30 29 30 27 25 20 21 20 21 21 23 23 21 18 16 17 17 21 23 7 3 20 30 39
52 56 62 62 51 45 48 47 52 54 52 46 42 38 35 31 30 29 29 30 27 27 25 22 20 22 21 20 21 22 24 23 19 13 14 16 14 16 20 9 7 16 26
37 43 56 55 51 48 50 52 56 53 44 41 39 36 32 30 30 30 31 26 24 24 23 22 23 23 24 20 21 22 21 21 19 16 13 15 14 12 12 21 4 7 15
54 46 40 46 38 43 39 43 38 37 37 36 37 33 31 31 30 30 29 28 28 27 26 24 23 22 19 19 21 21 21 20 20 20 18 14 14 13 10 8 12 11 6
50 45 38 43 43 45 39 40 38 38 35 35 34 32 31 31 31 31 29 28 29 29 28 26 25 24 23 22 22 22 22 22 21 19 19 19 16 15 12 10 9 8 14
50 49 48 43 43 42 40 38 34 32 31 30 31 32 31 30 28 27 23 22 24 24 25 25 24 23 22 23 22 22 22 23 23 23 22 21 19 16 15 13 11 10 9
43 41 40 39 35 30 29 28 27 29 30 30 28 25 24 25 26 28 25 23 25 26 27 27 28 29 29 28 28 26 26 25 25 25 25 23 21 19 18 18 16 14 14
36 32 33 29 28 29 29 29 30 31 31 27 25 23 22 24 26 28 28 25 25 26 27 28 29 31 32 32 30 27 25 26 26 26 26 25 24 22 21 21 20 19 18
27 28 26 28 29 30 29 29 29 29 27 25 25 26 26 26 23 22 23 24 24 25 27 28 28 27 27 26 25 23 20 20 21 22 22 23 24 24 23 22 22 22 21

GFSGL_500_spd_003.txt.gz
Wind_Speed
24 28 27 29 30 28 27 27 25 27 29 28 28 30 31 32 33 34 36 38 40 41 42 42 42 43 44 47 48 47 47 45 43 39 39 41 42 38 39 41 48 53 52
30 32 32 31 32 32 32 32 30 29 29 31 32 32 32 33 34 37 38 40 41 41 40 43 46 45 48 47 45 45 48 49 46 43 35 37 38 41 41 41 42 47 56
26 29 31 32 33 33 33 33 33 33 31 32 33 34 35 36 37 39 38 41 42 43 44 48 50 52 46 44 43 45 48 48 47 41 30 34 35 39 39 39 40 45 48
29 29 31 32 31 33 33 34 36 36 33 33 35 36 38 38 39 41 41 42 49 50 44 47 44 43 44 43 44 46 43 40 37 37 34 34 37 39 40 43 45 48 45
32 34 31 35 33 33 36 38 41 40 38 36 37 37 38 38 41 41 38 40 50 51 40 42 38 39 44 45 46 42 38 41 36 35 36 36 38 42 44 46 48 51 50
34 33 37 35 32 35 40 39 43 41 40 39 40 40 37 35 35 35 30 45 45 41 40 37 37 42 45 43 45 37 42 43 39 39 38 38 40 43 44 46 45 45 45
33 40 37 38 33 35 39 44 46 42 42 43 44 43 35 32 34 42 48 48 44 35 37 40 42 44 44 45 42 42 41 41 38 33 34 40 44 47 42 36 39 46 45
44 39 48 39 29 39 42 43 43 43 44 44 45 43 35 35 39 50 41 48 34 43 48 43 44 46 46 46 43 39 36 36 36 34 37 43 46 50 39 29 38 44 46
39 38 36 39 39 41 44 45 45 47 42 41 43 40 38 33 34 41 46 46 48 48 45 45 46 45 45 43 38 36 34 32 34 33 36 41 48 48 41 34 32 46 49
40 41 43 41 39 44 46 47 49 57 48 37 44 37 33 43 45 47 45 48 53 53 47 47 44 42 41 39 37 32 26 29 31 31 32 38 47 47 43 40 44 33 43
43 41 41 40 42 46 44 43 43 53 43 38 43 43 44 43 43 47 50 52 53 48 44 41 42 39 35 35 32 27 26 28 28 32 33 36 43 38 38 39 23 17 23
43 40 41 42 42 47 49 36 41 42 35 30 49 40 40 41 44 50 51 47 44 43 38 38 39 35 31 32 29 27 27 26 28 31 34 33 38 32 34 25 16 18 21
42 42 41 37 40 39 47 34 28 52 44 41 44 45 34 36 43 43 42 41 42 38 35 35 34 32 29 29 30 29 29 25 29 29 33 33 41 27 29 19 19 19 22
44 32 38 41 40 43 40 27 50 49 43 52 45 40 34 38 37 37 36 36 34 34 31 31 31 30 29 30 31 29 29 25 25 26 30 32 41 23 23 21 16 19 23
33 36 40 43 43 35 47 46 49 56 57 48 42 38 40 41 38 35 36 35 32 30 28 31 30 28 29 28 24 16 18 19 22 23 27 30 37 24 23 18 21 16 19
45 42 42 34 31 43 46 54 56 59 58 47 45 38 40 42 38 36 35 33 29 26 27 28 31 29 27 20 18 18 17 17 20 22 24 27 28 34 18 14 10 12 13
46 48 46 49 59 56 51 51 51 50 55 49 45 47 47 46 42 36 32 30 25 24 26 28 28 27 25 20 21 21 22 22 21 21 24 23 24 28 29 13 8 14 14
50 50 52 52 53 52 51 49 40 45 45 41 47 47 47 43 38 36 32 30 27 25 26 26 26 26 26 19 19 19 19 19 19 21 23 22 22 22 27 15 7 4 15
53 55 56 52 50 53 47 48 48 47 44 40 44 43 39 37 33 32 33 31 27 27 27 26 25 25 25 23 21 22 20 20 20 18 18 20 21 21 20 23 21 6 10
52 54 56 54 52 52 53 51 47 46 43 46 44 41 42 38 34 32 32 31 30 29 28 27 27 27 25 24 21 21 20 20 21 20 19 19 19 19 18 17 17 18 11
46 47 49 49 50 50 48 44 44 46 48 49 43 43 41 39 36 34 33 33 33 32 29 28 26 27 27 25 24 23 21 20 20 21 20 18 18 18 19 17 14 14 16
41 42 43 45 46 47 49 49 48 46 46 45 40 41 36 36 36 33 33 32 29 26 25 25 24 24 23 22 22 22 22 22 21 20 21 19 19 19 18 16 15 13 8
37 40 42 42 41 41 41 39 35 35 36 38 36 31 33 35 36 33 27 23 21 22 23 24 24 25 25 25 25 25 25 25 24 23 22 21 20 21 20 19 16 16 14
36 36 36 32 28 27 27 29 29 30 31 32 30 31 33 33 32 30 25 22 24 25 25 26 26 27 28 28 29 30 30 29 29 27 25 24 24 21 21 21 20 17 16
31 31 27 25 26 27 27 30 32 32 32 32 31 32 32 29 27 29 28 27 26 25 24 24 25 25 27 27 28 29 29 28 26 26 26 25 26 26 23 22 21 22 19
25 23 23 25 27 30 31 32 33 32 31 30 29 29 29 29 29 28 27 25 24 24 25 24 24 25 23 22 21 21 21 21 20 21 23 25 25 26 26 25 25 23 23

GFSGL_500_spd_006.txt.gz
Wind_Speed
20 23 28 28 32 32 31 31 30 28 25 25 27 28 28 30 30 28 26 28 32 34 35 34 37 39 44 42 46 45 45 45 41 38 41 44 41 43 43 44 45 44 43
18 20 28 25 29 32 32 32 33 33 31 29 29 29 31 30 30 29 28 31 34 37 37 34 40 43 44 42 49 45 43 45 47 48 44 41 41 41 41 42 45 47 46
21 25 26 30 30 34 31 33 33 35 33 35 32 32 34 33 33 30 30 33 33 34 36 36 45 41 42 47 44 42 44 47 50 51 44 35 36 39 39 40 41 44 47
27 29 30 32 33 36 32 34 35 38 39 38 37 37 38 38 38 33 32 31 28 35 30 42 45 42 42 42 43 45 46 47 47 45 42 40 39 39 39 39 40 44 46
24 28 30 34 38 37 38 37 34 41 41 42 38 40 41 43 41 35 33 34 40 45 44 48 40 44 43 46 47 48 48 46 48 45 46 41 38 41 41 40 39 40 44
25 29 34 40 37 48 34 36 31 39 40 41 36 44 45 46 45 37 35 38 36 37 43 44 42 45 46 47 47 48 49 48 47 45 41 41 36 36 38 40 39 39 40
34 31 36 39 40 36 52 31 26 33 41 42 42 45 52 50 47 41 35 41 36 46 47 46 46 47 50 49 49 48 45 45 41 39 43 38 34 34 37 41 42 40 40
37 35 40 39 46 44 37 31 44 31 34 40 40 43 53 52 50 39 37 42 40 51 48 47 48 48 49 47 49 48 44 40 39 41 36 35 33 34 38 39 40 37 35
40 40 41 41 42 43 44 44 39 33 37 41 34 44 48 46 53 45 42 47 45 47 44 46 47 47 48 49 46 44 40 36 35 32 33 35 34 37 39 45 48 36 32
46 43 49 44 43 38 42 44 44 43 46 42 43 44 43 49 42 41 43 42 40 43 44 46 47 47 47 47 43 41 38 34 31 31 32 34 36 38 43 47 53 42 38
52 44 40 40 40 42 40 40 49 48 46 47 34 40 45 34 39 32 41 31 38 40 44 45 43 44 42 41 40 38 36 33 32 30 31 32 34 37 44 45 53 45 36
44 43 47 46 46 45 43 42 45 44 47 45 35 38 36 40 47 42 29 32 35 36 40 40 42 40 38 36 37 36 34 34 34 32 32 32 32 35 42 49 42 40 20
47 48 52 48 37 34 43 42 43 45 30 36 36 44 51 48 40 33 32 35 38 38 37 40 39 37 35 35 34 33 34 36 31 30 27 29 31 35 37 38 34 35 26
50 47 44 43 32 33 36 38 38 41 30 35 46 53 47 44 35 31 34 34 37 36 36 36 35 33 32 31 31 30 28 23 18 20 23 26 30 34 34 36 30 26 16
50 41 33 33 35 38 38 37 48 43 53 45 42 43 43 42 41 37 40 40 40 38 34 33 32 32 33 32 29 25 23 21 19 20 22 25 28 30 30 40 27 20 13
44 43 42 36 38 42 44 42 44 48 50 46 41 42 39 41 38 40 39 40 39 34 33 31 31 32 33 31 27 25 24 24 22 24 25 26 27 26 28 33 27 15 14
45 47 44 44 42 46 49 46 46 46 45 42 38 41 47 47 40 35 37 37 33 31 32 32 31 31 30 29 25 24 24 21 20 22 24 25 25 24 24 26 35 15 9
47 49 50 50 47 47 46 46 44 42 42 42 44 43 44 41 39 40 35 35 33 32 32 32 31 31 29 27 26 25 24 23 22 22 22 22 22 23 23 25 24 25 15
45 47 47 49 47 44 45 44 44 44 44 43 39 40 40 39 42 39 38 36 33 31 32 32 31 31 29 28 28 26 26 22 22 22 22 22 22 22 22 22 21 24 26
43 45 37 44 44 40 40 42 45 45 43 41 43 45 44 44 43 39 37 34 31 31 31 31 31 31 29 28 27 26 26 24 22 21 21 22 22 21 21 20 21 17 21
39 38 37 35 38 41 43 43 43 42 43 44 43 42 40 37 35 36 34 32 30 31 32 31 28 26 25 24 24 23 22 22 20 21 22 21 21 21 20 19 18 19 16
32 33 39 40 38 38 40 42 40 37 36 38 36 34 33 30 31 30 27 27 30 30 27 24 22 22 21 21 22 22 21 21 21 20 21 21 21 21 21 19 19 17 16
40 42 37 35 36 37 36 35 33 30 29 29 29 31 32 31 32 32 29 28 25 24 23 22 23 23 23 24 25 25 26 27 25 25 24 23 23 22 22 21 18 16 14
36 36 32 30 27 28 25 25 26 28 29 31 32 33 34 34 33 32 30 29 26 24 25 25 24 23 23 24 25 26 26 28 28 27 26 25 24 24 23 23 21 18 15
32 25 26 24 19 19 20 22 26 30 31 29 27 26 27 28 29 29 28 27 27 28 28 26 22 22 23 24 25 26 26 25 23 22 22 22 22 22 23 22 23 21 19
24 23 23 21 23 23 25 26 26 24 27 27 26 25 26 26 27 28 26 26 27 27 26 24 22 24 24 24 24 23 21 20 20 20 19 20 21 22 22 22 22 22 22

GFSGL_500_spd_009.txt.gz
Wind_Speed
7 10 13 19 22 24 25 28 28 29 28 23 22 23 25 25 26 27 28 29 29 27 26 29 29 29 28 33 38 34 35 37 39 39 43 45 48 52 47 46 46 47 49
11 14 18 22 20 26 30 31 37 28 27 27 28 28 28 27 29 29 30 31 31 27 27 23 23 24 31 36 35 37 39 41 43 46 47 47 48 49 47 43 41 41 44
16 18 19 23 26 24 29 33 33 34 34 27 30 32 33 33 31 32 35 34 35 31 31 29 34 38 39 41 38 37 39 42 47 51 50 49 47 48 48 46 44 42 44
18 20 22 25 28 33 35 39 39 34 48 31 29 34 36 33 32 35 35 35 38 35 32 32 34 34 42 42 40 42 42 46 52 51 51 50 47 49 50 49 45 45 46
20 23 25 28 31 37 41 45 48 42 47 36 23 32 37 31 37 36 36 37 37 35 32 35 40 41 48 50 44 44 44 48 52 49 48 47 48 49 51 47 42 40 41
21 24 27 30 35 39 44 42 46 50 60 26 33 30 32 29 37 41 40 40 37 37 30 41 41 42 51 51 45 44 46 50 49 47 46 46 49 47 44 40 38 36 33
25 24 29 33 39 42 43 44 44 44 49 44 46 40 29 33 40 38 40 34 37 41 40 40 39 43 49 46 45 45 48 50 48 46 45 47 49 37 32 34 36 35 35
31 34 37 38 44 47 51 48 44 47 47 38 35 29 34 41 38 33 36 29 37 42 36 33 39 38 40 45 47 48 51 50 50 48 45 46 43 35 35 36 36 37 39
36 38 39 40 46 46 51 52 49 42 39 42 40 35 38 43 30 33 37 25 28 39 35 32 33 37 43 44 44 47 49 48 49 46 45 46 39 35 38 36 37 41 41
44 44 47 49 45 43 47 47 49 47 50 54 46 34 34 37 30 24 27 24 37 38 41 42 38 42 42 43 44 47 46 48 44 47 46 43 40 39 39 41 41 42 47
52 48 54 48 45 40 45 50 53 52 44 48 40 36 39 38 42 33 32 38 44 38 35 39 41 42 41 42 44 45 45 42 43 44 42 42 42 40 40 39 41 46 50
48 50 51 48 44 45 47 49 50 49 43 37 39 39 34 40 37 43 49 46 33 30 34 40 39 39 40 41 41 42 37 39 43 40 40 38 35 33 33 33 37 38 49
58 47 50 55 55 50 51 50 42 31 34 32 34 39 29 30 36 44 47 39 32 31 37 41 39 39 40 41 38 37 37 38 38 34 32 28 26 26 29 31 36 35 43
47 47 52 57 57 47 46 38 35 40 36 39 36 53 42 50 38 38 37 35 34 36 41 37 39 39 40 37 35 34 36 37 33 29 30 29 28 27 30 31 33 33 37
50 52 54 45 41 37 37 42 42 38 44 44 36 43 51 46 38 35 38 42 44 43 41 39 40 38 35 34 34 34 35 34 31 29 30 29 29 30 30 30 30 32 38
51 53 49 48 46 45 42 42 40 44 47 43 43 43 40 36 39 41 42 39 38 38 41 39 37 36 35 34 35 35 33 30 27 26 27 26 26 26 26 27 27 29 35
45 44 45 46 47 49 47 47 45 42 43 43 39 35 36 39 40 37 36 36 39 39 37 35 37 36 35 34 34 34 32 29 28 26 28 28 26 24 24 25 26 28 27
46 49 52 51 48 46 45 45 43 41 38 37 33 35 39 38 36 38 39 38 40 38 37 37 33 32 32 32 33 33 31 29 28 26 25 26 25 22 22 23 22 24 21
46 44 44 45 46 44 44 41 41 38 37 36 39 40 39 39 40 37 35 34 35 34 32 32 30 28 30 31 32 32 31 29 27 26 24 23 22 21 20 21 20 21 21
42 42 42 42 39 41 42 39 35 36 39 40 41 40 37 33 31 29 29 31 30 28 27 25 25 26 28 30 31 31 27 24 23 23 22 21 22 21 20 18 19 18 20
43 44 37 38 39 41 37 36 37 39 40 40 35 29 26 26 30 30 30 28 26 25 24 24 25 25 25 26 25 23 21 20 20 20 20 20 21 21 20 18 17 17 17
36 35 35 33 34 35 36 40 39 37 36 29 23 22 26 28 30 32 33 32 28 25 24 23 23 22 20 20 20 20 20 21 22 23 23 23 23 22 21 18 17 15 15
36 36 38 40 42 43 39 34 31 29 25 20 22 24 27 29 29 29 30 28 27 24 23 22 21 21 22 23 22 22 22 23 24 24 24 24 25 25 23 21 18 16 13
37 38 35 32 34 31 26 25 24 21 20 23 25 24 23 24 25 25 24 23 23 23 22 22 22 22 22 21 21 21 22 24 25 26 26 24 23 23 22 21 20 18 15
28 29 30 29 24 25 22 20 22 23 24 24 21 22 22 23 23 22 23 23 22 22 23 23 23 22 22 22 22 22 22 24 23 22 20 20 18 18 20 20 19 19 18
23 23 24 23 22 22 21 23 24 22 20 21 22 23 22 21 22 22 23 24 23 23 24 24 24 23 22 23 24 24 23 22 22 21 19 19 19 18 18 18 18 17 18

GFSGL_500_spd_012.txt.gz
Wind_Speed
8 6 7 11 13 14 15 19 21 25 22 27 23 28 27 28 23 22 24 24 23 24 25 26 28 28 23 21 27 31 32 32 30 34 34 37 37 45 54 55 54 50 41
8 7 9 10 10 13 16 16 26 28 37 41 33 29 28 31 28 26 24 25 26 27 26 26 29 31 32 34 33 31 33 34 35 34 38 40 43 49 52 56 55 52 46
9 10 11 14 18 21 24 26 29 34 34 36 42 35 40 32 32 30 26 22 27 30 31 29 31 34 34 33 32 36 37 37 38 37 35 41 49 53 55 52 52 51 48
15 15 16 19 22 27 28 31 31 36 42 44 52 46 37 31 29 35 29 30 30 33 36 36 35 32 37 36 39 41 43 46 40 37 39 47 54 57 52 49 47 50 47
23 21 16 20 23 26 29 33 38 37 44 47 50 51 40 33 22 21 30 31 33 38 42 37 34 32 38 39 40 37 33 37 42 42 43 52 57 56 49 46 45 47 44
24 16 21 23 24 29 30 38 40 41 45 46 42 42 34 32 21 27 30 33 36 38 37 33 30 32 39 37 33 34 46 51 44 44 46 55 54 52 49 46 45 43 38
23 21 23 29 31 34 35 38 45 48 47 45 45 38 39 43 46 32 30 29 30 37 32 27 24 28 28 31 33 38 44 44 46 42 48 54 52 51 50 47 43 41 38
25 25 28 32 36 39 39 42 47 49 52 48 43 44 44 45 45 42 32 29 30 35 26 21 25 30 36 37 45 42 45 46 47 48 52 56 54 52 50 45 41 39 40
30 29 30 36 39 45 46 49 45 50 48 48 46 49 49 45 44 35 33 39 24 23 27 32 39 44 39 43 45 47 49 49 47 49 52 52 51 49 48 41 42 40 40
31 34 38 42 42 47 41 52 51 47 49 51 51 53 45 44 43 33 27 37 40 29 29 34 36 39 42 42 46 49 49 49 49 54 52 48 45 45 45 45 42 39 35
35 38 43 45 48 55 51 51 50 51 51 48 46 45 42 40 43 38 30 30 32 34 39 36 38 37 37 42 46 47 47 50 51 51 45 43 43 42 41 35 30 30 31
43 45 48 52 55 54 46 44 50 52 48 44 43 34 38 39 42 39 43 32 42 37 35 37 35 35 38 41 44 47 49 50 50 45 40 39 39 37 35 33 30 30 35
45 46 52 58 61 61 56 52 53 45 42 41 34 41 40 40 44 41 43 50 31 27 32 34 38 40 41 44 50 49 49 46 41 39 38 37 37 36 34 35 34 34 35
47 51 52 59 61 61 54 52 48 47 42 43 41 44 42 45 45 43 42 43 40 35 36 44 44 43 44 45 43 45 43 39 36 35 34 34 34 34 32 32 30 29 30
49 53 55 54 57 55 50 49 50 50 46 45 45 44 47 47 43 42 41 41 38 38 43 43 42 43 42 42 40 40 38 36 35 32 31 31 32 32 32 32 30 28 30
54 52 48 50 46 45 47 48 49 49 48 46 44 44 44 44 45 43 41 43 41 42 43 44 44 43 40 39 41 38 36 33 31 31 29 30 30 30 30 30 29 28 28
46 44 50 48 46 46 47 49 50 50 49 49 48 45 41 36 36 38 40 40 38 40 41 42 41 40 38 39 38 35 33 31 30 29 29 29 29 29 28 27 26 27 26
46 49 52 51 50 49 48 48 47 47 47 46 44 40 37 35 36 35 36 35 33 36 34 33 32 33 33 34 34 32 31 30 29 29 29 28 27 27 25 24 24 24 24
51 51 50 49 50 48 45 45 46 47 43 41 40 34 34 35 36 35 31 29 30 29 28 28 29 30 31 31 30 29 29 29 28 27 25 24 24 25 23 22 22 23 22
45 45 46 45 44 44 45 47 42 41 42 38 35 34 35 34 32 29 26 27 27 28 29 30 29 27 27 28 27 27 26 25 22 21 21 21 21 22 21 21 22 22 22
43 40 41 43 45 46 44 39 42 38 37 36 37 38 34 32 27 25 26 28 31 34 32 30 28 26 25 23 22 22 22 20 19 20 21 22 23 24 24 22 22 22 22
39 41 43 42 38 37 38 37 38 39 37 34 33 30 29 23 25 26 27 28 28 27 26 25 25 25 23 21 21 22 23 22 22 22 23 23 24 25 24 23 22 22 22
42 40 38 38 38 40 42 41 37 32 32 27 24 23 23 23 23 23 25 24 24 24 24 24 24 23 23 23 24 24 22 22 22 23 24 25 25 26 26 25 24 22 21
38 38 38 37 36 34 31 31 31 27 23 21 22 24 22 20 23 25 25 23 23 23 25 26 24 23 23 22 22 21 21 22 23 24 23 23 21 21 21 22 21 21 19
34 33 32 29 29 29 27 24 22 22 22 24 23 22 18 22 23 22 22 22 23 23 23 24 24 24 24 24 22 21 21 22 24 23 22 21 20 19 20 20 19 19 19
28 27 26 27 27 25 22 21 22 22 23 23 21 19 21 22 21 20 21 21 22 22 21 22 24 24 23 23 22 19 20 21 20 21 19 16 16 18 17 16 16 17 17

GFSGL_500_spd_015.txt.gz
Wind_Speed
12 14 12 10 10 9 8 10 14 19 18 18 26 33 34 38 35 31 33 34 29 30 29 27 27 27 27 26 28 31 30 32 31 31 33 35 35 36 38 43 44 46 49
16 12 9 10 8 8 10 16 15 21 17 28 29 32 36 40 44 38 41 35 31 29 34 33 33 31 30 30 32 34 37 37 36 33 37 37 36 37 40 39 45 49 52
13 13 13 13 14 17 21 17 18 22 27 28 37 39 41 45 47 40 33 40 37 29 30 34 34 36 35 35 38 36 38 39 41 46 39 39 38 41 46 49 48 52 56
15 16 17 17 18 19 15 17 23 29 31 35 38 39 41 45 45 32 31 25 32 36 35 36 36 40 40 37 32 32 34 36 40 41 38 40 49 56 58 53 52 56 57
18 20 19 18 17 17 20 24 29 32 35 39 43 46 47 47 38 36 35 27 42 31 35 35 39 42 42 34 35 34 32 36 39 39 44 49 54 56 53 53 53 55 50
22 22 21 16 14 18 22 24 28 35 39 43 47 48 52 46 42 42 42 39 41 33 35 38 43 39 37 31 31 34 33 36 36 41 47 50 52 53 54 56 57 56 49
24 20 22 22 18 20 27 30 33 39 43 42 46 46 48 47 42 42 45 43 44 42 40 40 36 35 32 25 27 32 38 44 44 46 48 51 53 52 54 54 52 51 48
24 22 22 24 24 25 29 33 38 41 45 47 51 51 48 50 48 45 43 41 46 43 32 37 41 37 34 37 38 32 37 44 48 49 48 52 53 54 56 55 52 50 47
21 19 21 23 28 30 33 36 41 45 49 52 53 51 52 52 47 45 41 37 37 28 29 44 39 31 29 35 33 41 43 46 47 52 53 54 56 56 55 55 50 47 42
27 25 25 26 31 34 37 42 44 51 51 49 49 58 57 54 42 42 34 35 37 34 34 33 36 34 36 36 39 40 43 46 50 55 54 55 54 53 47 44 42 40 40
33 31 33 33 35 37 38 43 51 58 56 58 62 55 52 45 43 36 39 40 39 37 39 39 43 43 36 37 40 42 43 48 54 53 55 52 51 47 42 41 38 38 40
40 36 37 39 42 43 44 47 50 57 60 64 59 53 50 45 45 43 44 43 43 44 42 44 41 35 36 37 40 45 48 50 52 52 49 46 42 39 37 36 36 35 36
44 41 39 44 43 45 47 49 51 58 61 62 54 49 47 45 42 43 44 43 47 45 43 40 33 35 41 46 47 46 48 48 46 46 45 42 37 36 35 34 33 32 32
49 45 42 46 44 49 52 55 57 54 56 50 47 47 49 47 47 43 42 45 45 41 41 40 38 42 46 49 46 44 45 45 43 43 42 37 34 33 33 32 32 32 34
44 44 47 46 51 51 54 55 59 55 53 51 51 50 51 50 46 43 42 38 41 41 35 38 43 50 50 46 46 44 43 44 43 42 38 34 31 32 31 31 32 31 31
44 42 50 54 52 53 56 56 52 52 52 53 50 50 52 49 47 46 39 39 42 43 43 46 49 47 44 41 41 39 38 37 36 36 34 33 32 31 30 31 32 30 30
46 51 53 55 56 59 57 52 52 55 52 49 47 47 46 47 45 41 39 39 39 42 44 45 43 38 37 37 38 37 36 35 34 34 33 32 32 31 29 29 29 27 28
51 51 54 53 51 53 55 54 54 50 47 47 46 47 46 43 43 40 37 39 41 44 43 38 35 35 34 33 34 34 33 33 33 33 32 32 31 28 26 26 26 26 26
49 50 52 54 55 55 53 52 48 47 46 46 48 44 39 40 38 35 37 39 38 36 31 31 32 34 35 33 33 33 33 32 32 30 28 26 24 24 24 24 24 24 25
53 50 49 52 52 51 50 48 45 46 47 44 39 38 34 39 39 36 35 33 29 28 30 32 31 32 32 31 31 30 30 28 25 24 23 22 22 24 25 26 27 26 25
48 49 49 51 51 44 44 44 45 45 43 41 39 35 33 34 30 26 25 24 27 28 26 28 27 27 27 26 26 26 26 25 24 25 25 24 24 25 26 27 26 26 26
48 47 49 47 43 42 43 43 41 41 41 43 42 34 32 29 23 23 25 26 24 25 26 24 24 25 26 26 24 24 25 25 26 24 23 23 25 27 28 29 29 28 28
45 42 42 43 44 41 40 39 39 39 38 33 32 30 25 24 24 24 23 22 23 24 23 23 23 24 24 25 26 25 24 24 23 23 23 24 26 26 26 26 25 24 24
41 42 42 42 39 36 37 35 34 31 31 30 24 21 22 22 25 22 20 20 20 20 21 22 22 22 21 24 25 25 24 24 23 22 23 24 23 24 23 23 24 23 23
41 41 37 35 33 33 34 31 30 28 27 27 24 24 24 23 21 20 20 20 19 19 20 21 22 24 27 27 25 23 23 23 20 21 20 20 20 19 18 21 22 21 20
37 34 33 32 30 29 30 31 31 30 27 26 25 24 23 21 21 21 21 21 21 21 21 21 22 22 23 25 25 22 22 22 22 21 21 20 18 16 17 18 19 19 19

GFSGL_500_spd_018.txt.gz
Wind_Speed
13 15 19 16 12 9 7 3 8 10 11 10 14 18 23 24 31 33 32 32 30 33 38 34 34 32 32 34 33 32 33 34 35 37 39 41 40 39 39 40 38 37 33
13 13 11 12 10 9 6 8 10 14 15 16 17 24 29 29 32 35 33 34 34 33 25 28 32 31 32 32 33 36 37 38 38 39 42 42 42 43 44 45 42 40 43
10 9 8 8 8 9 10 12 10 16 18 21 24 28 33 35 35 38 35 34 33 35 28 29 32 36 35 35 36 37 37 37 36 39 40 42 42 44 46 44 44 51 55
10 7 8 9 11 12 10 10 13 15 20 25 30 35 36 40 38 41 40 42 36 35 38 34 38 40 44 43 43 41 41 36 35 37 35 37 41 45 44 44 47 52 52
14 10 11 13 12 9 10 9 13 18 21 27 29 33 38 41 42 43 44 43 46 44 41 39 37 36 40 44 43 43 39 33 35 38 39 40 40 40 43 47 51 56 56
19 16 16 15 14 14 15 16 15 18 22 27 33 39 38 42 44 45 46 48 47 42 43 39 38 36 37 37 41 42 34 37 33 36 41 44 47 49 49 54 53 57 56
24 17 19 10 12 13 17 21 23 25 25 30 35 42 46 39 42 49 50 48 44 40 39 37 32 36 34 35 42 46 45 39 36 40 33 47 49 51 53 53 56 58 57
25 23 20 17 17 16 17 20 24 26 30 36 40 47 54 56 52 49 48 47 40 40 33 36 26 26 29 36 40 46 35 32 38 38 42 48 52 56 55 56 60 60 49
30 27 21 20 19 16 18 23 28 29 34 37 42 49 52 54 60 59 48 45 45 39 36 39 35 34 35 39 41 40 41 47 44 43 45 50 54 54 58 59 59 49 46
34 26 24 26 26 25 24 28 29 33 37 41 47 52 54 59 58 57 49 44 42 42 45 45 41 40 38 38 43 46 47 41 40 43 50 52 54 56 57 50 45 41 40
31 26 25 27 28 30 30 32 33 38 42 45 48 51 55 60 57 53 44 41 39 39 41 43 42 43 42 39 42 41 41 42 44 47 51 53 50 47 45 43 40 38 36
31 25 27 29 31 32 35 34 39 43 46 49 49 52 57 56 56 50 46 45 44 44 44 41 44 44 39 39 36 40 42 47 51 54 48 46 43 41 41 39 37 35 34
28 29 30 35 37 38 46 33 41 44 46 50 52 53 54 56 54 50 47 46 43 41 40 42 40 37 41 43 41 44 46 48 53 49 48 44 42 42 39 37 35 34 33
32 30 36 39 41 41 40 40 42 46 52 54 54 56 59 51 50 49 48 46 42 42 41 41 39 37 41 41 44 50 52 51 48 43 42 41 38 38 37 36 34 34 33
34 37 44 44 43 47 43 45 47 50 53 53 57 59 57 54 51 50 48 46 46 43 40 34 36 43 49 46 49 50 48 43 41 37 38 37 35 34 33 34 33 33 33
44 46 47 42 43 42 45 47 51 53 55 56 57 56 54 51 48 47 46 45 41 40 36 36 41 45 46 48 45 37 40 40 39 38 37 35 33 33 33 33 32 31 31
52 50 47 55 43 46 48 52 55 56 56 51 52 50 47 49 47 46 43 39 37 37 37 38 42 44 38 33 36 38 40 41 40 38 36 35 34 34 32 30 28 27 28
52 49 54 46 43 49 52 55 56 56 50 46 47 47 46 44 46 41 38 36 38 38 39 39 34 30 32 35 35 35 35 35 34 33 34 32 29 27 26 24 24 24 26
55 56 56 51 40 48 56 57 56 50 46 47 47 44 45 43 39 39 36 36 36 36 32 26 26 28 29 28 28 30 30 31 31 32 30 27 25 24 24 24 25 27 29
53 56 57 49 51 54 60 58 52 49 45 46 42 43 38 38 40 38 34 33 32 26 25 27 26 24 25 26 27 28 27 26 27 28 28 27 27 26 26 26 27 28 30
51 34 39 44 49 53 50 46 46 47 45 43 39 37 36 39 39 32 31 28 25 27 24 22 24 22 23 24 25 25 24 24 24 25 25 25 24 24 25 27 29 29 30
46 44 45 49 53 45 43 44 46 45 42 41 38 37 37 32 32 28 23 23 24 22 21 21 22 22 22 23 23 24 26 26 24 25 25 25 24 25 26 28 28 27 27
43 44 46 46 39 46 44 42 44 42 37 35 33 33 32 30 29 22 22 24 22 20 20 19 20 21 21 23 24 27 27 26 25 24 24 23 23 24 25 25 24 23 24
43 42 46 43 38 37 39 37 33 35 34 34 32 30 28 27 26 23 23 22 21 20 19 19 19 20 20 21 22 25 25 24 25 24 23 23 23 23 24 21 22 24 22
37 39 41 39 37 36 34 35 29 36 35 33 31 31 28 27 26 25 24 20 21 21 21 22 23 22 22 22 21 22 23 24 25 25 25 24 24 24 23 20 20 22 22
35 39 39 39 40 37 30 29 36 35 37 32 34 32 28 26 27 25 22 21 22 22 21 23 23 24 23 24 23 22 23 24 24 24 24 25 24 22 21 19 19 20 21

GFSGL_500_spd_021.txt.gz
Wind_Speed
9 9 11 15 14 11 5 9 4 3 4 6 6 8 13 16 21 22 23 26 28 34 34 34 32 30 25 32 35 36 39 33 30 32 34 39 39 39 40 40 40 40 40
10 7 6 5 7 6 7 11 6 6 7 11 10 11 14 18 26 27 28 28 31 33 34 33 35 30 30 33 34 37 35 33 35 33 37 42 38 36 40 39 41 41 41
8 6 5 5 6 6 9 9 7 8 10 8 11 16 20 24 27 26 28 30 33 37 37 36 32 33 32 33 35 34 38 40 40 40 40 38 36 36 38 36 40 41 45
9 7 7 6 7 7 10 9 9 11 10 13 15 14 20 25 33 34 33 31 34 37 37 39 33 33 33 30 29 36 33 36 38 40 39 35 35 38 41 41 41 45 44
16 11 10 10 8 7 12 13 10 9 11 17 17 18 21 27 36 37 36 44 47 37 33 34 33 32 32 30 45 33 33 30 36 39 39 40 37 34 36 40 39 36 42
22 16 16 14 11 10 14 15 15 15 17 18 20 22 25 29 35 40 42 46 48 41 35 33 34 28 28 25 28 25 27 31 39 45 47 49 48 38 41 48 41 41 44
28 25 19 17 16 15 17 15 15 18 20 17 20 24 28 33 39 43 41 46 48 45 38 35 30 31 32 32 29 32 32 35 37 47 49 40 42 49 48 47 48 50 54
29 29 26 20 18 19 20 18 17 15 16 17 20 25 31 36 42 45 46 49 48 44 37 33 34 34 36 34 34 35 38 43 43 44 44 47 50 47 46 47 50 54 54
30 33 31 23 20 24 21 21 20 17 17 20 23 28 33 37 43 46 47 53 49 44 40 38 35 38 40 41 40 42 43 44 44 47 50 49 47 45 48 50 52 56 54
33 34 32 30 24 28 26 23 23 23 22 23 27 32 37 41 45 48 49 51 49 45 44 41 39 38 41 43 44 44 45 45 46 47 49 46 45 48 53 57 52 47 39
36 36 37 36 29 27 29 32 28 28 28 27 31 35 39 42 46 50 50 50 47 44 42 43 42 41 43 43 43 41 39 41 45 45 47 48 50 54 55 51 47 41 37
37 38 39 35 29 26 22 24 30 30 37 37 33 38 41 46 49 49 51 51 46 45 45 44 44 45 42 42 48 43 41 41 44 44 49 53 53 52 46 40 38 37 34
40 40 39 34 30 26 22 30 30 34 40 40 32 39 45 48 50 50 48 48 46 45 44 45 45 45 41 42 42 42 39 43 45 47 47 47 42 39 41 39 36 34 33
45 43 41 33 34 33 31 32 34 41 45 41 44 43 49 50 53 48 46 43 41 42 46 46 48 46 42 39 38 47 47 49 49 44 40 41 42 39 38 37 33 32 31
45 44 41 37 38 37 37 37 43 41 38 41 42 49 51 51 53 48 46 44 44 43 46 45 41 37 35 35 39 43 43 39 35 39 40 40 39 37 35 32 30 29 30
47 47 46 43 40 41 45 42 44 45 39 46 49 50 49 50 49 48 46 43 43 44 42 39 36 34 35 37 38 34 33 35 35 35 37 35 31 29 28 27 27 27 28
49 50 44 40 42 44 46 46 49 46 45 49 49 50 48 48 46 47 45 44 45 43 41 38 34 35 34 32 30 33 31 30 31 33 35 33 31 29 28 26 25 24 25
58 52 49 41 46 47 50 48 55 49 47 50 47 50 53 45 43 45 45 46 44 43 40 34 33 30 26 31 30 27 27 28 29 31 31 31 30 28 27 27 26 26 27
49 45 44 48 50 49 51 58 63 56 53 47 52 53 47 42 42 44 45 45 41 41 33 31 27 28 29 26 26 24 26 27 29 30 29 28 28 28 28 27 26 27 29
48 51 57 55 50 42 46 49 61 62 40 43 50 44 41 41 44 45 44 40 37 34 30 26 28 28 24 23 23 24 24 25 28 30 29 27 28 28 28 28 29 31 32
50 58 55 55 45 50 56 48 39 38 43 45 40 37 38 41 42 41 38 34 32 31 26 27 28 22 20 22 23 24 25 26 28 27 27 27 27 28 28 28 29 29 29
56 54 43 47 49 44 46 49 46 45 41 41 40 40 40 39 36 35 32 30 29 26 25 28 23 18 17 20 21 22 23 24 26 27 26 27 26 27 27 27 27 26 25
41 44 43 40 51 60 62 49 37 37 40 38 38 36 32 32 32 31 28 28 28 25 25 23 22 17 18 21 23 23 21 22 24 25 26 26 26 26 27 28 27 24 25
50 46 51 44 52 45 25 36 39 36 36 34 34 33 32 34 31 30 30 32 31 29 26 22 21 19 20 23 25 25 24 23 23 24 25 26 26 27 28 27 25 22 23
32 30 25 21 26 26 32 35 35 35 37 34 33 31 36 37 34 33 32 32 31 28 26 23 22 22 23 25 23 23 24 24 24 24 24 25 26 27 28 27 24 21 22
28 30 29 27 31 29 36 34 37 34 35 37 30 32 34 34 35 33 31 29 28 27 24 23 22 22 23 24 23 23 23 23 23 24 24 24 25 26 26 26 24 21 21

GFSGL_500_spd_024.txt.gz
Wind_Speed
12 11 12 18 19 16 15 17 13 10 4 1 4 5 6 5 8 12 17 18 20 26 29 27 29 28 28 27 28 26 22 21 26 32 29 29 31 34 35 34 33 36 37
11 9 9 11 13 19 19 19 13 7 4 3 3 3 3 7 9 14 21 17 22 29 35 35 29 28 28 30 29 25 27 24 31 25 27 30 33 34 32 30 30 30 32
13 8 8 9 13 19 21 18 15 9 7 6 6 8 7 9 13 16 21 26 22 27 35 33 31 28 27 29 27 26 26 24 31 34 30 30 33 34 33 34 34 31 31
15 10 7 10 14 16 18 19 15 13 11 9 8 7 9 12 15 20 20 26 27 29 35 36 33 31 31 26 27 28 24 25 28 30 27 34 36 39 40 43 44 47 37
20 16 13 15 16 16 17 18 17 15 14 14 11 11 11 14 16 20 22 26 31 34 37 40 37 31 28 26 25 29 33 29 28 26 27 34 39 39 48 46 44 42 40
21 21 20 20 18 15 18 19 19 19 17 18 16 14 12 14 18 23 26 27 31 33 38 38 32 30 30 30 27 30 31 32 34 35 36 34 39 42 49 49 46 44 49
29 24 26 25 22 21 20 22 20 23 25 24 21 17 15 17 20 25 29 31 32 36 39 40 33 33 32 31 30 30 34 37 37 40 41 43 48 51 49 49 52 54 54
28 28 29 30 28 25 24 23 23 24 22 20 20 18 19 19 23 27 31 33 35 39 42 42 35 35 35 35 38 36 36 40 42 44 46 46 44 50 51 52 51 51 46
30 31 28 30 32 30 25 25 26 28 28 24 22 21 21 22 26 29 34 35 40 45 45 42 36 36 39 40 39 39 41 43 43 45 45 45 45 47 50 49 50 50 52
34 29 31 31 35 34 31 28 32 33 34 30 27 26 25 27 29 33 35 38 42 47 44 39 37 39 42 43 41 43 44 45 42 43 49 45 46 46 49 51 55 52 48
37 36 38 36 37 36 37 34 36 39 39 37 37 32 32 32 36 33 33 39 44 46 41 40 40 41 41 43 44 48 44 41 46 49 43 44 43 43 48 50 48 45 42
43 43 42 38 41 44 43 40 38 42 44 44 48 47 31 27 30 32 36 41 45 44 41 42 42 42 43 45 47 45 42 41 44 43 50 47 45 47 42 42 44 45 43
52 46 46 43 41 44 45 45 41 41 42 45 52 37 27 28 33 33 38 44 45 43 43 43 43 43 45 48 44 38 39 38 40 45 45 41 39 45 46 46 45 43 39
52 49 43 38 41 40 43 48 45 44 42 46 52 31 30 36 41 37 40 43 43 43 43 43 42 43 45 45 41 38 38 39 39 38 37 40 39 41 42 42 40 37 33
61 54 55 57 52 51 49 52 49 50 51 44 41 39 41 42 45 41 45 46 47 45 44 42 42 42 43 41 37 39 37 33 33 36 34 34 36 36 36 35 31 30 30
65 64 56 56 51 54 56 63 62 59 39 27 40 43 44 46 45 45 45 45 47 44 43 42 41 40 41 37 38 35 31 33 32 31 32 33 33 34 35 32 29 28 28
57 61 65 69 62 59 59 62 46 25 30 38 44 49 47 53 48 59 45 39 44 42 41 42 39 38 37 36 32 32 34 29 29 29 29 31 33 33 34 33 33 31 31
54 50 50 40 38 47 55 57 48 27 36 42 46 48 52 54 61 69 46 40 40 41 39 39 36 36 33 29 29 30 29 27 28 29 29 32 32 32 32 33 33 32 32
31 26 43 50 46 46 57 62 52 30 40 49 46 52 54 54 54 39 42 40 38 38 37 36 35 32 28 26 29 28 26 26 25 27 28 30 31 32 32 32 32 31 31
32 29 35 43 46 50 60 59 47 47 44 46 50 47 47 41 43 36 38 40 37 36 36 32 29 28 25 28 28 25 24 23 24 26 26 28 30 31 31 31 31 31 32
32 33 37 42 45 47 49 45 43 46 47 53 50 44 46 43 42 36 38 38 35 36 33 28 27 26 25 28 27 22 20 22 25 25 26 28 29 30 30 30 32 32 31
34 35 39 42 44 40 39 46 53 46 51 52 47 51 47 34 34 35 34 33 34 32 29 26 25 24 27 28 25 21 21 24 26 26 26 26 28 29 29 30 31 32 29
36 39 39 40 43 46 43 43 44 46 52 52 55 36 30 33 33 32 33 31 30 31 26 24 26 29 27 27 25 22 24 25 24 26 25 26 27 28 29 30 30 31 28
39 40 43 44 48 50 48 47 42 46 43 35 29 32 31 30 33 32 31 29 30 29 25 25 28 30 27 26 25 22 24 24 25 24 24 25 26 28 28 29 30 30 29
40 45 48 52 54 55 54 43 42 36 34 33 31 31 34 33 32 32 33 32 30 29 26 24 28 31 28 25 24 23 24 25 25 23 22 23 24 26 27 27 29 29 28
47 43 47 47 56 58 46 32 28 31 34 34 34 34 36 34 33 31 32 32 32 32 30 27 30 30 28 25 24 22 24 24 24 24 22 22 23 24 26 26 27 28 27

GFSGL_500_spd_027.txt.gz
Wind_Speed
12 13 13 15 20 22 19 20 19 18 18 13 9 7 7 9 8 4 6 10 11 11 20 26 26 24 24 24 25 28 24 22 25 30 28 23 23 22 28 30 28 29 31
15 14 14 14 15 18 21 21 20 21 19 14 9 7 7 8 8 10 8 10 13 15 19 24 27 28 26 29 28 26 26 28 29 26 32 31 31 27 25 25 27 26 27
16 15 13 14 13 14 22 23 23 24 18 15 12 9 10 11 10 12 11 12 14 17 20 23 27 30 27 25 25 26 26 26 26 28 28 30 29 30 29 27 30 31 31
17 13 10 11 12 14 23 24 25 25 20 18 17 14 13 12 10 13 13 13 15 19 21 24 29 32 28 24 25 27 26 28 29 28 30 30 31 33 33 36 35 35 40
20 14 10 12 15 15 18 21 24 24 22 21 20 17 16 16 15 14 17 18 16 20 22 24 29 33 33 29 27 25 26 29 32 32 34 34 35 36 39 42 40 44 43
26 20 17 16 16 17 20 22 23 23 24 24 22 23 20 20 20 18 20 22 21 22 24 26 33 34 34 30 28 27 31 33 36 36 37 40 40 41 42 40 45 53 56
27 25 21 22 21 19 21 25 25 23 26 27 27 27 27 26 23 21 22 24 23 24 24 28 33 34 29 29 31 32 35 39 38 39 42 44 44 44 44 47 53 51 50
29 30 27 28 26 27 27 25 28 27 26 30 31 32 32 27 25 23 26 28 24 25 26 30 33 33 31 33 35 36 38 40 42 41 44 46 47 47 43 46 51 50 50
38 39 37 33 29 31 32 28 26 31 30 29 31 31 31 31 30 26 31 31 30 32 32 33 35 34 35 36 37 37 37 42 44 46 47 46 42 43 49 47 49 46 44
40 40 42 37 30 30 33 34 35 31 31 35 36 38 38 36 35 31 37 36 35 33 31 32 33 32 34 36 37 40 41 43 46 45 45 45 46 45 45 52 49 43 42
37 46 42 40 34 33 35 38 43 40 38 39 41 44 43 43 40 38 42 39 32 37 32 33 32 33 35 36 37 39 41 43 44 43 45 44 45 45 47 44 41 44 44
45 49 49 46 40 40 41 41 44 49 46 44 44 46 50 48 48 49 52 41 31 34 32 33 33 34 36 36 38 41 42 42 41 40 42 43 41 40 40 40 40 42 45
47 48 51 49 45 46 47 48 47 50 54 53 51 51 49 52 54 54 60 34 31 35 35 36 39 40 37 38 40 43 43 41 37 39 40 38 38 37 38 39 39 41 42
50 54 56 60 53 50 51 54 51 52 53 60 59 55 51 51 55 57 50 28 33 31 37 34 37 40 39 38 40 43 41 36 36 34 36 37 36 36 37 37 37 39 39
60 59 60 59 60 59 55 54 53 49 56 61 64 62 55 56 62 54 45 40 41 37 41 42 38 35 36 38 42 42 36 34 32 34 34 34 34 36 38 38 36 37 37
67 66 72 64 61 57 57 56 56 60 58 59 70 56 59 49 51 29 36 35 43 46 52 54 31 33 36 39 40 38 35 29 32 33 31 32 34 36 37 37 36 37 36
67 68 69 70 63 64 69 62 64 71 67 65 71 77 44 36 11 24 34 40 40 42 32 26 29 32 36 36 35 36 31 29 32 31 29 32 33 35 36 36 36 36 36
74 80 82 77 79 72 70 77 79 77 65 66 75 71 36 29 30 33 34 36 40 43 42 30 32 35 34 32 32 33 29 29 30 28 28 29 31 33 34 35 35 34 35
64 69 95 88 66 75 77 62 60 67 53 31 27 27 35 34 40 37 33 38 36 29 30 30 34 33 32 31 32 29 27 28 27 25 26 28 30 30 31 33 34 34 35
41 9 10 52 40 28 46 48 39 36 27 22 29 33 33 40 45 38 34 35 39 40 34 32 31 31 31 32 29 25 27 27 25 24 26 27 28 28 30 32 34 34 35
21 15 13 10 10 13 13 21 24 24 25 27 29 30 35 38 38 42 37 41 40 31 30 28 28 30 32 29 26 25 25 25 24 25 27 28 27 27 29 31 32 33 33
19 16 15 16 14 16 20 23 24 26 26 31 30 33 33 41 47 49 48 40 28 29 30 28 30 31 28 28 29 25 24 25 25 26 28 27 26 25 26 28 30 31 32
22 18 19 20 21 24 26 25 25 25 28 34 36 40 37 36 39 42 31 26 28 29 34 30 31 27 29 29 27 24 25 25 26 26 28 27 25 23 24 26 28 29 31
26 28 24 24 26 31 32 28 33 36 38 38 37 44 39 37 44 35 29 29 32 33 34 34 31 29 30 28 24 25 26 27 27 28 28 27 25 22 22 24 26 28 29
37 30 30 31 32 33 36 39 44 37 38 44 43 41 43 42 31 31 32 33 35 35 31 32 30 29 28 27 25 26 27 27 27 27 27 27 25 24 22 22 24 26 28
36 39 41 39 43 47 48 49 44 47 45 43 37 32 44 35 34 35 35 33 33 35 29 28 29 28 28 27 27 27 27 28 27 26 27 28 26 25 24 23 24 25 26

GFSGL_500_spd_030.txt.gz
Wind_Speed
8 8 9 13 19 23 24 24 25 24 21 18 18 17 13 10 10 12 11 10 8 9 11 13 17 20 22 22 21 20 23 25 24 24 26 24 24 27 25 22 23 25 27
12 10 10 12 15 17 19 23 27 24 23 21 20 18 14 12 11 11 12 14 14 12 12 16 17 20 24 25 23 21 22 23 23 25 27 29 31 31 30 29 27 25 26
14 12 12 12 15 17 17 20 26 26 25 24 21 19 15 13 11 13 14 14 15 14 13 14 17 19 24 23 24 23 23 23 22 24 28 29 31 33 36 35 34 34 34
17 14 12 10 12 13 17 18 23 27 27 27 22 22 17 16 15 14 16 15 14 13 12 14 18 19 25 27 25 23 21 22 22 25 29 32 33 34 37 39 41 41 39
19 19 13 10 10 11 13 13 15 22 26 27 25 25 21 20 20 20 20 19 18 18 15 16 17 19 23 25 21 20 20 24 27 28 31 33 34 39 41 42 44 44 42
22 18 19 15 13 11 13 15 16 17 23 27 25 25 25 24 25 24 24 22 21 20 21 20 19 22 25 22 20 21 24 27 28 29 31 35 38 41 43 44 45 47 43
27 24 21 20 21 17 17 19 18 20 23 24 26 27 27 28 29 27 28 26 25 25 27 26 23 25 25 23 23 26 27 27 29 31 34 37 40 44 47 47 46 45 44
29 31 27 24 25 23 24 23 24 24 24 25 25 27 30 30 31 31 33 31 28 29 33 31 29 27 31 26 25 28 27 29 30 34 39 42 43 45 43 41 43 44 44
25 31 33 31 30 27 25 26 28 29 27 27 30 29 31 34 35 37 39 35 32 33 37 38 36 33 30 27 28 32 33 33 35 38 42 43 44 44 39 40 42 42 39
26 36 37 37 35 35 33 34 33 32 32 32 33 32 33 35 38 41 41 38 38 39 43 43 40 38 33 30 31 34 35 36 37 41 43 43 42 38 38 37 37 37 38
33 39 38 41 42 40 41 34 34 34 37 38 40 40 39 42 43 46 47 44 44 45 45 46 46 32 34 36 33 35 35 37 40 42 42 40 38 35 34 35 34 35 37
36 40 41 45 40 44 49 39 42 37 40 41 42 48 46 49 50 52 53 51 53 51 49 48 54 40 39 41 38 36 34 38 39 40 40 36 32 34 34 32 33 36 37
43 39 44 42 41 45 43 48 54 55 39 46 49 46 51 55 58 57 56 56 62 61 54 44 38 38 41 44 40 33 33 40 39 38 36 31 31 32 30 30 33 36 38
53 48 51 46 47 47 49 60 60 53 48 51 47 37 47 53 60 65 68 70 67 53 50 47 42 40 42 47 45 30 34 38 36 35 31 29 28 27 28 29 33 36 39
54 53 56 58 57 54 56 66 47 59 57 53 56 50 57 55 64 66 70 69 59 47 41 36 31 35 38 30 27 29 33 36 34 32 28 29 26 24 25 30 32 35 39
47 49 55 62 60 59 65 66 62 66 67 62 63 64 69 69 64 57 62 34 61 45 21 22 33 37 37 33 34 32 33 35 30 30 27 28 24 23 26 30 31 34 38
55 53 53 59 64 62 65 69 71 70 71 67 69 70 71 76 70 65 64 35 30 18 26 26 31 37 34 33 32 33 33 30 28 27 26 24 21 23 26 29 31 34 37
47 49 49 49 53 59 64 66 70 73 76 74 76 74 76 67 55 65 68 45 21 20 25 28 29 28 28 29 34 33 29 27 27 25 23 21 21 22 26 28 30 34 36
47 47 49 54 56 60 61 70 78 77 77 79 75 74 77 72 58 55 64 24 18 21 29 25 27 30 34 36 33 28 25 26 27 24 21 20 19 22 26 27 30 32 34
45 45 48 48 49 53 61 63 73 86 86 77 71 72 72 43 33 52 28 18 25 22 19 25 29 32 31 29 28 25 24 26 26 22 20 19 20 22 25 25 29 30 32
44 42 36 33 29 27 22 41 26 44 48 67 51 13 11 20 29 24 16 20 22 27 30 32 33 31 29 28 26 23 24 26 24 22 20 20 21 22 24 25 27 28 30
41 34 28 24 19 4 6 13 9 7 8 13 5 8 15 20 23 16 18 23 25 28 30 31 29 28 27 24 23 25 24 23 23 22 21 20 21 22 24 25 26 26 27
31 25 20 20 13 11 7 11 14 14 10 10 15 17 20 20 25 24 25 23 25 30 30 30 29 26 26 25 25 25 23 22 23 23 23 22 22 23 25 25 24 24 25
29 18 20 20 18 17 16 16 15 17 21 24 17 20 28 26 25 30 32 30 30 32 30 28 28 27 27 28 25 24 24 23 25 24 23 22 23 25 26 26 25 24 25
26 24 20 24 29 21 25 22 24 33 30 25 25 26 31 36 36 37 33 33 31 25 25 28 28 27 29 27 25 25 25 25 25 24 24 24 24 25 26 26 26 25 26
29 30 26 28 31 34 33 32 31 35 31 30 33 31 32 29 32 33 28 32 25 25 27 27 28 29 30 28 25 26 27 27 26 25 26 25 25 26 25 25 25 24 25

GFSGL_500_spd_033.txt.gz
Wind_Speed
13 13 13 13 17 22 24 26 27 28 24 23 19 16 14 15 14 11 10 10 10 11 8 9 9 10 12 14 13 11 11 12 11 13 15 17 17 18 20 24 27 29 29
14 13 12 13 11 12 16 23 28 31 30 27 23 19 18 17 17 12 11 9 12 14 11 13 11 12 12 14 15 13 12 12 14 16 19 17 16 18 20 22 27 31 34
17 17 13 11 11 12 12 16 18 25 29 30 26 20 21 20 19 15 13 14 15 16 14 15 15 15 15 16 17 15 12 12 15 17 19 21 23 26 28 30 31 35 36
21 19 14 11 12 14 14 13 15 21 26 30 27 24 24 23 22 18 15 16 17 16 15 15 16 15 12 16 21 17 15 16 18 19 22 22 25 28 32 35 35 37 40
20 22 16 13 15 14 10 11 13 13 16 26 28 27 26 26 24 20 19 18 19 20 22 22 17 16 18 17 18 22 20 21 22 20 20 25 27 32 34 36 39 42 45
26 23 21 19 19 17 11 11 10 11 12 16 24 27 27 26 26 26 25 23 23 21 22 25 26 20 20 21 24 26 26 26 25 24 25 29 33 34 36 37 41 44 46
26 27 31 26 22 21 19 18 14 14 13 13 18 22 25 25 29 30 29 29 28 27 27 27 30 30 28 30 29 26 29 30 29 30 32 35 38 38 40 43 44 42 41
30 29 31 36 25 24 26 24 22 20 21 19 17 19 23 25 27 30 33 36 34 32 31 30 32 34 36 34 35 31 32 33 33 35 37 40 42 40 40 42 41 40 39
29 31 26 29 28 32 29 26 25 26 26 26 25 23 20 20 25 30 35 39 38 35 35 34 35 39 41 41 42 41 38 38 37 39 41 41 42 41 41 40 38 38 39
29 24 23 32 38 35 33 35 31 31 30 30 32 32 30 29 31 34 38 41 42 40 39 39 39 42 45 47 46 37 41 43 41 41 43 44 42 42 40 37 35 38 35
38 35 31 27 35 41 44 43 42 44 48 37 43 32 38 38 41 40 43 47 46 45 48 46 45 48 49 50 51 52 52 54 48 46 39 43 41 41 38 36 37 35 33
42 43 43 34 33 39 39 46 55 51 50 36 37 42 43 44 46 46 48 54 56 55 55 55 58 59 56 54 55 46 50 46 49 47 45 44 39 38 35 36 36 31 32
43 43 40 38 39 41 44 53 60 50 41 44 42 46 41 42 48 47 50 58 64 62 64 64 67 71 69 60 52 49 50 45 43 36 38 39 36 35 34 37 32 29 32
43 43 44 42 41 43 49 53 52 62 40 49 54 51 53 56 50 41 52 60 61 61 58 68 74 73 61 61 42 46 51 45 35 35 39 37 34 33 34 36 28 28 31
46 47 48 46 48 50 54 52 52 49 48 52 58 62 60 60 55 63 55 59 63 62 71 80 72 71 73 35 27 37 44 35 33 36 38 36 33 31 33 33 27 28 31
50 52 52 54 55 57 59 61 61 61 58 57 61 66 71 70 70 66 62 69 67 67 70 64 57 59 38 34 26 40 38 37 35 36 36 35 32 31 33 28 26 27 30
42 43 46 50 50 53 55 54 55 56 57 62 67 70 76 78 76 71 70 70 74 73 68 59 53 44 33 22 25 34 35 30 28 32 34 33 30 31 31 26 25 27 29
47 47 50 52 51 53 55 55 54 55 54 57 60 65 71 77 81 80 79 72 72 72 57 63 61 29 25 25 29 30 32 28 28 32 32 30 30 29 26 26 26 27 27
48 50 51 55 54 50 49 53 56 57 58 63 68 73 75 77 77 78 77 74 78 77 78 49 37 22 29 30 30 33 29 29 31 32 30 29 29 26 26 25 26 25 26
52 54 55 55 54 54 49 49 52 55 57 63 63 60 75 81 77 73 73 70 73 80 81 52 34 18 30 27 26 25 24 27 30 31 29 27 26 27 27 25 25 24 25
56 53 52 50 46 47 46 50 51 49 50 46 56 43 29 42 52 71 72 60 55 30 21 17 20 24 31 25 23 24 26 28 30 31 26 24 27 28 27 25 25 24 24
41 40 40 40 42 40 37 40 42 39 34 20 30 38 31 21 20 16 21 21 20 13 16 24 23 27 27 25 25 25 28 30 29 28 26 27 28 28 27 26 26 25 23
36 34 36 40 37 32 33 31 31 31 26 20 16 6 2 4 8 9 16 15 14 18 21 20 25 28 27 26 27 28 29 28 27 29 28 29 28 28 28 28 27 25 22
40 37 40 39 35 33 34 29 27 24 18 13 16 11 10 12 13 16 16 22 25 30 22 28 32 29 29 29 28 28 29 29 30 31 31 30 28 28 28 28 26 24 22
39 42 42 37 37 38 38 33 27 26 25 22 19 22 25 21 21 21 26 30 30 29 33 31 30 31 29 29 28 30 32 31 33 34 33 29 29 29 30 29 25 23 22
38 37 31 33 35 36 35 36 30 30 31 28 23 26 25 25 29 28 28 30 35 37 34 33 33 32 29 27 30 31 32 32 33 33 31 29 30 31 32 30 26 24 22

GFSGL_500_spd_036.txt.gz
Wind_Speed
9 12 15 17 20 24 24 24 24 24 24 23 24 23 19 19 17 13 11 6 5 4 6 10 11 9 10 9 9 7 8 9 10 11 10 13 12 14 16 21 23 26 30
12 11 12 15 15 16 20 25 26 25 27 26 28 27 24 21 21 17 14 10 8 7 8 11 13 13 14 12 11 12 11 12 14 15 15 16 14 15 19 23 26 28 29
18 15 14 12 14 14 15 17 17 17 21 23 29 31 29 25 23 20 18 14 12 10 9 11 14 15 16 15 13 13 14 16 19 21 22 23 20 22 25 29 32 32 34
20 18 15 12 15 17 15 11 12 13 14 19 22 29 30 27 26 23 21 17 15 14 11 13 14 15 15 14 16 18 18 19 24 26 27 26 27 28 32 35 37 37 37
24 23 17 16 18 19 12 11 11 10 11 14 17 22 27 26 27 24 22 20 18 17 16 17 18 20 17 17 17 20 22 24 24 25 28 29 31 36 37 39 39 40 40
26 22 21 19 20 20 18 14 13 10 9 11 13 12 15 21 26 23 25 25 22 22 20 20 22 25 29 27 23 22 25 27 29 30 31 33 37 38 41 42 42 44 44
29 26 23 17 22 24 23 20 19 14 14 11 12 14 13 14 20 23 25 30 29 28 27 27 29 29 29 32 33 33 32 34 37 41 38 37 39 42 45 42 43 44 44
32 27 25 21 19 25 29 25 24 22 20 19 17 17 17 17 20 23 28 31 33 33 32 31 32 32 30 32 35 37 38 40 40 37 36 45 49 46 45 45 42 45 43
37 31 24 25 26 26 25 24 28 27 25 26 28 26 24 23 21 24 29 33 33 32 32 31 26 28 34 36 41 39 42 45 46 42 45 49 51 52 49 47 44 45 43
33 33 31 31 33 35 33 34 37 35 33 31 33 33 32 30 31 29 31 35 35 35 36 37 37 37 41 43 48 46 46 50 55 51 48 50 49 50 53 44 43 41 39
35 36 38 35 33 34 36 39 44 45 43 38 38 40 40 41 36 36 39 44 45 44 47 45 45 44 48 51 56 57 54 54 53 52 50 45 44 46 52 40 39 39 37
34 38 39 38 38 37 36 36 38 41 43 42 50 49 47 44 41 35 41 46 47 52 51 50 52 53 58 62 66 68 68 70 61 46 46 50 43 45 43 39 38 36 36
35 36 38 38 39 40 38 39 38 41 46 48 50 49 47 48 40 42 41 43 49 57 58 48 44 53 60 68 73 76 74 75 67 77 45 49 43 43 43 39 36 36 35
36 38 40 41 41 40 39 39 38 41 46 48 50 48 58 43 45 49 45 45 46 54 59 56 55 55 61 64 71 81 81 73 44 31 33 44 35 42 41 38 34 36 34
40 40 41 41 42 43 45 45 48 45 45 47 49 53 59 59 55 53 52 50 57 57 63 66 60 57 58 67 75 70 68 76 61 34 36 38 40 45 41 35 33 35 35
40 40 41 42 45 46 46 47 48 50 53 54 56 60 61 62 59 55 57 66 69 65 67 73 65 69 68 71 76 55 48 47 54 31 36 45 44 42 35 32 33 34 36
39 40 41 44 47 50 52 52 54 54 54 56 59 61 62 62 60 61 66 71 74 73 72 76 71 78 70 70 60 48 47 43 52 32 37 42 41 36 33 31 32 34 36
41 44 44 43 44 47 50 52 55 57 57 58 54 54 59 65 66 67 68 72 78 84 80 79 78 76 76 69 62 62 45 38 30 32 38 40 37 34 32 31 32 35 35
46 44 45 46 50 52 54 55 57 58 58 57 54 56 59 62 63 63 67 74 79 91 85 79 76 72 71 69 66 59 36 32 29 33 36 37 38 33 30 31 33 34 33
48 49 51 51 53 55 56 54 58 62 60 58 55 57 59 63 64 60 64 69 67 39 65 75 76 74 70 73 70 68 35 39 32 36 36 34 33 32 31 32 33 31 30
53 54 55 52 52 53 57 60 62 60 53 54 56 57 59 59 57 53 55 45 48 50 37 56 67 68 65 62 38 28 32 38 36 37 33 32 31 32 32 32 32 28 29
47 48 52 53 54 53 58 55 46 47 51 52 50 49 50 46 40 42 43 49 50 42 28 31 43 41 25 17 19 26 33 34 35 35 31 32 32 32 32 31 28 28 30
45 47 52 54 54 49 45 45 44 41 43 42 43 44 40 35 29 29 21 14 8 5 9 13 17 20 21 22 23 26 30 35 35 33 31 32 31 32 31 28 27 30 30
52 49 46 44 45 46 43 41 40 38 39 41 41 35 30 27 24 17 14 7 10 10 13 17 19 23 22 24 28 29 30 31 31 31 32 31 31 31 30 28 29 30 31
49 53 49 45 46 44 43 43 41 41 43 44 43 38 31 28 23 23 19 17 18 24 26 28 28 29 32 34 34 31 30 32 33 32 30 30 31 31 30 30 31 30 31
45 42 42 42 40 40 41 41 43 44 43 44 43 39 33 28 28 27 27 28 25 25 29 29 33 37 37 34 35 35 35 32 32 31 29 29 30 29 30 32 32 31 31

GFSGL_500_spd_039.txt.gz
Wind_Speed
17 18 16 17 18 18 21 24 25 25 22 20 21 19 18 18 18 16 14 12 12 10 8 7 5 6 9 10 9 10 11 11 13 13 15 17 19 21 20 23 25 27 30
15 12 11 10 9 12 14 16 20 23 24 24 22 22 21 21 21 19 17 15 14 13 11 9 7 8 10 13 14 11 12 13 14 16 18 18 22 24 24 26 30 33 34
20 16 13 10 9 10 12 13 13 15 18 21 19 20 23 23 23 22 20 18 17 15 13 11 9 9 12 13 16 17 16 14 17 18 19 21 22 23 26 31 34 35 37
22 19 14 12 11 12 13 14 12 14 12 13 13 15 19 22 22 22 21 20 19 18 16 16 14 12 13 14 15 18 18 19 20 22 23 25 27 28 28 34 34 34 37
22 19 14 14 15 15 15 15 13 12 13 11 13 13 15 15 14 17 19 19 20 21 20 20 19 19 18 18 19 20 23 24 28 25 28 31 36 35 31 32 35 37 39
20 18 18 18 17 16 17 18 16 13 14 13 9 9 10 9 8 11 17 21 23 25 25 25 24 23 23 25 27 30 28 27 30 34 33 33 34 34 38 38 44 41 41
25 21 21 20 19 16 18 18 19 20 19 15 14 11 9 9 11 14 18 24 25 27 29 28 27 28 29 30 31 33 31 30 34 38 41 44 42 39 43 46 45 46 47
29 28 24 23 22 23 21 17 21 26 24 22 21 16 14 12 15 16 19 23 24 24 28 31 34 35 34 34 35 34 34 33 34 41 44 49 52 47 45 45 46 47 47
34 33 33 30 27 24 21 20 26 28 27 26 25 25 23 20 21 23 26 27 27 27 28 29 32 33 34 35 36 34 37 40 42 46 49 53 55 54 46 50 44 44 45
39 39 41 39 34 31 29 27 28 31 30 29 30 32 30 30 30 30 33 37 35 34 37 37 33 35 35 38 40 45 46 47 53 53 54 60 58 56 50 52 48 45 45
45 46 44 42 40 36 34 34 32 32 33 31 34 35 37 38 37 36 39 44 47 34 41 44 45 43 46 47 50 54 55 59 60 64 63 67 66 64 59 45 52 49 46
33 35 37 40 41 41 37 36 34 33 34 34 34 36 36 33 40 45 44 43 52 44 39 38 43 51 53 53 53 52 58 66 68 67 70 71 73 69 61 45 45 43 41
36 35 31 34 39 38 38 36 36 37 38 39 41 41 40 40 45 46 47 45 48 40 49 47 51 49 49 49 50 60 63 65 67 65 73 75 68 71 70 35 35 39 41
35 36 37 36 36 38 39 39 41 40 43 41 42 41 42 46 48 46 47 50 53 45 50 53 63 64 58 53 60 60 66 68 66 68 74 60 58 47 31 31 33 40 46
36 35 37 39 39 40 41 42 43 42 43 43 43 44 48 47 47 50 52 50 51 51 57 65 66 68 72 71 67 69 67 65 65 47 53 63 58 45 33 33 37 43 40
38 37 39 40 41 42 44 46 46 47 47 49 49 49 51 52 53 54 56 54 54 61 67 69 69 71 73 76 67 66 64 70 72 61 54 55 65 41 27 34 35 37 32
38 35 34 37 39 44 46 48 50 52 53 53 54 53 54 55 58 60 61 62 63 67 65 67 67 71 74 75 77 75 72 76 59 62 46 53 61 32 29 34 33 31 30
38 37 37 40 42 44 47 50 52 53 53 55 57 58 57 59 60 64 64 64 63 60 64 68 67 69 75 81 85 86 70 70 70 64 59 44 36 33 32 33 31 27 30
40 41 42 44 45 47 48 50 52 54 57 59 60 62 64 63 62 65 62 60 62 63 63 65 66 70 75 83 86 96 66 73 70 69 63 51 36 40 35 33 33 30 32
51 50 51 50 52 52 53 54 56 57 60 61 61 62 61 62 63 66 60 58 59 61 64 61 61 68 66 71 51 40 58 65 66 66 62 52 52 36 35 33 33 32 31
58 58 57 60 59 57 55 56 57 59 61 59 61 64 66 67 63 58 54 52 53 52 52 57 63 59 55 51 41 46 51 50 49 43 63 38 30 30 33 33 33 31 31
61 61 62 63 61 58 59 58 62 65 66 65 67 66 60 56 51 51 47 45 45 46 48 53 45 54 34 26 30 37 39 29 38 29 22 25 30 31 33 34 31 32 32
67 67 67 66 62 61 61 56 57 59 62 63 61 57 52 50 46 44 41 40 38 39 30 24 16 16 14 11 11 6 8 12 20 23 26 31 33 35 34 32 31 32 32
66 67 66 63 61 59 53 52 52 49 53 57 55 53 49 46 45 41 37 34 33 31 29 22 5 8 8 12 15 13 13 16 22 27 30 32 32 32 34 32 32 33 32
66 68 69 68 61 58 60 58 50 52 52 48 51 49 45 43 40 39 38 34 32 32 27 27 20 20 20 21 25 23 25 29 30 30 33 29 30 30 32 32 32 33 32
66 78 69 71 65 60 59 50 50 51 53 50 53 51 48 43 42 42 42 40 35 32 30 27 28 29 29 32 33 34 34 34 31 29 33 33 32 32 31 32 32 32 32

GFSGL_500_spd_042.txt.gz
Wind_Speed
18 15 13 14 14 11 11 13 16 19 21 18 19 18 17 15 13 11 11 11 12 12 12 11 8 7 7 7 7 9 11 13 14 13 14 17 20 20 21 21 22 25 28
16 15 13 8 5 5 5 6 8 10 12 16 15 19 17 17 17 15 14 12 13 12 13 14 13 11 8 9 10 11 13 13 14 17 16 18 20 27 24 24 27 26 26
16 16 13 8 6 6 5 5 7 9 11 11 11 14 15 16 15 17 17 15 13 16 16 16 16 15 15 11 11 13 13 15 17 18 20 21 20 23 29 31 29 33 34
21 19 14 9 8 6 6 6 7 9 10 10 10 11 11 11 9 14 17 17 15 18 19 18 18 18 19 16 15 17 15 19 23 26 29 30 30 28 29 34 31 32 33
20 19 15 13 8 5 7 7 7 8 8 9 10 10 9 7 9 10 13 14 14 17 19 20 19 21 22 21 21 22 24 24 26 28 30 33 36 36 35 37 42 36 37
22 18 17 14 11 9 9 9 6 9 11 11 12 11 8 7 8 8 9 10 12 15 17 21 23 22 24 26 27 28 29 30 32 35 35 35 37 39 42 44 45 46 44
19 17 15 14 12 10 12 10 10 11 11 13 14 15 11 9 9 9 11 13 14 17 21 21 22 25 28 29 31 33 35 35 35 37 38 40 43 44 45 46 52 52 48
25 21 20 17 15 14 14 18 16 15 15 14 16 18 16 11 14 15 15 16 14 16 19 23 24 26 26 29 34 34 35 37 36 37 40 43 47 51 52 53 57 59 55
26 24 26 22 21 18 19 19 19 19 20 19 20 16 16 16 17 21 23 26 25 23 26 28 32 32 31 32 33 32 33 35 38 41 48 48 50 53 57 60 64 66 60
28 28 33 33 29 29 25 26 27 28 25 25 24 21 20 19 19 23 29 34 34 31 30 34 34 32 38 39 40 43 43 43 47 51 55 58 60 61 63 65 69 69 68
29 34 37 35 35 35 38 34 32 32 31 28 25 24 22 23 21 24 29 35 37 39 38 35 38 36 37 37 39 43 43 50 53 60 61 64 68 67 69 71 71 70 67
30 32 35 39 41 41 40 40 41 37 35 30 29 29 28 26 29 30 32 36 38 44 44 42 46 45 42 48 41 41 43 47 51 55 60 66 70 68 77 61 65 67 64
29 28 29 31 31 33 34 37 37 35 35 33 33 32 32 35 36 39 38 37 41 45 45 50 51 51 52 52 50 50 52 55 59 58 65 76 75 76 70 77 41 40 42
32 32 32 33 32 33 34 34 35 35 36 36 37 37 38 41 42 43 43 41 42 45 49 51 54 57 60 63 56 60 60 61 62 65 75 73 66 63 64 58 36 39 31
37 36 34 35 35 34 37 37 38 38 39 40 42 42 43 43 45 46 46 47 48 48 51 54 53 55 61 64 60 66 67 68 68 68 66 69 68 71 78 41 43 44 32
38 39 38 37 38 38 38 39 39 41 42 42 43 45 47 47 48 51 53 54 56 56 54 56 57 59 58 57 58 66 70 72 71 73 74 74 76 73 72 45 41 43 27
38 38 39 40 41 41 42 43 44 44 43 45 46 48 51 54 56 58 58 60 62 62 61 59 59 61 62 60 63 69 68 71 70 77 80 79 75 80 54 57 54 23 23
41 42 42 44 43 42 42 44 44 45 45 46 48 51 55 57 59 60 62 64 66 64 64 65 63 63 66 66 66 64 64 66 70 71 88 77 62 48 38 52 42 16 22
44 44 44 44 45 44 45 47 48 49 50 51 53 56 59 60 61 62 63 65 64 64 63 64 65 64 65 62 59 59 62 66 60 64 66 52 40 39 46 47 40 32 34
45 46 47 49 51 50 50 51 53 55 56 58 60 61 62 64 64 65 66 65 62 62 64 58 56 54 52 52 55 61 65 57 67 57 42 34 40 39 38 42 34 28 25
50 51 50 52 55 55 57 59 60 60 62 62 63 64 65 65 65 68 67 65 64 63 55 51 46 47 48 52 60 62 57 40 44 41 36 36 27 37 28 26 22 17 22
57 58 58 57 60 62 63 64 65 67 67 67 66 65 66 66 66 67 66 64 60 53 53 46 42 44 46 50 47 35 29 22 19 23 24 16 21 15 19 16 17 21 22
64 61 62 64 66 67 65 67 69 69 69 69 68 65 62 62 62 60 56 54 53 53 50 44 39 37 41 31 17 15 15 8 5 7 12 17 21 19 20 21 22 26 27
64 66 67 71 71 69 69 70 69 69 69 70 68 67 63 58 55 56 57 49 48 48 45 41 39 37 39 33 27 18 13 15 15 12 15 18 19 21 24 28 30 29 28
67 68 67 66 66 66 67 68 67 68 69 70 69 67 62 59 59 55 52 49 47 45 45 41 41 39 38 35 20 17 18 18 20 22 25 28 30 28 28 28 28 28 27
66 66 65 65 67 67 66 67 66 70 72 71 71 67 64 62 59 53 52 50 50 49 48 41 42 44 40 33 31 29 27 29 30 29 30 34 35 30 27 30 31 30 30

GFSGL_500_spd_045.txt.gz
Wind_Speed
17 16 14 13 11 11 14 15 17 17 16 14 16 12 12 12 12 11 12 11 10 13 13 12 10 9 9 7 7 8 10 11 11 14 18 20 19 20 20 20 23 26 26
19 17 14 10 11 10 9 8 7 8 7 11 14 13 11 12 13 14 15 16 13 14 16 14 12 12 12 11 8 8 10 12 15 13 13 17 22 26 28 27 26 26 28
18 16 12 11 10 6 4 4 4 2 1 1 4 2 3 6 9 12 14 15 15 15 15 14 15 14 15 15 13 13 13 14 16 21 22 23 25 26 27 30 31 32 31
18 15 10 12 9 6 5 3 2 3 4 4 3 2 2 5 6 8 11 13 14 14 13 14 16 15 19 18 19 19 18 19 21 25 29 31 30 31 32 33 35 37 39
15 13 13 14 9 8 7 5 3 5 5 4 3 4 5 3 2 3 4 6 8 7 10 12 15 17 18 21 22 23 23 23 24 27 29 32 35 36 36 36 38 41 44
18 15 16 15 12 9 6 5 3 1 1 4 6 6 5 5 3 4 5 6 6 6 8 9 13 16 20 23 25 28 30 31 30 32 34 35 35 39 40 41 45 48 49
19 18 16 15 11 8 8 5 5 5 3 2 2 6 7 7 7 6 8 8 6 6 8 10 11 13 16 18 22 24 26 31 32 33 33 33 36 40 46 48 53 54 57
22 20 18 17 13 11 10 7 8 11 12 11 7 6 7 7 10 11 11 8 10 11 12 14 15 17 19 22 24 28 29 30 29 36 39 40 42 46 50 54 57 60 63
23 22 22 20 19 18 13 11 12 12 14 16 16 14 7 6 9 12 16 17 16 13 17 19 20 20 25 29 25 29 31 33 36 39 43 47 51 54 54 55 57 60 65
21 19 23 25 24 22 19 17 18 19 19 21 22 22 18 13 17 18 20 24 25 23 25 23 24 27 29 31 35 38 34 35 38 42 45 44 45 49 54 55 58 61 63
27 26 25 24 25 27 28 28 25 27 28 27 26 27 25 20 22 24 25 28 25 27 29 29 33 33 35 36 39 43 37 38 44 45 44 48 51 52 53 58 62 69 69
26 26 29 30 29 32 32 30 30 31 32 33 32 31 29 29 29 30 30 31 32 34 33 33 34 37 37 39 43 43 45 48 50 52 53 51 52 55 59 57 65 69 71
36 36 34 30 31 34 33 30 29 29 30 32 31 30 32 32 34 34 34 33 35 39 37 38 40 40 40 45 47 47 48 52 53 57 55 52 50 57 62 65 72 63 55
29 33 35 36 37 36 31 28 27 27 29 32 32 32 34 35 36 36 35 36 38 40 42 44 46 47 48 50 52 54 53 56 57 57 56 52 59 64 63 69 71 61 61
29 31 31 32 33 33 35 33 33 32 31 32 32 34 35 36 37 37 38 38 41 43 46 49 50 53 55 56 56 55 56 59 63 62 66 68 69 66 65 67 74 73 70
33 35 35 35 36 37 38 36 36 36 36 36 36 38 38 40 39 42 43 45 45 49 51 53 55 58 59 59 58 55 57 59 66 68 70 69 70 73 73 73 78 72 63
36 36 37 37 39 39 39 40 39 38 39 40 41 43 44 44 45 46 47 51 53 54 55 56 58 62 62 60 60 60 59 64 65 68 69 69 70 72 73 88 86 65 64
40 40 40 42 40 38 39 39 41 41 42 44 46 47 47 47 48 51 53 55 55 58 60 62 63 64 65 63 59 61 64 56 56 57 61 66 66 67 60 34 64 73 38
47 46 44 44 44 42 44 44 46 47 47 48 48 49 50 50 52 55 56 56 58 60 62 63 65 67 66 64 61 59 55 52 53 56 60 63 66 59 44 57 53 41 28
51 49 49 49 51 49 49 49 48 49 49 49 50 53 54 55 56 57 58 60 62 64 66 68 69 69 64 55 51 52 48 47 50 55 57 51 38 32 31 40 37 22 12
51 52 52 53 53 53 54 55 56 55 52 53 55 57 58 61 61 61 63 64 65 66 68 68 67 60 51 45 47 46 44 38 39 40 40 33 26 34 27 24 8 9 16
56 55 57 57 56 56 55 55 56 57 58 60 62 63 64 65 65 67 68 69 68 68 68 67 61 56 54 48 44 43 40 43 39 39 27 19 17 22 7 10 16 7 9
59 60 62 62 62 62 62 61 62 62 65 66 68 69 69 69 69 70 70 70 69 69 67 60 57 53 50 45 41 41 38 35 34 30 23 16 9 10 16 12 12 16 20
64 65 65 68 68 68 67 67 68 70 71 72 72 71 71 71 72 71 72 72 74 69 62 58 55 51 49 47 43 42 37 30 27 22 21 14 16 16 17 18 21 22 21
63 66 68 68 72 72 74 74 74 74 75 73 73 74 74 75 76 75 73 70 64 63 62 60 59 53 51 49 44 42 40 36 31 24 21 20 23 23 25 27 27 28 25
58 59 63 69 72 72 74 77 76 72 69 68 68 70 73 72 68 67 64 66 67 65 64 61 56 50 47 47 46 45 40 39 36 32 30 32 34 32 33 34 32 32 33

GFSGL_500_spd_048.txt.gz
Wind_Speed
19 20 19 18 18 16 15 14 14 15 15 17 16 16 15 13 11 12 13 12 12 11 11 10 10 10 11 11 8 9 8 7 9 10 12 15 17 18 19 20 21 23 24
22 20 20 20 16 15 13 13 13 15 16 19 20 18 17 16 13 15 14 14 15 13 12 12 10 10 12 13 14 15 15 12 11 12 16 18 21 23 24 25 25 25 28
22 21 19 16 13 10 9 9 8 6 7 8 9 12 13 11 11 11 12 13 14 14 12 12 11 9 11 13 14 16 17 19 19 21 21 23 24 27 27 30 31 31 33
21 20 19 14 14 14 13 11 8 8 8 10 9 7 6 5 5 6 7 8 10 9 8 9 12 11 12 12 12 15 18 19 20 23 27 27 29 29 31 33 34 36 37
20 21 19 18 17 15 13 10 9 10 12 10 7 5 4 2 2 2 1 3 5 2 2 2 7 12 14 14 14 15 17 20 22 24 26 29 29 30 32 35 36 40 43
23 23 19 18 16 14 12 11 11 10 9 9 7 4 4 3 2 4 5 6 7 6 4 1 3 4 7 10 13 15 16 18 20 25 27 28 29 33 37 38 40 42 45
23 22 18 17 15 15 14 12 11 10 7 7 5 2 0 5 4 3 3 4 4 2 0 1 3 7 10 12 15 21 20 21 25 28 30 28 32 36 42 45 45 46 44
23 20 19 17 17 17 15 14 14 9 7 6 6 5 4 5 7 8 8 7 6 7 8 10 11 12 13 16 20 26 25 24 29 37 35 39 34 37 41 46 47 44 43
25 22 22 20 20 18 16 16 16 13 11 10 11 12 9 10 12 14 16 16 13 13 14 15 17 18 20 25 27 28 29 28 33 36 41 40 44 41 43 46 48 54 56
26 26 29 29 27 24 22 22 20 18 16 16 14 13 14 15 17 19 21 22 20 21 22 20 20 20 23 26 30 33 33 30 34 37 41 44 47 49 49 53 58 58 63
32 34 32 31 30 29 29 29 26 24 23 22 22 21 21 22 21 23 25 27 27 27 26 25 25 27 30 32 33 34 32 33 39 41 43 46 48 50 52 56 62 67 78
39 37 32 30 31 32 34 34 34 33 32 30 30 29 28 29 29 28 29 31 32 31 31 32 33 33 33 33 34 35 37 42 47 49 50 49 51 52 54 59 61 68 72
38 36 37 35 34 33 35 39 43 43 42 39 37 35 34 35 33 33 32 33 34 35 36 36 36 38 39 39 38 41 45 47 51 53 53 55 52 53 56 56 61 65 67
37 37 37 41 41 44 44 44 43 40 40 38 35 34 35 33 33 34 35 35 37 39 38 39 41 42 42 42 44 46 51 54 55 57 58 57 57 59 62 62 59 61 64
30 31 37 41 44 44 43 41 36 32 31 31 30 32 32 32 34 35 36 37 39 41 41 42 43 45 46 48 50 53 55 56 56 58 58 58 57 61 63 61 64 64 66
33 33 37 42 44 44 42 38 35 33 33 33 35 36 34 35 35 36 37 39 43 44 43 44 46 49 51 53 55 58 57 56 58 62 62 57 56 57 62 62 62 67 68
35 34 36 38 40 41 42 41 40 38 37 38 38 39 40 40 39 40 41 42 45 46 47 48 49 52 53 56 58 58 60 62 64 63 57 51 48 50 53 62 68 69 59
39 37 36 37 38 39 39 41 42 42 42 43 44 45 44 44 43 43 44 46 48 50 51 50 52 54 56 59 60 62 62 61 59 58 52 49 46 43 47 53 47 41 43
42 41 39 40 41 41 42 43 44 45 45 46 46 46 47 47 45 47 49 50 52 52 53 53 54 56 59 61 62 65 63 59 54 53 51 50 44 46 45 47 44 32 31
48 47 46 45 45 46 46 46 47 48 48 48 49 49 50 50 50 51 53 53 54 54 55 56 58 60 62 64 65 65 63 58 57 54 48 46 44 39 41 37 37 35 23
54 53 54 53 53 53 52 52 53 53 54 52 51 52 52 53 54 55 56 57 57 58 59 60 62 65 67 68 68 64 61 58 54 52 47 46 45 35 32 29 27 17 26
55 56 56 56 56 56 57 57 57 57 58 58 58 58 58 58 59 61 61 61 62 63 64 66 68 69 69 70 66 64 59 56 51 47 44 42 40 36 30 28 17 17 14
56 57 58 57 55 56 59 61 60 59 60 61 62 63 62 61 63 64 66 68 70 70 68 70 72 70 71 70 67 61 57 55 50 45 41 39 34 31 31 28 24 17 11
61 62 65 66 65 64 64 65 65 65 66 67 66 66 67 69 69 68 69 70 70 70 71 73 74 73 73 71 63 59 59 56 50 43 42 39 35 30 30 29 27 23 22
63 64 64 65 66 68 68 68 68 69 70 71 73 74 73 73 72 73 74 74 73 74 77 79 78 77 75 68 62 57 60 56 50 46 43 40 38 34 33 31 31 30 29
65 65 65 64 66 67 70 71 72 73 77 80 82 81 77 77 77 74 74 76 77 78 79 79 78 76 72 66 65 64 60 52 49 46 42 40 40 37 39 37 37 38 35

GFSGL_500_spd_051.txt.gz
Wind_Speed
25 25 23 18 16 16 15 13 13 13 14 16 16 16 14 14 13 13 13 11 10 9 8 7 5 3 3 5 6 7 8 7 6 6 7 9 11 15 18 18 18 21 23
24 24 22 20 18 17 16 16 15 16 16 18 17 17 16 16 16 17 13 13 12 11 10 7 6 6 3 1 3 5 7 9 10 10 11 15 18 21 22 25 25 25 26
25 23 23 22 20 18 17 16 16 14 13 12 13 16 16 16 15 15 13 13 14 13 10 8 5 6 7 6 6 5 6 7 10 13 16 18 22 25 26 29 30 30 31
26 25 25 22 21 19 17 16 14 12 11 12 10 7 8 9 10 11 11 11 11 9 6 5 5 5 6 6 7 9 10 13 15 16 20 23 23 26 28 31 31 34 35
24 24 23 25 23 22 19 16 13 12 14 13 9 9 10 9 9 6 5 5 7 7 5 3 2 1 2 5 5 7 9 13 15 17 18 23 26 28 30 34 37 40 38
24 25 26 24 23 22 19 15 14 15 14 13 13 12 10 8 8 7 7 8 6 4 5 3 3 3 3 6 9 10 12 15 17 19 21 23 26 31 35 32 34 37 35
27 28 27 26 26 23 20 17 17 16 15 14 12 10 10 10 8 8 9 8 6 4 5 5 5 6 7 11 14 16 16 19 22 24 26 27 29 32 34 37 40 43 42
31 30 28 27 25 23 21 19 18 17 16 14 10 6 3 6 11 12 11 10 10 10 10 11 11 13 14 19 21 22 24 25 27 31 33 29 37 38 41 44 45 49 48
30 30 29 28 27 25 22 21 21 19 17 15 14 12 9 9 11 13 18 17 15 14 15 16 16 17 20 23 24 24 25 23 31 34 36 38 40 41 47 52 53 59 62
27 26 27 26 28 28 26 26 25 24 21 20 17 15 13 12 14 16 17 19 17 20 21 21 21 19 22 25 26 30 31 30 34 33 36 39 43 47 49 54 58 60 59
28 28 32 33 30 32 32 30 27 27 26 23 22 21 19 19 20 21 22 21 20 23 23 24 26 27 27 30 32 34 33 34 37 38 39 43 45 47 48 53 58 64 64
28 33 34 36 35 36 36 34 34 32 31 28 28 27 25 26 26 28 30 30 29 28 26 28 31 33 35 35 35 37 39 40 42 44 45 47 48 47 49 51 51 56 62
33 33 36 38 41 42 38 37 38 37 37 36 35 34 33 35 34 34 36 36 37 34 33 32 34 35 37 39 40 42 44 44 47 49 50 50 50 52 57 57 52 50 48
39 45 48 47 45 43 44 44 48 46 44 44 43 43 45 44 42 42 41 39 39 39 37 36 38 39 41 42 42 43 45 48 51 53 53 51 54 55 56 56 47 48 47
39 44 47 50 51 49 46 47 48 49 50 49 50 50 50 47 44 42 41 39 39 39 38 37 40 41 42 43 43 44 47 51 53 55 55 56 56 54 52 48 44 46 52
34 37 46 50 51 52 53 54 55 55 56 52 49 46 45 44 42 42 41 39 39 41 40 39 40 41 42 44 45 47 50 52 54 56 58 61 61 56 53 47 42 42 49
31 32 32 39 44 47 51 53 56 52 45 43 43 42 39 37 39 41 42 42 42 43 42 41 42 43 44 45 47 49 52 54 56 58 60 64 64 58 54 53 44 39 46
37 36 36 36 38 39 42 46 47 45 42 40 40 40 41 42 44 43 43 43 44 44 44 44 46 47 47 49 49 51 55 57 59 62 63 66 65 60 57 54 45 42 38
43 41 40 40 38 38 40 42 45 46 46 45 44 45 46 47 45 45 46 47 46 47 48 49 50 50 52 52 52 55 58 59 63 63 65 66 64 59 58 53 43 37 33
51 48 44 44 42 42 41 41 42 43 44 44 44 45 46 46 47 47 49 49 49 50 52 54 53 52 53 55 57 59 61 65 66 66 66 65 56 54 54 49 39 32 29
55 54 52 48 45 43 44 44 45 46 47 47 47 48 50 52 52 52 53 52 54 55 56 56 54 55 58 59 60 60 65 68 68 68 68 64 57 54 49 46 38 33 32
52 53 54 54 53 52 53 52 51 52 53 53 54 56 56 56 57 57 57 57 58 60 59 59 60 61 62 63 63 66 67 67 67 67 67 62 57 52 46 42 35 34 34
58 56 57 55 55 55 55 56 57 58 58 59 59 59 60 62 62 62 62 62 63 63 65 66 66 65 67 68 68 67 67 67 67 68 68 63 56 53 45 41 36 33 36
57 57 59 60 56 54 55 56 58 59 61 63 64 64 64 64 64 66 66 65 66 67 69 69 69 71 71 70 70 70 69 70 69 71 65 56 54 53 45 40 40 39 37
62 58 55 57 60 62 64 65 65 67 68 69 69 70 71 71 72 72 72 72 73 73 73 73 73 73 74 72 72 71 74 76 76 63 57 55 53 48 43 41 41 41 40
68 71 74 73 73 74 75 74 74 73 73 74 74 74 74 73 73 75 75 76 76 75 77 77 79 76 79 79 77 78 78 73 68 63 61 64 57 47 42 40 41 41 41

GFSGL_500_spd_054.txt.gz
Wind_Speed
31 31 29 26 23 20 21 21 17 15 14 12 11 11 13 12 12 11 9 8 7 6 5 4 2 2 4 5 6 5 6 5 5 5 9 12 14 16 19 20 20 21 22
31 32 30 29 25 22 22 19 17 16 16 16 15 15 16 16 15 13 11 11 9 8 7 5 3 4 4 3 1 1 2 3 5 8 10 13 16 18 19 22 25 25 27
30 32 31 27 23 22 22 20 18 16 15 15 16 17 16 15 16 14 12 11 10 9 8 6 4 5 3 2 1 2 3 4 6 8 11 14 16 20 23 25 28 29 30
29 30 30 28 25 23 23 19 17 15 14 14 14 13 13 14 15 13 12 10 10 10 7 6 5 4 3 4 4 6 4 5 7 7 10 14 17 21 24 26 28 28 31
28 30 30 31 29 27 22 19 18 15 15 14 12 9 12 12 12 11 9 8 8 9 9 7 7 7 6 3 3 5 6 10 12 12 12 14 20 22 28 33 29 34 33
30 30 32 31 29 26 23 22 18 18 17 15 14 14 14 12 11 9 7 8 8 8 8 7 6 5 5 5 5 6 8 12 17 18 19 18 22 27 29 32 34 37 40
31 33 31 30 27 26 27 23 19 18 17 17 14 13 14 14 11 10 11 12 11 9 6 5 6 7 8 10 12 12 13 15 18 21 20 20 23 28 30 34 38 41 43
34 31 30 30 30 29 26 24 21 19 18 17 16 15 12 10 12 13 13 12 10 9 8 8 10 13 14 17 19 19 20 21 23 27 29 27 29 30 36 42 45 47 45
34 33 30 30 32 31 28 27 25 23 21 20 18 17 13 11 10 10 17 15 13 13 13 13 14 16 18 19 19 19 19 23 28 31 34 35 36 37 43 46 47 51 48
30 30 32 33 34 32 32 31 29 26 24 24 21 19 16 15 13 12 10 9 12 15 17 18 19 21 23 24 22 23 24 27 32 34 36 37 38 40 45 49 47 51 56
22 34 36 36 35 36 36 33 30 28 27 25 24 23 20 17 17 17 17 16 15 15 15 16 18 22 24 26 27 28 29 32 34 37 38 37 40 42 40 41 50 56 57
20 28 41 39 37 36 35 34 33 29 28 27 26 24 22 22 23 26 26 26 25 23 23 22 23 26 28 29 29 31 34 35 37 38 39 41 44 43 44 44 46 44 49
25 22 31 38 38 41 38 34 37 34 33 31 29 28 29 30 30 30 32 33 33 31 32 32 32 33 33 33 33 36 38 39 40 40 42 44 47 45 48 51 54 54 53
27 28 30 35 36 36 31 38 40 42 44 39 39 40 38 37 37 39 40 39 40 40 38 36 35 36 37 37 38 39 40 41 43 44 46 48 48 48 52 56 59 58 55
34 37 36 37 41 45 45 47 43 46 50 45 44 45 46 44 44 47 46 48 47 44 40 38 37 38 39 41 41 41 41 41 43 45 48 49 49 51 53 56 59 59 58
39 38 35 41 46 48 50 50 45 45 50 52 49 50 51 52 52 50 51 50 47 45 41 40 40 40 39 40 40 39 39 41 44 46 49 51 51 53 56 56 58 57 59
37 38 37 40 47 50 53 55 54 54 51 47 49 51 52 53 53 52 52 48 45 41 41 42 42 42 42 41 41 41 42 44 46 48 49 51 52 55 58 57 58 57 57
40 39 38 42 44 41 47 51 52 55 53 55 57 57 57 57 56 53 48 44 44 41 41 42 42 42 42 42 42 43 46 46 48 49 50 51 55 57 58 57 58 58 54
39 38 36 33 35 36 38 40 45 50 52 54 55 57 55 51 47 44 43 43 42 42 42 43 43 43 43 45 46 47 49 49 49 50 52 55 56 60 58 58 58 57 53
44 42 40 36 37 38 39 40 40 41 42 44 46 46 44 42 42 43 44 44 44 44 43 45 46 47 48 50 52 52 51 51 51 54 55 56 59 60 58 59 57 56 53
49 47 43 37 38 40 42 43 43 44 44 43 42 42 42 42 43 44 45 45 45 46 48 49 50 52 54 55 55 55 54 55 58 58 56 58 61 60 59 57 56 55 50
52 51 53 46 42 43 46 46 48 48 47 46 44 44 45 45 46 47 48 49 50 53 54 55 56 58 58 59 59 57 58 59 60 59 60 63 61 60 60 59 58 54 48
54 55 60 56 50 47 48 49 51 52 52 51 51 51 51 52 52 53 53 54 55 57 59 60 61 62 62 62 63 62 63 64 64 64 64 64 64 64 61 58 57 59 54
65 62 63 62 56 50 51 52 51 52 54 52 53 54 56 58 59 60 60 60 60 61 63 64 63 63 63 64 66 67 69 68 67 66 67 66 64 62 63 62 58 56 53
70 68 69 67 62 59 55 55 51 51 54 58 57 56 59 59 60 63 63 63 64 67 68 69 69 70 71 70 70 70 69 69 69 70 70 65 65 66 65 63 60 55 55
78 75 73 73 72 67 61 63 63 62 61 59 58 61 64 65 67 70 70 71 73 73 73 74 73 74 75 75 73 72 74 72 66 62 63 65 63 63 65 60 56 54 48

GFSGL_500_spd_057.txt.gz
Wind_Speed
34 33 31 28 26 23 21 23 22 20 17 14 12 10 10 9 7 6 6 6 3 3 2 3 6 7 8 10 12 10 8 6 4 3 4 6 8 11 14 17 19 22 20
36 34 31 31 30 25 24 24 25 22 19 17 15 14 13 12 11 10 9 8 7 6 4 1 6 7 6 7 8 8 6 4 1 3 6 8 11 13 17 19 20 18 27
35 34 33 32 30 27 26 27 26 24 22 20 17 16 16 15 13 11 11 10 9 9 6 5 6 7 9 7 5 4 2 3 4 6 8 9 12 15 18 22 27 24 28
32 34 33 32 30 29 29 30 28 27 25 20 18 19 17 16 16 13 13 11 11 11 9 8 8 9 9 7 4 1 1 2 5 7 10 13 15 19 21 25 24 28 29
31 32 33 35 35 33 31 30 30 26 22 21 20 17 15 14 14 13 11 10 11 11 13 13 13 12 9 6 4 1 1 3 6 8 10 11 15 20 25 28 26 27 31
30 30 35 36 35 33 31 31 28 25 22 20 18 15 15 16 15 13 9 10 10 10 13 13 13 11 9 7 6 4 6 9 11 12 15 15 16 21 24 27 30 31 33
33 32 33 35 35 35 34 30 27 25 25 21 18 16 17 16 13 12 10 10 12 13 11 10 9 7 6 6 7 8 10 12 12 13 14 17 18 24 27 30 34 37 38
37 36 34 34 35 34 31 28 29 27 25 22 18 16 14 14 14 12 11 13 16 14 11 9 8 8 9 10 10 10 11 13 15 17 17 19 22 25 29 32 34 36 35
39 36 34 34 33 32 29 31 30 28 26 23 21 17 17 15 14 13 13 16 16 14 12 11 10 10 13 15 13 13 11 15 20 21 22 24 27 30 34 36 40 41 44
35 35 36 36 34 32 33 35 34 31 29 25 20 20 19 17 15 14 14 19 16 13 13 13 13 13 17 18 18 18 15 18 22 23 24 27 30 33 37 41 43 44 49
31 36 38 37 34 36 38 37 34 31 28 24 23 22 21 18 18 17 15 15 12 12 10 11 12 15 19 20 22 23 24 25 27 28 29 30 34 36 39 42 45 46 51
28 36 39 37 36 38 37 36 34 31 28 27 25 24 21 21 21 20 18 17 17 15 17 17 19 22 23 26 28 30 31 32 32 31 33 35 37 40 41 40 42 45 49
31 33 38 38 39 39 38 37 34 33 31 29 27 27 26 26 27 26 26 24 24 22 24 25 27 29 30 32 34 35 34 35 35 35 35 37 38 40 42 40 42 47 51
31 28 31 36 40 40 40 39 40 40 37 38 33 33 33 33 32 33 33 33 34 33 32 32 30 30 32 33 33 33 34 36 38 37 38 39 39 41 41 41 42 48 52
33 32 28 28 34 45 44 41 40 44 45 41 41 41 40 41 41 42 42 40 38 39 39 37 38 36 32 32 33 33 35 37 38 38 39 40 40 41 42 41 44 49 53
40 39 38 40 34 39 45 46 43 43 41 45 44 47 48 48 50 49 47 44 45 45 44 44 43 38 34 34 34 36 37 39 40 40 40 40 41 42 42 43 45 49 53
49 49 46 50 50 54 44 45 48 48 46 49 52 53 55 50 56 57 50 49 49 48 47 48 46 40 38 36 37 38 38 39 40 40 41 41 43 43 44 44 47 50 53
56 60 64 45 41 22 37 43 49 56 57 58 58 56 51 49 49 45 47 47 46 47 48 48 46 42 39 38 38 40 40 40 40 41 42 43 44 46 46 47 48 52 55
42 40 28 32 35 42 44 41 47 52 56 58 55 52 52 52 51 50 51 52 52 50 49 47 43 39 39 40 40 40 40 41 42 44 45 46 47 47 48 49 51 53 54
46 39 37 37 39 38 40 39 40 44 44 43 46 49 51 53 54 55 55 53 49 45 42 40 39 39 39 40 41 42 43 45 47 48 49 49 49 50 51 53 55 55 54
48 47 45 41 40 39 40 39 35 35 37 38 39 41 41 41 42 45 44 43 42 41 38 38 39 40 41 42 44 46 47 49 50 51 52 52 52 52 53 55 58 56 54
50 51 48 48 43 44 42 45 39 36 36 37 38 40 43 44 42 42 42 41 41 41 41 42 43 44 46 47 48 49 51 52 54 53 52 53 53 56 58 57 57 56 55
56 54 54 54 51 50 51 49 52 45 41 39 40 41 42 46 47 45 44 43 43 44 46 47 48 49 51 53 54 54 54 54 55 57 59 61 61 59 58 57 59 56 53
63 61 59 59 58 59 56 55 55 56 54 45 43 42 42 45 48 50 51 51 50 50 52 53 53 54 55 56 58 58 59 60 61 62 63 63 62 64 61 60 53 51 52
72 70 69 67 65 63 64 61 59 58 57 54 50 47 45 45 46 47 50 54 55 55 54 56 58 59 61 61 62 63 63 65 68 67 69 67 65 60 59 57 56 54 58
77 76 76 77 77 75 72 68 66 64 63 61 59 55 51 53 52 54 55 57 59 55 56 61 63 64 66 67 69 70 72 73 71 71 64 65 65 67 63 57 54 56 56

GFSGL_500_spd_060.txt.gz
Wind_Speed
37 37 35 31 29 29 23 23 21 20 20 18 16 14 13 11 9 7 6 3 3 2 4 9 12 13 14 13 13 13 11 9 6 3 3 5 7 9 12 14 16 15 19
37 37 35 34 32 30 26 25 24 22 22 20 18 17 16 14 13 11 10 7 6 6 4 7 12 13 14 14 12 11 9 6 4 2 2 3 6 9 12 15 17 19 20
39 38 37 35 33 30 28 27 25 25 23 22 20 20 19 17 16 14 13 11 10 9 8 8 11 14 15 14 12 8 7 4 2 1 1 3 8 11 14 17 20 21 23
40 40 38 35 32 31 31 28 28 27 26 25 24 23 20 19 17 16 16 14 13 12 10 10 12 16 16 13 11 9 7 4 1 2 6 8 13 17 18 18 20 23 25
40 40 38 37 35 35 33 30 28 28 28 27 26 23 20 19 18 17 17 15 14 13 11 11 14 17 15 13 10 8 7 3 3 6 9 11 13 14 15 17 20 24 30
36 36 38 41 39 36 35 32 30 27 30 29 26 24 22 19 20 17 14 13 13 13 14 14 16 15 13 10 7 5 3 3 5 7 8 9 10 14 17 20 22 23 22
34 35 36 38 38 37 36 34 29 28 31 29 26 25 21 21 18 14 13 13 13 13 13 14 14 12 11 8 5 4 5 7 7 8 8 11 13 17 18 20 23 25 28
35 36 35 34 36 37 37 34 31 30 30 28 26 25 22 20 16 15 13 12 12 15 16 15 14 12 10 6 4 6 7 8 10 11 9 10 13 17 20 22 25 26 28
34 36 34 31 35 37 37 36 34 31 30 28 27 25 20 18 17 15 13 12 14 18 17 15 14 12 10 8 8 8 8 10 14 13 14 15 18 22 26 27 30 30 30
27 32 34 34 35 35 37 37 35 33 33 31 27 23 22 20 16 14 13 14 17 20 19 17 15 12 12 13 10 10 9 14 17 18 20 21 23 27 32 34 33 33 34
33 31 35 36 36 36 38 39 37 35 34 31 28 26 24 21 18 14 13 13 19 21 21 18 15 14 15 17 17 17 17 21 23 24 26 28 31 32 34 36 37 37 38
37 33 32 37 37 39 39 37 36 35 34 32 29 27 24 22 21 16 14 14 19 19 18 16 16 17 17 19 20 21 24 27 28 29 28 29 32 35 37 37 37 36 37
41 39 33 34 38 39 39 37 36 35 33 30 29 28 27 26 25 23 20 19 21 18 18 20 20 20 22 24 27 28 30 31 30 28 30 30 31 34 35 35 35 36 37
47 44 36 34 37 38 39 37 35 35 33 31 31 30 30 30 30 29 28 25 25 23 23 25 25 27 29 29 30 28 26 28 28 31 30 30 31 34 35 35 36 37 37
51 46 36 31 36 38 40 39 38 37 36 36 35 35 35 36 35 35 34 31 32 32 32 33 33 34 34 34 36 34 31 30 30 31 31 32 33 35 35 35 37 37 37
53 43 39 37 38 41 43 42 40 38 36 36 38 41 41 43 42 41 41 40 40 40 36 29 35 39 38 38 36 35 33 32 32 32 32 34 35 35 35 37 38 37 38
51 41 37 39 37 39 44 43 46 45 47 45 41 40 46 50 48 45 48 47 45 45 43 46 43 41 41 39 38 34 33 33 34 33 34 35 35 36 37 39 40 41 42
64 56 49 41 41 41 43 44 50 52 61 55 47 39 46 46 55 52 52 51 48 47 46 40 39 39 41 41 39 37 37 36 35 35 35 35 37 38 40 41 42 44 45
54 48 54 45 48 52 51 50 52 51 52 45 45 47 49 53 55 57 57 52 49 46 44 43 42 43 43 40 39 38 37 36 36 35 36 37 38 39 41 43 45 44 46
46 45 49 57 74 68 66 66 65 54 44 36 42 43 48 53 53 55 55 54 53 51 49 47 46 43 40 38 38 37 36 36 36 36 37 39 41 42 43 44 44 46 48
50 49 51 53 57 52 40 26 40 43 47 40 33 36 44 48 47 47 47 45 45 44 43 43 42 39 38 37 37 36 36 37 37 39 40 42 44 44 44 46 49 52 53
58 56 51 47 49 46 40 37 38 37 36 38 38 40 42 44 44 43 38 39 42 43 42 42 41 41 41 40 40 40 40 41 41 43 45 46 46 47 48 50 52 55 54
53 53 52 51 49 49 47 47 43 37 38 38 47 45 40 39 40 40 38 39 42 43 44 44 45 45 45 45 45 45 45 46 47 48 49 50 51 51 52 53 56 58 58
51 53 53 55 53 52 51 51 49 45 47 46 46 50 52 46 42 41 41 40 42 44 46 48 49 49 50 51 51 51 51 51 52 54 54 56 56 56 58 61 61 60 59
53 55 57 57 59 58 57 56 54 57 58 56 55 53 53 54 56 52 46 46 46 45 46 49 51 51 51 52 53 50 49 51 54 55 58 60 62 62 62 62 61 60 61
66 64 64 65 65 66 64 63 61 61 63 62 61 61 59 57 55 60 61 57 53 52 51 49 49 51 53 54 55 56 52 49 49 51 55 57 59 61 61 62 62 60 60

GFSGL_500_spd_063.txt.gz
Wind_Speed
36 35 34 31 29 28 25 22 22 22 22 21 18 15 12 10 9 7 6 4 3 2 5 10 12 13 12 11 11 11 11 10 7 5 2 2 4 7 10 12 14 15 14
37 37 35 35 33 31 27 24 23 22 24 23 20 17 15 14 13 11 10 9 7 6 4 9 14 15 15 14 13 12 11 9 6 5 2 1 5 7 9 10 11 13 16
39 39 38 36 33 31 29 27 25 24 25 24 21 19 18 17 15 14 13 13 12 11 8 8 13 17 18 16 14 12 10 9 7 5 2 3 6 7 8 8 11 15 19
40 40 39 36 33 32 32 30 27 26 26 25 24 22 20 18 16 17 17 17 16 14 12 9 12 18 18 16 15 13 12 9 6 3 1 3 4 3 6 11 14 17 20
36 38 37 36 36 35 35 32 29 28 27 27 25 22 20 18 17 19 19 19 17 15 13 11 12 16 19 17 15 13 10 8 4 2 4 6 6 8 9 12 13 16 20
32 33 35 38 38 36 34 33 30 29 28 28 27 25 22 19 19 20 18 17 15 15 13 14 14 14 16 16 13 12 10 6 3 4 6 7 9 10 11 14 16 17 19
30 35 36 37 38 38 37 36 33 31 30 28 28 27 23 20 20 20 17 15 15 14 13 13 14 18 17 14 12 10 8 6 7 7 6 10 11 13 14 16 20 21 22
28 34 37 36 35 37 39 37 36 35 32 30 29 28 24 21 20 19 17 15 14 13 13 14 17 17 17 15 12 10 9 8 9 9 7 9 13 15 18 20 21 22 23
28 32 33 34 33 34 35 36 37 37 33 29 29 27 24 22 21 20 17 14 14 15 14 16 17 18 17 15 12 10 9 10 12 11 10 13 16 19 23 25 27 25 25
27 25 29 30 32 31 31 34 37 38 35 32 29 27 25 24 22 20 17 14 14 14 16 17 17 17 16 15 13 12 11 12 14 15 17 19 22 23 26 29 31 30 29
29 27 27 28 30 31 31 32 35 36 36 33 30 30 26 25 23 21 18 15 15 16 18 19 18 18 17 17 15 13 13 16 18 19 21 24 26 27 28 31 31 31 28
35 33 29 27 28 34 33 33 31 33 34 34 32 31 28 26 24 23 20 17 18 16 19 22 21 20 19 20 19 15 16 19 21 24 26 26 29 30 30 30 30 31 31
40 38 37 31 29 31 34 34 33 32 33 34 34 32 29 27 25 25 23 20 18 16 19 21 21 21 22 23 22 21 21 19 21 25 25 29 32 31 30 30 29 29 29
45 44 41 37 33 30 30 35 35 34 34 35 34 32 32 30 29 29 28 24 22 21 24 26 28 25 21 22 22 25 26 26 28 29 27 30 34 31 29 30 29 28 28
50 49 46 41 38 32 29 36 35 35 36 36 35 35 34 33 31 31 32 32 29 25 27 27 25 25 27 28 30 31 31 31 33 32 29 31 33 30 29 29 28 28 30
50 52 53 46 45 39 34 33 37 38 37 37 37 39 42 40 38 36 36 36 34 32 32 31 31 33 34 35 35 36 37 38 35 32 32 33 31 29 30 29 29 30 32
57 56 56 55 52 46 37 35 38 37 37 38 41 42 41 39 41 39 40 40 40 38 38 38 39 40 41 41 41 39 38 36 39 38 35 34 31 31 31 29 30 32 34
61 61 62 62 59 52 44 39 39 39 40 42 46 46 45 45 43 39 43 46 36 34 43 44 43 44 44 42 41 40 37 38 40 38 36 34 32 33 33 32 32 35 36
64 62 61 68 63 55 46 43 43 43 47 49 53 51 53 51 52 53 42 43 44 46 47 47 48 48 48 48 45 43 41 41 38 37 35 34 34 35 33 35 37 37 38
61 65 63 63 64 63 52 50 50 54 55 59 61 63 60 55 52 59 49 35 50 52 46 43 43 44 44 44 44 41 40 39 37 36 36 36 36 36 37 38 40 41 41
61 65 70 69 74 72 67 46 55 59 59 60 62 67 47 37 40 38 46 52 50 45 38 39 40 40 38 35 37 38 37 38 38 37 38 38 39 40 40 41 43 46 46
66 68 67 70 74 52 50 36 42 55 36 34 41 67 38 32 41 40 45 45 44 39 38 43 43 41 37 38 37 39 40 40 41 41 41 42 43 44 44 46 47 48 48
59 59 59 54 45 40 33 42 44 37 36 33 30 27 34 43 39 40 42 43 41 40 43 47 47 43 40 39 39 41 43 43 44 45 46 45 46 47 47 47 48 48 50
61 55 56 44 43 46 47 49 49 42 39 38 35 34 36 38 43 47 44 43 41 40 41 44 45 45 44 44 44 46 47 49 50 51 50 51 51 50 48 48 47 47 49
52 51 41 51 59 52 52 52 49 42 44 44 42 43 42 45 46 45 41 43 47 49 49 48 46 47 45 46 49 50 50 50 52 52 51 52 51 52 50 48 47 47 50
56 54 52 50 46 52 58 57 55 51 50 52 55 57 56 56 54 51 49 49 50 50 54 57 59 58 57 56 54 54 55 54 54 55 57 57 57 56 57 57 59 61 63

GFSGL_500_spd_066.txt.gz
Wind_Speed
30 29 29 27 25 24 22 20 20 20 21 19 17 15 13 9 9 7 5 2 1 1 3 8 9 9 8 9 8 10 9 6 5 4 3 3 4 6 7 9 10 10 10
32 32 30 30 29 25 24 22 21 21 21 21 19 18 16 13 11 11 7 3 4 5 4 8 11 12 11 10 10 10 10 8 4 2 1 1 4 5 5 6 7 8 11
30 34 34 32 30 26 26 25 23 23 22 23 22 20 19 16 13 11 9 8 7 9 7 8 11 14 14 13 12 11 10 9 7 5 3 1 1 2 2 3 6 9 14
23 32 35 34 31 30 28 28 27 24 24 24 24 24 22 18 15 14 13 13 10 10 10 10 11 15 17 16 14 13 12 11 8 6 4 3 2 3 3 4 7 11 14
20 26 31 34 34 33 31 30 29 26 25 25 26 25 21 19 17 18 16 16 14 12 12 12 13 14 17 17 17 15 13 11 8 7 6 4 4 3 5 7 8 12 18
20 19 28 34 34 33 32 31 31 28 26 26 26 26 22 19 19 20 18 16 15 12 13 13 14 13 16 19 18 15 13 12 11 9 6 6 6 8 11 12 13 13 14
18 21 22 29 31 31 32 32 31 30 28 26 26 26 24 23 21 21 19 16 13 14 14 14 14 16 18 20 19 17 15 14 12 10 8 8 8 11 12 15 18 20 20
18 20 24 25 26 28 29 29 30 30 29 29 27 26 26 25 24 22 20 14 13 15 14 14 15 20 19 21 19 18 17 16 15 12 9 10 10 13 17 19 22 23 24
20 19 19 22 26 27 27 28 31 32 31 30 29 27 26 26 26 23 19 15 15 16 15 14 16 20 23 21 19 19 18 15 14 12 11 12 14 17 20 22 23 23 22
20 20 22 21 24 25 26 28 30 32 31 32 32 29 28 27 27 24 21 18 18 17 16 16 15 18 22 21 22 19 15 14 14 14 13 15 19 22 25 26 26 25 25
32 29 26 24 23 24 26 28 27 28 30 31 33 31 29 28 28 26 25 20 21 20 18 17 18 20 20 21 21 19 17 18 17 15 17 19 22 25 27 28 29 27 27
38 35 31 25 22 22 24 27 29 27 26 29 32 33 31 29 29 27 26 24 25 22 20 20 20 20 20 21 22 22 21 20 20 20 21 21 24 29 29 30 29 29 28
45 39 35 29 27 26 24 25 28 29 26 26 29 31 32 32 31 29 28 29 29 23 22 21 21 22 22 22 22 22 22 22 20 18 19 22 26 29 32 33 31 28 28
49 43 40 35 31 28 27 25 26 29 29 28 27 28 31 34 32 30 31 31 30 26 23 21 22 23 24 23 23 25 24 22 21 22 25 26 29 31 35 37 34 29 28
52 47 45 40 37 34 32 29 26 29 31 32 31 31 34 35 33 33 35 34 34 30 29 27 26 27 27 28 28 27 29 30 29 29 31 36 38 36 36 39 37 31 29
55 50 49 45 41 39 37 32 28 24 29 34 37 37 37 37 36 36 37 37 38 37 35 31 31 32 31 32 31 31 32 32 35 36 39 40 37 37 39 40 37 33 30
60 55 57 50 46 46 41 38 36 29 28 31 39 41 37 36 37 38 39 40 40 43 41 39 38 38 38 37 36 36 35 36 38 42 41 40 39 39 41 41 36 33 33
66 60 58 54 53 54 51 48 46 39 35 34 38 41 39 40 41 41 42 45 44 45 49 50 42 40 42 41 39 38 40 43 43 42 42 42 41 42 42 38 36 35 33
62 63 64 59 62 57 56 54 53 51 47 42 38 41 44 44 46 46 47 47 49 51 54 53 49 35 43 43 41 40 38 43 45 48 45 43 41 42 38 36 35 35 35
63 65 65 67 69 64 60 58 54 57 55 51 46 46 48 47 47 49 49 49 49 53 54 30 26 36 43 42 40 43 42 42 43 46 43 38 37 37 37 37 36 35 36
61 64 65 67 71 66 66 60 61 63 57 50 49 46 49 48 51 53 57 58 59 55 58 51 30 37 41 44 37 39 40 42 42 40 37 35 34 36 37 36 36 37 39
48 54 62 64 64 65 65 64 63 64 64 57 48 47 54 56 57 57 60 63 66 63 44 54 46 47 50 41 37 38 38 39 40 38 36 36 37 38 39 40 41 42 43
45 51 56 58 69 74 68 68 65 68 70 66 61 61 61 72 61 65 50 57 64 43 33 28 35 40 42 40 38 39 42 43 42 42 42 41 40 41 42 44 45 47 49
49 49 49 54 60 51 48 42 61 66 68 68 74 64 67 26 20 26 36 34 25 32 35 37 38 40 44 42 39 39 40 42 44 45 47 48 48 48 50 48 48 50 53
44 53 57 56 59 60 62 68 71 66 52 44 86 44 37 30 28 28 32 35 39 43 43 42 45 48 48 46 45 42 41 42 44 47 48 49 51 52 55 54 56 58 58
54 58 44 49 55 68 75 71 75 70 61 49 34 46 45 43 43 44 40 39 40 41 43 45 47 48 48 49 50 49 49 48 49 51 53 55 57 60 61 63 63 64 65

GFSGL_500_spd_069.txt.gz
Wind_Speed
25 25 26 24 23 23 21 23 24 22 19 18 15 13 11 9 7 6 5 2 1 1 2 5 7 6 6 7 8 7 6 5 3 4 3 3 2 2 3 6 7 7 10
27 29 29 28 26 25 23 22 22 23 22 21 17 15 14 11 9 9 8 5 3 3 4 5 9 9 9 9 10 8 7 5 3 4 3 2 1 2 3 5 6 9 12
24 30 30 29 27 26 25 24 22 21 21 21 20 19 16 14 12 11 11 8 6 6 6 6 6 11 13 12 11 10 9 7 6 5 4 4 2 1 3 4 6 9 13
20 27 32 31 30 29 28 27 25 22 21 22 22 21 19 16 14 13 13 11 9 10 9 9 8 9 14 15 14 12 11 10 9 9 8 5 4 2 4 5 9 10 13
14 19 28 34 34 34 30 28 28 25 23 23 22 22 20 18 16 16 15 13 12 12 12 12 12 10 12 16 16 15 14 13 12 11 9 8 7 6 5 7 8 11 16
15 17 21 29 34 33 33 31 29 28 26 25 21 22 21 19 19 18 17 15 14 13 13 13 13 13 13 16 19 18 17 16 15 13 11 11 9 8 7 8 9 11 13
18 13 16 21 29 34 34 32 29 28 29 25 23 22 21 22 20 19 19 17 15 14 15 15 15 16 16 17 21 21 19 18 17 16 14 13 10 9 10 12 13 16 19
25 16 14 16 21 30 34 30 29 29 29 29 27 25 24 23 22 21 20 18 15 15 16 16 17 18 19 19 22 23 23 20 20 19 16 14 12 14 15 16 18 19 22
25 20 12 11 15 23 27 27 29 29 29 28 28 27 25 24 24 24 22 19 16 17 19 19 17 18 21 23 24 25 25 24 24 21 16 14 14 17 19 20 23 22 21
25 21 18 16 15 18 25 27 28 28 30 32 30 28 27 27 27 25 23 21 16 19 22 20 21 20 22 23 26 27 25 26 23 19 18 17 18 19 22 24 26 27 25
28 24 20 18 17 17 24 26 26 27 29 32 32 31 29 29 28 27 25 23 19 23 23 23 23 22 21 22 29 27 26 25 21 18 18 17 17 20 22 26 30 31 31
32 29 25 22 20 20 21 24 24 25 25 26 29 31 30 30 29 28 26 25 23 25 26 25 24 23 21 22 25 26 27 25 21 20 19 18 20 21 23 26 29 33 34
36 35 31 28 26 24 25 25 25 25 25 24 24 26 30 32 31 31 29 27 27 27 29 29 27 25 24 25 26 26 27 25 24 23 22 22 22 23 24 27 29 34 36
42 39 38 34 30 27 26 25 24 25 25 26 26 24 27 31 33 33 33 31 30 30 32 32 30 28 28 29 29 29 29 28 26 24 23 23 24 26 29 30 32 35 34
47 46 45 40 37 34 32 29 27 26 25 27 30 31 31 30 32 34 34 34 33 34 37 37 35 33 32 32 31 29 28 27 25 26 25 26 27 31 33 34 36 35 37
50 50 49 45 44 41 39 35 31 29 28 28 31 33 35 33 34 35 33 35 36 39 40 39 39 37 35 35 33 32 32 30 33 33 32 33 34 35 35 37 38 37 39
53 53 50 47 49 47 43 40 38 34 32 32 29 32 35 36 37 37 36 36 39 40 40 42 46 44 42 40 38 37 37 38 40 40 39 39 39 37 37 37 39 40 41
56 56 52 48 51 52 46 46 44 41 38 37 37 35 34 33 34 38 38 40 40 42 43 48 49 50 46 44 43 43 44 45 45 46 45 43 41 41 41 42 43 42 42
56 58 56 54 51 55 52 53 52 48 44 43 43 42 40 35 32 36 42 42 41 42 46 52 54 52 49 50 49 52 55 52 43 40 41 47 45 42 44 47 45 41 41
57 59 58 56 57 59 60 59 52 53 51 49 50 49 47 43 41 40 42 44 43 44 49 50 52 56 60 56 57 64 58 56 36 34 35 37 37 40 44 43 42 41 38
57 56 58 57 60 62 63 62 61 59 58 55 57 61 58 48 53 46 45 50 50 48 51 54 57 61 65 55 56 54 52 47 32 28 33 35 36 38 44 42 40 39 37
54 54 55 57 61 62 64 66 66 64 67 65 61 63 61 55 53 57 50 45 47 49 54 57 59 61 67 46 42 53 32 35 40 37 37 37 36 38 41 42 40 37 37
58 57 55 55 56 58 61 62 64 67 66 71 64 69 69 63 61 47 56 48 49 53 56 59 62 63 65 50 52 47 49 47 48 42 36 38 38 38 39 40 41 40 40
54 56 53 49 44 49 58 58 59 61 68 68 64 61 64 52 52 55 50 47 56 55 59 61 63 60 61 56 38 38 33 37 40 37 41 43 42 43 42 42 42 43 43
52 52 52 48 50 52 32 50 59 44 47 65 69 65 62 47 48 54 52 60 64 54 67 76 72 56 42 40 45 45 42 42 43 45 47 48 47 48 46 46 47 47 47
56 54 50 48 56 38 47 63 44 53 53 51 46 55 49 46 53 68 62 57 69 78 48 47 53 51 55 53 51 47 44 44 45 46 48 51 52 53 55 56 57 58 58

GFSGL_500_spd_072.txt.gz
Wind_Speed
27 28 29 28 25 24 22 22 21 19 17 16 13 11 8 6 5 3 3 2 1 1 1 4 7 7 7 8 8 8 8 6 5 4 2 2 2 2 2 3 5 7 9
32 29 28 29 29 27 25 22 21 20 20 18 16 13 11 10 8 7 7 6 4 2 3 2 6 9 9 9 10 10 8 7 6 6 5 5 4 3 2 3 4 7 11
29 32 30 30 30 27 27 26 24 22 22 22 19 17 15 15 13 11 10 9 7 6 6 5 5 10 13 13 12 12 11 9 8 8 8 8 5 3 2 3 5 10 13
27 31 33 30 29 31 31 30 29 26 24 22 21 20 20 18 16 14 12 12 9 9 9 10 10 9 13 16 15 15 14 13 12 11 10 9 7 7 6 5 7 8 13
28 29 31 34 34 33 34 32 30 29 26 24 24 22 20 19 18 16 15 14 13 11 12 14 14 13 12 16 19 18 17 16 15 14 13 13 11 10 7 9 10 10 15
27 27 29 29 34 34 33 32 33 31 28 26 24 22 20 19 20 20 17 16 15 14 14 15 17 17 16 15 20 21 21 19 18 18 16 16 12 12 12 13 12 11 13
30 26 28 28 29 34 35 34 32 31 31 28 26 24 21 21 22 22 20 19 18 16 15 16 17 19 19 18 19 23 24 23 21 20 19 17 15 15 16 15 13 14 15
31 29 27 29 30 31 35 35 33 33 32 30 29 27 26 24 23 24 24 22 20 18 17 18 17 19 20 20 19 22 25 25 25 24 23 19 19 21 20 17 17 17 20
37 33 30 26 27 30 32 34 35 35 34 31 31 31 28 27 26 26 27 23 23 21 19 19 18 19 22 22 21 22 26 28 28 27 26 23 22 24 23 19 20 21 23
35 36 33 28 25 24 30 34 35 36 36 36 34 33 31 31 30 28 27 25 24 23 22 21 21 22 24 24 23 24 25 32 32 29 27 25 26 26 24 22 23 23 26
52 49 41 30 26 25 29 34 34 34 36 35 33 33 32 32 32 32 29 26 23 25 24 23 24 25 27 25 23 25 28 34 32 30 28 28 28 26 24 23 24 25 28
48 36 38 32 28 26 28 33 34 34 34 32 32 34 34 34 35 34 32 29 26 24 26 27 27 27 28 26 23 25 30 35 32 30 29 28 27 26 23 23 24 25 29
25 39 43 42 37 28 26 27 31 33 34 32 32 32 33 36 37 37 35 33 30 26 28 30 31 29 28 26 25 27 28 31 32 30 30 29 29 26 25 26 26 30 31
41 40 42 41 29 34 32 27 27 31 34 32 31 31 32 35 35 36 36 37 35 31 29 32 34 33 30 29 30 31 31 32 32 32 33 33 32 31 28 28 30 32 34
48 45 56 48 47 44 38 34 30 30 34 32 32 34 35 33 32 36 38 38 38 36 38 36 34 33 33 34 35 34 35 36 36 36 36 36 36 33 34 33 33 37 37
59 55 43 43 47 42 39 41 33 32 32 30 33 34 35 35 34 33 33 36 39 43 43 37 35 37 37 39 39 40 39 39 41 42 41 40 36 35 37 38 39 39 37
46 52 55 55 50 48 43 37 37 38 34 34 31 29 30 31 34 34 35 36 40 43 40 39 39 40 41 44 44 44 42 43 45 43 42 41 41 41 41 42 44 45 41
50 53 54 53 55 53 49 47 48 46 43 40 38 37 35 32 31 34 37 41 43 43 40 42 42 42 44 46 46 48 47 49 49 48 49 49 49 52 49 48 49 48 43
56 56 55 63 61 57 57 56 55 53 50 47 45 42 40 38 37 36 36 38 43 46 45 44 44 45 45 48 48 51 52 55 56 54 57 58 56 57 53 44 49 46 46
55 58 57 60 62 60 58 56 59 56 54 52 49 47 48 45 43 40 40 40 41 42 46 48 48 49 49 49 51 52 54 58 60 60 62 64 64 71 66 43 35 31 40
55 60 55 56 59 59 57 57 57 59 58 56 54 54 53 50 49 49 48 48 46 45 44 44 48 50 50 50 51 53 56 59 66 70 71 69 73 75 51 28 27 33 34
64 69 61 56 61 57 56 58 59 58 59 63 60 60 57 56 57 54 51 51 52 53 51 50 46 48 52 52 54 53 55 56 61 71 73 53 59 71 52 30 29 34 36
65 72 67 57 61 57 58 59 60 62 62 64 65 65 61 60 61 60 58 59 57 55 52 56 58 53 55 57 59 60 60 56 59 65 65 64 43 37 30 31 34 39 42
65 68 64 62 60 57 58 58 59 62 64 63 64 65 63 63 67 66 66 65 70 67 62 66 62 58 60 62 61 59 55 57 56 53 55 43 39 38 37 35 37 37 38
69 64 62 60 58 57 56 55 54 56 59 59 62 66 64 64 64 67 75 74 61 58 59 56 58 58 59 64 62 55 53 55 57 56 43 43 40 38 38 37 40 43 45
54 72 64 57 55 55 56 55 55 52 40 51 57 67 56 50 55 62 61 69 56 56 61 61 66 66 67 62 61 63 58 63 63 56 51 48 48 47 48 47 49 51 51

GFSGL_500_spd_075.txt.gz
Wind_Speed
29 33 33 28 26 25 23 23 22 20 19 17 13 10 8 7 6 5 5 4 4 4 4 9 10 10 10 10 10 8 6 6 4 3 3 1 1 1 2 3 4 6 8
29 31 32 34 32 29 27 25 24 23 21 19 15 11 10 9 7 6 6 5 3 2 3 3 8 10 10 10 10 9 7 6 7 5 4 4 4 3 3 4 4 6 10
33 33 34 34 34 32 30 28 26 25 24 22 19 16 15 12 11 9 8 9 7 5 3 2 3 9 12 13 13 13 12 11 9 8 9 9 7 6 6 7 6 9 12
31 35 37 37 36 36 35 34 30 28 27 25 23 21 19 17 16 14 13 11 11 9 7 6 6 7 10 14 16 16 16 16 14 13 12 12 11 10 9 9 8 8 14
34 34 38 41 40 40 39 37 34 31 28 27 26 23 22 21 20 18 18 16 14 13 11 10 10 11 11 13 18 20 20 19 18 17 16 16 16 14 13 13 13 12 14
40 36 38 42 44 43 42 41 39 35 32 29 26 25 24 23 23 22 21 20 17 16 15 14 13 13 15 16 16 21 23 23 22 20 20 19 18 17 17 17 15 17 15
42 40 42 41 43 46 46 45 42 39 37 33 31 28 24 23 23 24 24 23 20 19 19 17 16 17 18 18 19 18 22 26 25 24 23 23 21 20 19 20 19 18 20
45 44 44 42 41 44 48 46 45 43 40 37 35 33 30 26 26 25 25 25 23 22 21 21 19 19 19 20 20 19 20 24 29 28 26 27 24 22 22 22 23 23 24
45 46 43 43 41 40 43 47 47 46 43 40 38 37 33 31 30 28 26 24 25 24 24 23 22 21 22 22 21 21 20 22 28 30 29 29 27 28 24 24 26 26 25
49 47 46 37 37 35 38 44 49 48 47 45 42 40 37 35 34 32 30 26 23 25 25 24 24 24 25 24 22 23 21 24 27 30 32 30 31 31 29 27 27 26 24
50 49 44 38 37 35 33 38 44 49 50 47 45 42 40 38 38 35 34 30 24 26 26 25 26 27 28 26 24 24 23 28 29 26 31 32 34 33 31 29 27 25 23
59 52 52 46 43 38 37 35 38 45 49 48 46 44 41 39 38 37 36 33 29 27 26 27 27 30 30 30 27 25 25 30 29 29 29 34 36 35 33 30 27 26 27
42 30 33 28 36 40 41 37 39 42 43 45 45 43 41 41 39 38 37 36 35 31 30 30 32 34 34 31 30 28 28 29 29 28 31 35 36 35 33 31 30 29 28
42 35 41 39 45 41 45 41 38 38 39 40 39 39 40 41 40 39 39 40 39 36 35 37 36 36 38 35 32 30 30 31 30 28 29 34 37 35 35 34 33 33 32
52 42 47 47 51 50 48 48 42 39 37 42 42 42 42 41 40 42 44 44 42 40 43 41 37 36 39 37 35 34 33 34 33 33 33 36 38 37 37 38 37 37 38
66 53 51 50 47 54 55 53 47 40 35 35 38 41 41 40 41 41 40 40 40 42 43 38 36 37 38 38 38 38 37 37 37 38 38 39 41 41 41 42 42 43 41
69 50 50 56 55 61 60 53 48 48 44 42 43 39 36 37 37 35 35 40 40 41 38 38 37 38 39 41 41 42 39 40 41 41 42 44 45 45 45 47 48 48 48
61 53 56 56 57 58 59 54 51 55 52 50 44 42 40 39 36 37 38 39 38 38 38 37 36 37 39 42 43 44 45 43 42 43 46 47 48 48 50 52 53 52 53
64 63 70 60 59 60 63 56 49 50 46 43 44 44 41 40 38 40 40 38 35 35 37 38 38 40 40 41 41 43 45 46 46 47 48 49 52 53 52 55 58 62 67
68 80 68 67 56 64 64 58 52 55 54 50 51 50 49 48 46 45 45 44 40 40 39 37 36 37 41 43 45 45 44 46 48 49 50 50 53 55 56 60 64 66 67
73 82 62 61 57 62 62 57 49 56 61 62 59 57 56 56 53 50 48 47 46 44 44 43 42 42 41 40 42 44 45 48 50 51 52 53 53 53 58 63 71 68 65
86 80 58 71 67 55 56 55 57 59 62 67 67 65 63 63 55 56 55 55 53 51 51 50 49 49 50 50 52 50 50 47 49 53 53 53 54 52 52 54 59 62 64
85 87 81 71 73 67 57 55 57 60 59 62 64 66 68 65 62 61 59 59 59 57 57 58 57 55 56 57 57 56 50 51 53 56 55 56 56 58 59 58 57 55 46
73 79 84 82 73 77 65 62 58 60 56 56 62 65 66 68 67 66 65 63 63 63 63 61 60 60 62 63 63 59 62 61 60 61 60 58 59 61 61 59 52 44 37
75 66 62 64 73 77 82 78 72 65 58 59 57 60 61 65 67 68 68 66 68 69 68 68 70 69 68 68 72 69 70 75 71 64 61 62 64 66 59 50 53 47 44
72 70 65 59 53 59 72 72 71 72 68 61 60 62 62 61 64 67 68 68 72 71 71 74 73 74 73 70 74 77 73 65 63 61 61 58 60 58 66 58 53 58 50

GFSGL_500_spd_078.txt.gz
Wind_Speed
27 30 30 26 26 24 22 21 20 20 19 17 15 12 11 10 10 10 8 8 8 8 10 13 15 15 13 13 14 11 8 7 6 5 3 2 2 2 3 3 4 6 8
30 31 33 31 28 26 24 24 23 21 20 20 17 15 13 12 10 10 10 8 7 7 8 10 10 13 15 15 14 14 11 8 7 6 5 5 6 6 5 4 6 8 9
32 32 34 36 33 29 28 27 25 24 23 21 19 18 16 14 13 11 10 11 9 7 6 6 8 11 13 16 17 16 15 13 11 10 10 10 10 9 8 8 8 10 11
32 37 36 37 37 36 34 32 30 29 28 25 24 23 21 18 16 14 12 12 12 11 9 7 7 8 11 15 16 18 19 18 17 15 15 14 14 12 11 9 12 12 15
35 33 38 37 37 39 40 37 36 33 31 31 29 27 25 22 21 19 17 16 14 14 14 12 11 9 10 12 17 19 20 21 20 20 18 17 17 16 15 14 16 14 17
42 36 36 39 39 39 41 42 41 38 36 34 32 31 30 27 26 25 22 19 18 17 17 16 14 12 13 14 16 17 21 23 23 23 22 21 22 20 18 19 18 17 18
46 41 41 38 37 40 42 44 43 41 39 37 36 34 31 30 29 28 25 24 22 20 19 19 18 16 15 16 17 18 17 20 25 25 25 26 25 23 19 21 19 20 21
52 47 45 42 37 37 40 43 44 44 42 41 39 37 34 31 30 29 28 26 25 25 23 21 20 19 18 17 17 18 19 19 20 25 28 30 29 27 22 21 22 22 22
55 58 51 48 43 39 39 40 46 46 45 43 43 41 38 35 34 32 31 28 26 26 26 25 22 20 21 21 19 19 20 21 22 20 23 30 33 30 27 24 25 23 24
50 58 54 53 48 42 40 41 43 48 49 48 46 45 43 40 40 37 35 30 27 26 27 27 25 23 26 25 21 21 19 23 23 20 19 22 29 32 32 29 27 27 27
48 50 56 58 51 45 44 45 46 45 49 50 49 47 46 45 45 43 40 34 29 29 28 27 28 28 29 30 27 22 21 26 24 21 22 23 25 31 36 33 29 28 28
50 48 57 62 63 53 49 47 45 45 46 49 52 50 47 47 47 46 43 39 36 34 30 30 30 31 32 32 30 25 23 25 24 26 25 25 27 31 35 33 31 31 29
55 53 51 58 59 54 52 48 42 43 44 43 46 49 48 48 48 49 47 44 41 38 36 35 35 35 35 34 30 30 28 26 27 27 28 28 28 29 30 32 32 32 31
59 57 61 62 65 61 61 55 47 43 41 38 39 42 46 49 49 49 48 48 46 43 43 41 40 40 37 35 35 32 32 30 30 29 30 29 29 29 28 28 30 32 32
64 58 49 65 67 68 49 28 39 32 41 42 41 39 42 46 47 51 51 50 48 46 48 45 41 38 37 36 37 36 33 33 31 32 32 33 32 31 30 31 30 34 34
65 62 66 63 58 50 39 32 34 36 41 43 43 41 39 41 46 50 51 50 48 48 47 45 43 40 38 39 38 40 39 35 34 34 34 36 35 34 34 34 34 35 37
59 71 56 50 51 42 38 37 42 47 50 50 47 43 39 41 44 46 48 49 47 47 44 42 41 41 40 40 41 41 41 41 40 36 34 34 36 37 38 38 38 38 40
72 60 66 58 55 50 46 44 50 49 49 57 54 46 42 42 43 44 44 43 44 41 37 40 39 38 38 37 38 40 41 42 42 41 40 39 38 39 40 40 41 42 45
85 70 64 63 63 64 60 56 57 55 53 58 60 51 46 47 46 43 42 41 41 42 42 40 38 37 38 36 37 37 37 38 39 39 41 42 43 42 41 42 44 46 49
94 87 64 66 70 72 66 63 57 58 62 62 64 57 55 57 55 51 48 46 45 45 44 45 45 43 41 40 41 39 39 41 41 42 43 43 44 46 44 45 45 47 48
93 86 87 73 71 69 61 66 62 66 63 63 63 57 62 61 66 53 54 48 49 50 45 44 44 41 41 41 40 39 39 38 39 42 43 42 45 47 47 48 47 47 47
93 95 89 95 72 64 67 69 65 62 66 61 65 61 55 56 46 52 55 51 49 50 48 47 48 47 47 48 44 43 46 47 47 51 51 49 45 46 46 44 45 47 50
92 94 95 94 89 67 74 74 66 64 69 62 64 64 54 55 54 55 56 57 56 57 56 55 54 52 54 53 53 54 54 56 57 56 57 54 49 44 44 47 46 48 52
88 92 98 96 92 84 71 65 62 59 63 57 54 64 55 53 53 56 59 61 62 62 64 65 62 61 62 60 60 61 61 67 61 59 54 55 59 57 58 60 62 62 65
79 86 84 94 96 92 91 84 66 71 63 60 58 51 52 53 57 55 54 58 62 66 66 68 66 66 69 67 66 66 68 68 65 65 65 70 73 69 71 63 63 62 56
55 76 80 80 81 79 79 84 83 75 62 65 63 59 54 54 51 50 52 50 56 61 63 65 68 73 69 72 73 73 73 74 74 76 75 75 77 69 67 61 65 66 57

GFSGL_500_spd_081.txt.gz
Wind_Speed
30 34 30 27 26 24 23 23 21 20 19 18 16 13 10 10 9 9 7 8 10 12 15 16 16 14 14 14 12 10 7 7 7 7 6 5 4 4 4 3 3 2 5
33 33 35 32 28 26 24 25 23 21 21 20 18 15 13 13 11 11 9 8 7 8 11 13 15 16 16 15 14 12 11 9 7 6 6 6 7 7 7 6 6 4 5
35 33 34 36 33 30 29 28 26 24 22 22 22 20 18 16 15 13 12 11 9 9 8 8 12 15 18 18 18 17 14 13 12 11 10 10 11 11 10 8 8 8 7
33 35 34 35 35 34 34 33 31 29 27 25 24 24 23 20 18 16 15 14 14 12 10 9 9 9 13 16 19 20 19 18 16 16 14 14 15 14 13 10 12 10 10
31 33 35 35 36 39 38 36 34 33 31 29 28 26 26 23 21 19 19 18 16 15 14 13 12 10 10 12 15 18 20 22 21 21 19 18 18 18 15 14 15 16 17
36 34 34 34 39 40 41 42 40 36 35 33 30 29 28 26 26 25 23 22 20 19 17 17 16 14 13 13 15 16 16 21 23 24 25 24 24 22 18 16 17 17 18
45 43 42 38 36 42 43 42 42 42 40 37 35 33 30 29 29 28 27 27 25 23 22 20 19 19 18 17 16 16 17 19 20 23 26 27 27 26 23 19 18 19 21
48 42 41 43 42 41 42 44 42 43 43 41 39 37 35 32 32 32 32 31 30 28 26 24 23 22 22 21 18 16 17 19 21 20 21 24 28 29 28 24 23 22 21
46 46 41 43 48 46 43 40 42 45 44 42 42 41 39 37 36 35 35 33 31 29 29 28 27 25 24 25 22 21 18 19 21 20 18 20 20 24 27 27 29 25 24
51 49 47 49 52 53 50 45 42 43 44 45 43 42 42 41 40 38 37 36 32 28 28 29 28 28 29 28 26 25 20 23 21 18 17 18 19 21 22 23 27 26 25
61 51 54 52 46 57 55 51 45 46 43 41 44 46 44 44 43 43 41 39 34 31 30 29 30 30 32 32 30 25 23 26 23 20 19 21 22 23 24 24 22 23 27
62 59 56 52 50 51 60 59 53 51 45 42 43 44 47 46 46 46 45 43 40 37 34 33 33 34 34 33 33 29 26 27 26 24 24 25 26 24 24 23 23 22 24
65 63 60 57 52 49 53 59 60 55 50 45 46 44 45 48 49 49 48 49 46 42 39 38 37 38 38 34 30 33 32 29 28 29 28 28 30 29 27 25 24 22 22
72 67 64 60 54 54 50 56 60 61 56 50 49 48 45 46 48 51 50 51 50 48 45 44 43 41 40 37 36 36 34 32 32 30 32 32 33 33 30 29 27 27 23
79 74 69 63 59 57 56 54 56 61 61 54 50 51 48 44 43 49 53 54 54 51 50 47 43 41 40 38 38 39 38 38 36 35 33 34 35 36 34 34 31 30 28
85 80 76 70 66 62 62 58 58 54 67 59 50 49 50 42 45 45 48 52 55 54 52 47 45 43 42 41 40 40 41 40 40 41 37 33 34 35 36 38 35 34 31
88 89 85 76 72 65 62 56 62 59 62 67 66 62 49 48 50 46 47 46 49 49 47 45 42 42 42 43 44 44 44 44 43 42 41 39 36 36 37 37 37 36 34
91 88 91 84 79 73 69 63 61 66 60 65 64 44 39 41 46 48 45 46 44 43 42 42 41 42 43 44 43 40 40 42 40 41 41 39 39 40 40 39 40 40 39
93 94 90 90 85 77 74 66 67 55 43 50 45 39 42 42 48 52 50 47 43 43 39 40 40 39 39 41 41 39 37 37 36 35 37 37 37 40 41 41 40 40 41
93 95 95 93 91 82 77 71 66 56 57 58 47 50 46 44 45 55 58 48 46 43 43 43 41 41 40 40 38 38 36 36 37 37 37 39 41 42 42 43 42 42 43
81 94 96 95 93 85 77 78 74 71 62 53 55 52 47 46 47 53 65 49 52 52 51 49 46 44 43 43 43 42 40 39 40 40 39 40 40 40 40 42 42 42 43
72 83 95 98 95 89 86 74 67 74 66 62 60 58 56 53 54 55 54 51 57 59 54 57 56 50 45 42 43 43 42 42 43 42 40 41 43 46 49 49 49 49 47
67 75 89 97 97 95 94 85 76 77 76 70 62 60 60 60 58 55 54 53 55 56 67 55 53 49 42 41 46 46 47 47 48 48 47 47 50 54 56 56 55 52 46
56 63 76 92 97 97 93 90 89 83 69 72 67 62 63 62 60 57 58 57 54 52 45 42 48 48 48 49 50 52 53 53 53 56 57 58 57 57 58 61 59 54 50
45 52 61 76 88 94 93 97 100 96 74 76 75 70 62 64 58 56 59 57 53 51 48 47 49 51 51 55 59 59 60 62 61 58 61 59 60 62 65 66 68 66 63
36 37 46 57 71 83 92 98 95 87 83 67 64 61 62 58 57 56 59 60 54 55 51 52 54 53 53 54 57 61 62 62 63 64 64 64 65 68 71 71 74 71 71

GFSGL_500_spd_084.txt.gz
Wind_Speed
29 32 28 27 26 24 23 23 23 22 20 19 17 14 12 10 11 11 10 9 12 14 15 15 14 14 13 12 11 8 7 7 7 7 7 6 6 5 3 2 3 1 2
32 32 33 31 29 27 25 25 25 25 24 22 20 17 14 13 11 11 10 9 9 12 15 17 17 17 16 16 14 11 9 8 8 8 9 9 9 8 6 5 5 6 5
34 33 33 34 32 30 29 28 28 28 26 25 24 22 18 16 15 13 12 11 10 10 11 14 17 18 19 17 17 15 13 11 11 11 11 11 11 11 10 9 9 9 8
34 35 33 33 35 35 34 32 30 30 29 27 26 25 22 20 18 16 14 13 13 13 11 11 12 15 17 19 19 19 19 17 16 15 14 14 14 14 13 11 12 13 12
32 32 36 36 35 36 38 36 34 31 31 30 29 27 26 24 23 20 19 17 15 15 15 14 13 12 12 13 17 20 21 22 22 22 21 19 18 17 15 13 15 17 18
33 32 34 36 36 36 35 37 38 36 34 33 31 30 28 26 26 25 23 21 20 18 17 16 17 16 14 14 15 15 16 21 25 25 26 26 25 23 21 18 18 18 21
40 37 37 39 37 36 39 38 37 39 39 36 34 33 30 28 28 28 28 26 24 22 21 20 20 19 20 17 17 16 15 18 20 20 21 24 25 24 25 24 22 21 23
43 43 37 41 39 37 39 38 40 41 41 42 40 37 35 33 32 31 32 31 29 27 26 25 23 23 22 22 22 19 20 19 20 21 21 22 20 19 18 22 24 23 24
49 46 41 43 46 48 48 40 39 38 42 42 41 41 40 38 37 36 36 35 32 31 31 29 27 26 26 25 24 23 24 23 23 20 20 21 21 20 18 17 21 20 23
53 51 50 49 49 51 42 40 44 42 41 41 44 42 40 40 42 41 40 39 36 32 32 30 27 27 28 29 28 26 24 26 28 21 18 19 22 23 22 19 19 19 20
59 58 54 52 50 45 46 45 41 45 45 43 42 42 43 42 42 44 44 43 38 36 34 32 30 29 29 29 29 27 25 29 30 26 21 21 23 25 25 22 21 20 20
65 64 62 59 56 53 50 47 44 48 45 51 46 42 39 41 45 46 46 46 44 42 39 37 36 35 33 33 31 28 27 28 27 28 25 25 26 27 26 25 23 22 22
68 70 70 67 64 62 59 56 50 50 48 47 52 47 44 44 44 46 48 48 48 47 44 41 42 41 39 38 34 30 31 28 26 27 29 28 28 29 29 29 28 26 24
74 72 73 72 71 68 64 62 59 55 52 47 51 56 49 48 45 44 44 46 49 49 47 48 48 46 43 40 37 35 34 33 32 29 29 31 32 30 32 32 31 29 27
81 81 79 77 74 73 71 68 67 63 58 53 50 51 54 51 50 49 47 47 49 48 52 52 50 46 44 42 41 39 38 38 36 35 34 34 33 34 33 33 34 34 32
81 85 86 84 81 78 73 73 71 67 61 58 55 52 52 53 56 55 54 50 49 49 48 50 50 48 46 45 44 43 41 40 39 39 38 36 36 37 35 36 35 36 34
74 83 87 91 89 85 82 77 76 71 66 63 59 58 56 56 60 60 57 52 53 50 47 45 44 47 46 47 47 46 44 43 42 40 39 38 38 39 39 37 38 39 37
68 74 87 91 94 93 90 85 81 79 71 65 63 59 54 55 60 54 62 56 58 53 55 46 38 39 44 46 50 49 47 47 45 42 40 41 40 40 39 38 40 41 41
65 69 78 93 96 97 97 93 88 82 78 71 68 66 61 63 58 53 56 57 54 51 57 33 40 40 43 44 47 49 48 48 45 42 40 38 37 38 37 37 37 38 40
61 59 65 79 97 99 99 99 96 89 83 77 72 69 67 61 63 55 55 54 53 56 44 52 46 46 45 43 44 46 46 46 42 40 38 36 35 35 35 36 38 39 40
58 61 55 59 73 96 100 99 100 97 90 83 75 72 65 60 58 59 59 51 58 58 58 48 41 47 47 46 44 45 45 44 43 40 38 37 38 39 39 40 42 42 41
54 52 56 58 60 70 90 99 99 100 97 91 83 75 66 65 49 53 56 55 50 46 46 46 51 53 51 52 48 48 50 50 50 48 44 42 41 42 41 41 44 45 44
48 51 57 67 70 66 74 88 99 99 98 97 91 83 75 68 67 64 66 51 51 47 42 51 46 50 57 54 52 53 56 58 60 57 47 44 43 43 43 43 43 45 48
50 53 55 57 64 72 71 78 89 99 98 98 92 85 75 74 70 63 63 64 60 58 50 48 46 45 48 54 56 61 67 67 60 49 45 43 45 43 42 45 49 52 50
51 51 49 49 49 54 66 70 78 88 96 98 95 88 82 77 74 73 74 70 64 62 57 50 49 47 44 43 44 46 47 42 50 42 37 41 45 48 49 50 53 54 55
37 40 42 43 42 42 51 58 64 79 86 94 95 91 84 80 83 76 77 74 71 67 61 55 50 46 46 47 48 46 41 44 39 40 46 49 52 53 53 54 56 56 56

GFSGL_500_spd_087.txt.gz
Wind_Speed
24 26 26 23 23 21 21 20 20 19 18 18 16 12 9 8 8 8 9 11 12 12 11 11 10 10 9 8 7 6 7 7 8 7 7 6 8 6 5 5 6 5 5
26 25 27 28 25 23 23 22 21 21 20 20 18 16 13 10 8 9 8 8 10 12 14 14 13 12 11 10 10 10 8 8 8 9 8 9 8 7 7 6 8 8 10
27 27 27 28 29 26 26 24 23 23 22 22 21 19 17 14 12 10 10 10 10 9 11 13 15 15 15 14 14 14 13 11 11 11 11 11 11 10 10 9 10 10 12
24 23 28 29 28 31 30 28 26 25 24 24 23 23 21 20 16 14 13 12 12 11 11 11 12 14 15 17 18 18 18 18 17 16 16 15 14 12 12 12 12 14 15
28 30 30 31 32 30 32 33 31 28 26 26 25 25 25 24 22 20 18 17 14 13 13 13 12 12 12 14 16 19 20 20 21 21 21 21 19 17 15 16 15 16 18
29 30 31 29 27 32 31 31 35 34 31 30 28 28 26 26 26 25 25 22 19 18 16 15 14 15 14 13 14 15 15 16 19 21 24 25 25 23 23 22 22 21 20
30 30 33 32 32 32 32 33 32 33 36 36 33 32 31 29 28 28 29 28 25 23 20 19 18 17 18 17 18 17 16 16 17 19 20 22 21 21 22 22 23 23 23
39 36 37 39 38 36 35 35 35 35 36 35 36 36 34 33 32 31 32 32 30 28 26 25 23 23 22 22 22 21 21 20 20 18 18 20 21 21 19 19 20 18 20
47 46 45 44 41 42 38 37 37 37 39 38 38 38 38 37 36 36 36 35 33 31 31 30 29 27 28 27 26 25 24 23 25 22 19 18 19 21 19 18 19 16 16
50 49 49 49 44 43 37 40 39 41 40 39 38 39 41 39 40 41 42 40 37 35 35 35 34 32 31 32 31 30 26 27 28 24 21 21 21 20 23 20 18 17 16
55 54 52 51 51 49 45 43 44 44 44 43 45 39 37 39 41 41 42 45 42 39 39 37 36 34 34 34 34 32 28 30 29 27 23 22 24 25 25 22 21 20 18
58 58 58 56 55 54 51 48 50 49 43 44 44 37 39 39 39 41 44 45 45 45 43 43 41 40 38 37 36 33 32 31 29 25 26 26 26 27 27 25 21 23 22
63 62 62 62 61 60 58 56 55 53 53 44 44 40 42 44 42 43 41 43 46 48 47 47 47 45 43 41 40 38 37 35 30 27 26 26 29 29 28 27 26 23 22
69 69 67 66 67 67 65 64 62 62 58 55 51 47 43 42 42 48 45 43 44 47 49 49 49 50 48 44 43 41 40 39 37 33 33 32 32 31 30 30 29 27 26
69 72 72 73 72 71 72 71 69 68 66 63 59 57 52 47 42 45 50 50 48 47 46 44 46 49 49 47 45 44 43 42 42 41 39 38 37 36 35 35 33 31 28
68 69 73 76 77 77 77 75 76 74 73 69 67 63 60 55 53 50 51 55 57 54 51 47 44 43 45 47 49 48 47 45 43 45 44 42 40 39 38 38 37 35 34
71 72 73 74 78 80 82 82 80 78 76 77 72 69 68 65 61 56 53 53 54 58 56 54 49 48 46 46 43 48 49 48 49 48 46 45 44 42 40 39 39 39 39
75 74 73 72 76 78 80 86 87 84 82 79 78 74 73 73 70 64 59 57 54 56 60 61 55 52 51 54 45 44 46 49 52 52 49 46 44 44 42 41 42 43 43
68 74 77 76 75 76 78 79 83 88 89 86 83 81 78 78 73 70 67 63 59 58 59 59 53 51 54 51 46 47 44 45 47 49 51 49 46 45 44 44 43 42 41
63 67 70 77 79 77 75 72 75 80 85 90 90 87 86 82 81 74 70 68 66 62 58 60 61 52 52 45 53 49 51 47 45 48 50 49 46 45 44 44 42 39 38
69 64 65 67 74 78 77 76 75 76 78 82 89 93 93 89 85 83 77 73 70 68 62 61 57 54 52 58 53 58 49 49 50 49 48 48 47 45 44 44 41 40 39
65 67 67 64 67 72 75 74 74 74 75 78 81 91 96 95 93 89 84 79 76 72 70 61 63 49 53 52 46 49 53 51 52 47 45 46 45 44 44 43 43 43 42
60 61 59 62 62 65 67 68 67 69 71 70 71 83 92 99 97 95 90 86 81 75 67 65 61 60 56 57 57 60 49 49 51 48 48 48 51 51 50 48 49 48 48
52 53 53 54 54 54 58 62 65 67 67 68 70 64 80 96 101 98 95 90 86 78 71 58 55 56 55 51 54 55 57 54 60 54 48 48 51 53 57 58 59 55 58
43 44 45 46 48 49 51 55 59 62 64 67 72 76 75 81 97 99 96 93 88 80 71 63 59 57 54 50 48 47 49 45 52 60 59 46 41 42 53 66 66 61 59
35 37 38 39 45 49 52 54 55 58 63 67 69 72 76 77 84 95 95 92 90 83 77 70 65 66 62 57 55 54 50 53 43 40 35 36 37 39 38 39 42 37 36

GFSGL_500_spd_090.txt.gz
Wind_Speed
22 21 23 21 18 15 14 15 17 20 14 10 8 7 6 3 2 3 5 6 8 8 7 7 8 7 7 8 7 7 7 6 7 7 6 7 7 7 7 8 10 11 11
27 23 22 24 20 18 16 16 17 20 17 13 12 13 10 5 2 5 6 6 8 9 10 10 9 8 8 8 8 9 9 9 8 9 8 9 9 9 9 10 11 11 13
20 22 24 24 24 22 20 17 16 18 20 17 15 14 11 7 7 8 8 8 7 7 8 11 11 11 11 11 11 11 10 10 10 10 10 10 11 11 12 13 13 14 14
31 26 20 24 24 26 25 22 20 19 19 20 18 16 15 15 14 13 12 11 10 10 9 9 9 10 12 13 14 14 13 13 12 12 12 12 12 14 14 14 16 16 16
21 20 31 20 25 22 23 27 26 23 22 22 23 22 21 20 20 20 17 15 14 13 12 12 11 11 11 12 13 14 16 17 18 18 18 17 17 17 18 18 19 19 22
23 25 28 27 25 24 25 25 27 28 27 25 23 25 25 23 24 24 23 21 19 18 16 15 14 14 15 14 14 14 14 15 16 17 18 19 20 20 21 21 21 21 24
24 21 27 28 25 24 24 25 28 29 30 30 30 28 27 27 28 28 28 28 26 24 22 21 19 18 18 17 18 18 18 17 18 18 19 21 19 20 19 19 18 17 18
34 30 29 27 27 30 30 28 28 30 31 30 30 32 32 30 31 32 32 31 29 28 27 27 25 24 23 23 22 21 21 21 23 21 21 22 18 19 19 20 20 17 17
41 40 38 36 34 32 32 33 32 30 30 30 32 32 33 33 35 35 37 36 33 31 30 31 31 29 28 29 28 27 25 25 27 25 23 22 22 21 20 17 20 18 17
45 44 44 42 41 41 39 38 36 38 39 37 36 35 33 34 36 38 40 40 38 36 36 36 35 34 34 35 35 32 28 30 30 29 25 24 24 24 25 22 20 18 19
49 48 48 48 46 45 44 44 43 42 43 44 42 39 35 34 38 41 43 44 43 42 41 40 40 40 40 40 39 37 31 33 32 30 29 26 25 26 28 28 25 21 20
52 52 52 52 52 52 49 48 47 45 42 39 44 40 40 40 43 45 42 42 45 45 45 44 44 44 43 43 42 38 36 37 35 30 29 27 28 30 31 31 29 26 25
56 55 55 55 55 55 56 56 54 51 49 44 42 47 46 42 42 50 43 42 42 41 43 45 44 45 45 44 42 43 42 40 37 34 30 29 32 33 32 31 31 29 26
61 60 60 60 60 60 59 59 59 59 57 52 50 51 52 49 45 44 44 45 41 42 45 43 43 43 44 45 44 43 43 43 42 41 38 35 36 37 36 34 33 31 29
64 64 64 65 65 64 64 64 63 62 63 61 57 57 57 55 53 53 48 45 44 48 45 44 42 40 39 41 43 46 46 44 44 45 45 43 42 42 40 39 37 36 34
60 62 64 66 68 69 70 69 68 69 68 66 65 63 62 63 61 58 58 56 51 48 43 42 45 46 43 43 42 42 44 45 45 48 49 49 48 45 44 43 42 39 36
62 64 64 65 66 70 72 74 73 71 74 73 72 71 69 67 67 65 63 61 59 56 52 48 46 48 51 53 50 47 45 42 43 46 47 51 54 51 48 48 47 45 42
56 60 64 68 70 72 74 75 78 77 75 77 76 75 75 73 73 73 69 66 65 63 58 53 50 49 49 51 54 52 47 47 48 49 44 47 50 65 54 47 52 50 47
58 57 59 61 67 72 74 76 79 81 81 80 79 80 81 80 80 77 76 73 71 69 67 61 56 55 54 53 54 53 48 48 50 47 45 51 50 55 49 49 53 49 49
67 69 71 71 70 68 69 73 77 82 83 83 82 79 80 85 86 83 82 78 77 75 73 69 63 59 59 57 56 52 52 49 48 50 46 44 49 52 52 49 50 49 47
76 76 78 80 80 79 79 74 77 80 83 83 82 79 77 81 83 86 85 85 82 81 78 76 72 67 63 62 59 56 57 62 54 58 51 49 48 54 49 55 50 48 46
81 82 83 84 84 84 86 85 84 83 80 82 82 81 80 81 81 83 83 84 83 85 86 82 78 76 71 65 64 59 59 57 56 55 55 56 56 56 45 50 49 51 46
75 75 75 78 78 79 79 78 76 78 79 78 80 79 80 82 78 77 77 75 78 83 86 88 85 81 78 74 69 64 63 57 55 54 51 49 52 60 52 38 44 45 48
63 64 62 63 62 63 63 64 64 68 70 73 75 75 76 78 79 77 77 76 73 75 80 85 88 88 85 80 77 70 65 65 61 62 58 54 54 52 55 57 54 49 46
49 50 52 53 52 51 50 51 52 53 57 61 65 69 70 72 72 74 76 76 75 75 76 79 83 87 89 87 82 75 66 60 62 61 62 60 61 58 62 59 59 53 48
44 42 43 46 44 44 45 45 47 49 51 55 58 60 64 65 66 69 70 70 71 74 75 75 79 83 88 89 85 80 73 63 61 62 58 52 53 50 52 50 51 57 45

GFSGL_500_spd_093.txt.gz
Wind_Speed
25 24 23 22 19 16 13 11 13 14 13 10 7 7 5 5 5 4 3 2 3 3 3 4 5 5 3 4 4 6 6 7 9 9 9 10 10 11 10 11 10 11 13
27 24 23 24 22 20 17 14 12 12 15 14 12 12 10 8 6 6 5 5 5 5 5 6 6 7 7 8 9 8 7 9 10 12 11 12 12 11 13 13 12 12 14
30 27 24 24 26 24 21 16 14 14 14 16 17 16 14 12 10 9 7 6 6 6 6 7 8 9 10 10 10 10 10 11 11 12 12 12 13 13 14 14 14 14 16
36 27 24 27 28 29 25 21 18 18 18 19 17 17 17 15 15 14 11 11 9 8 7 7 8 9 10 12 13 13 13 13 13 13 15 15 15 16 16 16 17 16 18
30 36 29 33 29 27 28 26 24 23 21 20 20 20 20 19 19 17 16 15 13 12 11 11 11 10 10 10 12 13 14 15 17 17 18 20 19 19 19 19 20 21 23
16 20 26 27 18 26 38 28 26 26 25 23 22 20 21 22 23 23 22 21 17 16 16 16 15 14 15 14 15 15 15 15 15 15 17 20 20 19 19 20 19 20 22
19 18 18 18 17 21 16 26 24 25 26 27 27 24 24 25 25 26 26 26 24 23 22 21 20 20 19 18 19 18 18 18 18 18 18 20 19 18 17 19 19 19 20
29 28 22 19 18 11 19 23 23 22 25 26 27 28 29 28 29 29 29 29 28 28 28 27 27 26 25 24 24 22 22 20 22 21 20 22 19 19 17 18 21 21 22
35 33 33 32 28 25 23 20 20 25 25 24 28 29 30 31 33 34 34 32 32 32 31 31 31 32 32 33 30 28 26 25 27 26 24 23 23 23 22 20 23 19 20
41 41 39 38 36 34 32 29 28 27 27 29 29 30 32 33 35 35 37 37 36 35 35 35 35 35 37 38 36 34 30 31 34 31 28 26 26 26 26 25 26 23 20
45 44 43 42 40 40 38 37 35 34 34 35 34 34 37 38 35 36 37 40 39 38 38 38 39 40 40 39 39 38 35 36 36 35 33 30 31 28 28 31 31 27 23
46 47 47 46 46 45 45 42 40 40 40 40 40 38 39 41 41 41 40 39 40 41 43 42 43 43 43 43 42 41 39 40 40 38 34 30 31 32 33 31 31 30 30
49 48 48 48 48 49 49 49 49 47 46 45 43 42 41 40 39 42 47 44 43 41 43 44 44 45 45 45 45 45 44 43 43 43 39 34 33 34 34 34 35 33 29
54 53 53 52 51 52 52 52 51 52 52 51 50 48 47 45 44 44 47 52 47 47 42 39 42 46 41 41 45 47 47 47 46 44 42 41 40 39 37 39 40 39 36
57 57 56 55 56 56 56 56 56 56 56 56 55 54 52 51 51 50 51 52 55 52 48 41 43 43 40 43 44 46 46 49 48 46 45 45 45 44 44 44 44 44 41
53 54 55 56 56 56 57 58 59 59 60 61 60 61 60 59 58 57 55 56 57 57 53 48 46 45 45 48 46 44 47 48 45 43 44 47 48 49 50 49 47 47 46
51 52 53 54 55 56 58 59 58 61 61 62 65 67 66 66 65 63 64 63 62 61 60 57 53 52 52 50 46 45 45 45 43 38 41 43 46 48 51 53 51 49 49
57 57 57 57 57 57 58 61 65 66 65 65 66 68 70 71 71 70 71 71 68 67 66 64 59 59 58 57 52 51 48 47 46 45 47 46 48 49 48 48 47 50 47
55 56 57 56 56 56 55 56 57 61 65 68 70 71 72 73 75 75 75 76 76 73 71 71 70 64 62 61 58 57 55 51 50 48 45 46 45 48 51 54 53 48 51
60 59 59 61 61 64 63 63 65 65 63 63 65 68 69 78 79 78 80 82 83 81 77 76 75 75 70 66 65 62 59 57 55 54 51 47 47 51 51 48 50 53 54
63 65 66 66 64 66 68 71 72 73 73 72 71 69 71 77 79 80 83 85 86 86 83 81 80 79 78 74 70 68 65 60 59 57 57 53 50 51 54 55 53 56 53
70 70 72 74 77 79 80 82 84 85 83 81 81 80 83 82 85 84 83 85 89 88 84 81 81 84 83 81 79 74 72 68 66 63 59 59 56 56 54 54 55 54 52
66 69 73 75 77 79 81 82 82 85 88 89 89 91 92 88 87 88 89 88 88 86 87 84 83 84 85 84 83 82 78 74 72 70 66 62 60 60 56 53 52 49 52
60 64 66 69 73 76 79 81 82 85 86 88 89 89 87 85 84 83 85 87 86 85 83 84 86 85 83 83 82 83 82 80 78 76 74 68 64 62 59 59 57 55 49
51 54 56 57 59 61 62 66 71 71 70 71 70 69 69 71 75 77 80 80 78 77 76 80 83 83 81 80 78 79 81 82 80 79 78 76 72 65 65 61 57 58 53
53 52 53 54 55 51 51 55 55 53 52 52 51 51 52 53 56 60 64 66 67 71 70 71 77 80 79 77 74 73 74 77 78 79 79 79 78 73 67 62 60 59 57

GFSGL_500_spd_096.txt.gz
Wind_Speed
23 21 21 24 22 19 18 17 17 16 14 11 11 9 8 8 9 10 11 11 11 9 9 8 7 6 6 7 8 8 9 9 10 11 12 12 14 10 12 13 14 15 16
25 25 24 26 27 23 21 20 20 19 19 18 15 15 13 11 10 10 10 9 10 11 10 9 8 8 8 8 8 8 9 11 13 13 13 14 15 13 15 17 17 17 18
26 28 26 27 28 29 25 24 23 22 22 20 18 16 15 14 12 11 11 10 10 10 10 12 13 12 11 10 10 10 10 11 13 13 15 15 17 16 18 18 18 19 20
32 32 29 29 28 33 29 26 25 26 25 24 22 21 20 18 16 15 13 11 12 11 10 10 11 13 14 16 16 14 14 15 15 16 16 16 17 16 17 18 20 21 23
13 33 25 32 31 35 36 32 28 25 26 26 25 23 21 21 21 21 17 15 15 13 12 12 12 12 12 13 15 16 17 18 19 19 20 20 20 20 20 21 23 26 27
13 22 27 38 33 33 34 36 33 29 28 27 26 26 25 25 25 23 22 22 20 18 16 15 16 16 16 16 16 16 16 16 18 18 19 20 20 20 20 20 19 21 24
22 17 15 31 34 33 31 32 34 34 32 30 29 28 27 27 29 28 28 26 25 24 22 20 20 21 20 19 18 18 18 18 19 19 19 20 19 19 19 20 19 21 23
25 25 23 18 19 19 17 27 25 41 38 34 33 31 30 29 31 30 30 29 28 28 28 27 26 27 26 26 24 23 22 21 22 20 21 22 20 21 20 20 23 23 24
27 27 24 25 28 19 19 15 23 30 39 36 31 30 30 34 35 34 30 29 30 29 32 31 30 31 32 32 29 29 28 27 28 28 25 25 25 25 24 22 24 25 25
30 30 30 28 24 24 26 26 23 21 20 30 31 31 31 34 33 34 34 34 35 35 36 35 35 35 36 36 33 34 32 33 36 34 31 29 29 28 29 28 28 27 26
35 34 35 35 33 30 28 28 28 28 29 29 29 30 32 32 32 34 36 36 36 36 38 39 39 39 38 39 40 39 38 38 38 38 37 36 34 34 34 33 32 30 28
37 39 39 39 39 38 36 35 33 31 32 34 36 36 34 35 35 36 38 40 37 39 40 41 41 41 42 41 42 43 42 42 42 43 43 39 38 36 38 37 35 35 33
42 41 41 42 42 43 43 42 42 41 39 38 38 39 40 41 41 41 43 44 41 40 44 45 42 41 41 42 40 45 47 46 46 45 45 44 44 42 40 40 40 38 37
46 45 44 45 46 47 47 47 46 45 44 45 44 44 44 45 45 45 44 45 45 44 44 46 48 46 46 42 42 43 46 49 51 49 47 46 46 45 44 44 43 43 42
49 48 47 47 47 48 49 51 51 52 50 49 50 50 50 50 50 49 49 50 49 49 48 48 50 51 49 47 44 42 46 50 49 42 46 47 48 47 46 48 47 46 44
49 50 49 48 46 45 47 49 50 52 54 54 55 55 55 55 55 57 57 54 53 53 52 52 53 52 52 53 51 48 46 48 47 46 47 47 46 47 45 47 48 48 48
46 47 48 48 48 48 47 46 48 50 51 54 57 58 58 59 59 60 61 61 62 61 59 57 56 57 57 57 54 52 48 49 49 47 46 45 47 46 45 47 46 46 47
48 48 48 49 49 50 50 50 51 51 52 54 56 57 59 60 61 62 63 65 66 68 67 66 64 62 62 61 59 58 56 55 54 54 53 50 45 45 47 47 48 50 50
50 51 51 51 52 53 54 56 56 55 54 55 55 56 59 62 64 65 66 68 69 70 71 72 72 69 67 66 66 65 62 59 59 59 59 57 55 53 48 48 50 49 51
50 50 51 51 53 55 57 58 59 59 60 61 60 62 64 63 61 62 66 69 72 73 74 76 75 75 74 73 73 72 69 68 66 63 61 61 60 59 57 54 51 51 49
56 55 56 57 58 60 61 62 63 65 67 67 67 68 68 68 68 68 70 71 71 72 74 78 80 80 80 79 80 80 77 73 72 71 69 66 64 61 60 60 58 55 56
59 61 63 65 67 68 69 69 70 70 71 72 72 72 73 73 75 75 76 77 79 80 80 80 80 82 81 82 83 86 84 80 78 77 75 73 70 69 65 61 60 58 58
59 61 63 65 68 71 73 75 78 81 83 85 86 86 87 86 84 85 86 83 81 82 85 86 85 85 86 86 84 85 87 87 85 82 80 79 76 73 72 68 64 62 60
51 53 55 57 59 63 67 70 74 78 82 85 88 88 87 87 90 91 91 93 93 93 92 90 91 92 91 93 92 89 90 89 88 87 85 82 79 78 76 74 71 67 65
49 51 52 51 53 56 59 63 66 69 74 79 85 90 91 92 93 93 94 96 97 97 97 98 97 94 94 93 93 92 90 88 86 86 86 85 82 80 78 76 74 72 70
39 41 46 49 53 55 56 59 64 68 71 69 71 77 74 71 72 74 76 76 77 78 80 81 82 85 84 85 85 85 86 86 86 85 85 84 83 81 81 79 75 73 73

GFSGL_500_spd_099.txt.gz
Wind_Speed
23 22 22 23 22 20 19 19 19 19 19 16 14 13 13 14 12 12 12 12 12 13 14 15 13 12 11 11 10 10 9 10 10 11 12 12 14 11 14 15 17 18 20
26 27 26 26 25 24 22 22 24 25 22 20 18 16 15 14 14 15 13 13 13 12 13 14 15 15 14 13 11 10 12 12 12 13 14 14 16 16 17 18 18 19 21
29 29 30 28 27 29 27 24 24 24 24 24 21 20 18 16 16 15 13 13 14 14 14 14 14 15 15 14 14 14 12 12 13 14 15 14 16 16 19 20 20 22 22
34 28 30 32 31 32 32 30 28 27 27 28 26 24 22 20 18 16 15 15 14 13 14 14 14 16 16 15 15 15 14 14 14 14 16 16 17 17 18 20 21 23 25
35 28 34 36 35 39 36 35 32 32 30 30 29 27 26 27 24 22 19 17 16 15 14 14 15 14 16 16 16 16 17 17 17 18 18 19 19 20 21 22 23 24 26
14 15 27 34 33 33 32 28 38 36 34 34 33 32 30 29 27 25 23 21 19 18 18 17 17 17 16 16 15 15 16 16 17 17 17 18 18 18 18 19 21 22 25
16 16 13 15 25 33 34 35 34 40 40 39 37 33 32 32 30 28 27 26 24 23 22 22 22 21 21 19 19 18 19 18 19 19 18 19 19 18 17 19 20 22 24
15 18 20 21 20 43 34 40 35 45 46 43 44 41 38 35 32 30 29 29 28 27 26 28 29 28 27 25 23 21 22 22 22 21 21 22 20 21 19 19 21 23 25
18 18 20 18 21 22 22 23 32 38 48 52 46 40 42 38 35 32 32 32 33 32 30 31 32 33 33 31 28 28 28 28 30 28 26 26 26 27 28 25 26 24 24
21 22 21 21 19 19 27 33 23 15 29 33 43 42 37 40 38 35 34 34 33 34 35 34 34 35 37 37 34 33 32 34 35 34 32 32 32 33 35 33 32 30 28
23 23 23 24 25 24 22 19 24 28 28 23 24 29 43 43 39 34 36 37 35 35 37 36 38 38 38 40 40 38 37 37 37 37 37 36 36 36 38 39 38 34 32
32 31 31 30 30 30 29 27 25 23 25 27 28 29 31 30 31 32 32 34 34 36 37 37 39 39 39 41 41 43 43 41 40 40 40 40 40 41 41 41 41 42 40
42 38 37 37 35 36 36 34 32 30 30 30 31 33 34 35 35 35 35 39 38 39 40 41 41 42 42 43 44 45 45 45 44 40 40 43 44 44 44 45 44 44 44
48 45 42 42 42 41 41 40 40 38 37 36 36 36 37 39 40 41 42 43 43 44 46 47 47 46 46 46 46 47 47 47 46 46 44 41 43 44 44 46 46 47 46
47 47 47 47 46 46 47 46 46 45 45 44 44 44 44 44 44 43 44 46 46 48 47 48 49 49 48 48 48 50 51 51 48 48 46 43 42 42 40 41 43 42 42
48 48 48 48 47 47 47 48 50 50 49 50 50 50 51 50 50 51 51 52 52 52 52 52 53 53 53 52 52 51 53 52 53 55 49 47 45 43 41 44 45 44 41
44 45 45 46 46 46 46 47 48 49 52 52 52 54 55 56 56 56 56 58 59 59 60 60 59 58 58 56 57 56 55 56 56 54 54 53 52 48 45 45 45 45 45
45 45 45 46 47 47 47 47 48 49 50 52 53 54 55 56 58 60 61 62 61 62 63 64 64 64 63 63 62 62 62 61 61 60 59 57 55 55 53 51 50 48 46
47 48 49 50 50 50 50 50 50 50 51 52 53 54 56 57 59 61 63 64 65 66 67 68 68 68 69 69 68 66 65 65 66 66 65 64 62 60 58 58 57 55 53
48 50 51 52 53 53 54 55 56 56 56 57 58 59 61 61 62 64 67 68 70 70 71 71 71 73 73 73 73 73 71 71 70 69 69 69 68 68 65 62 62 62 60
48 48 50 52 52 53 54 55 56 56 57 59 60 62 64 66 67 68 69 70 72 73 73 74 75 75 77 79 79 77 77 76 75 75 75 74 72 71 71 70 68 66 65
54 54 54 55 55 56 58 59 60 62 63 64 66 67 68 70 71 71 71 71 73 73 74 77 77 78 81 83 83 83 83 81 81 81 82 81 80 78 76 74 73 72 70
59 59 60 61 61 62 62 63 64 65 67 68 70 72 74 76 79 80 80 79 79 79 82 83 83 84 84 85 87 87 85 86 87 87 87 87 87 85 83 81 79 76 75
55 56 57 59 59 59 60 61 62 63 65 68 71 75 78 80 83 85 88 89 91 91 90 90 89 89 89 89 89 90 87 88 89 89 90 91 90 89 88 86 84 81 80
47 48 48 49 50 50 52 54 57 58 61 64 68 72 77 82 86 89 90 91 92 94 95 95 94 94 95 96 96 97 96 96 95 95 96 97 95 93 93 89 87 85 83
45 45 46 47 45 46 48 49 51 52 52 55 67 77 78 76 79 83 85 83 83 86 89 91 93 94 95 96 98 99 99 99 99 99 100 100 99 97 95 92 90 89 86

GFSGL_500_spd_102.txt.gz
Wind_Speed
24 23 22 23 22 20 18 18 20 19 18 17 17 16 15 14 15 15 14 14 13 13 11 11 10 9 9 9 9 9 8 8 8 8 8 10 11 10 13 14 16 17 18
27 27 24 24 25 25 22 20 20 20 20 19 19 20 20 18 17 17 17 15 14 14 15 14 11 11 10 10 10 11 11 10 10 10 11 10 12 12 14 16 17 18 20
26 27 27 26 27 27 29 25 23 22 22 22 23 23 20 19 19 20 18 17 16 16 15 15 15 14 13 13 12 13 13 13 12 12 12 11 13 13 15 16 18 21 22
33 31 35 29 30 30 31 30 29 27 25 25 27 25 23 21 21 20 20 19 18 18 18 16 16 16 17 17 16 16 15 16 16 16 14 13 14 14 16 18 19 18 19
34 33 35 32 35 35 34 33 33 32 29 29 30 29 28 26 25 22 21 20 20 20 18 18 18 17 17 18 19 20 19 19 18 18 19 19 18 16 14 14 15 17 19
30 37 30 29 34 33 42 38 36 36 34 33 32 33 33 32 29 28 26 24 23 22 21 20 19 18 17 16 16 16 16 16 16 17 18 17 17 16 13 14 14 17 21
20 21 20 29 41 43 33 35 34 46 42 38 35 34 34 35 34 32 32 30 28 27 25 23 22 21 18 17 17 17 18 18 19 18 19 20 19 17 15 16 17 19 21
14 13 17 21 22 18 20 30 33 35 38 45 43 39 39 38 37 35 36 34 32 30 30 28 26 25 24 20 20 20 23 23 24 22 21 23 22 23 22 21 21 21 23
20 17 16 15 17 22 22 35 36 35 35 44 42 41 38 41 40 42 39 37 35 34 34 33 31 29 30 29 27 27 27 29 29 27 27 28 29 29 30 28 27 23 23
19 17 15 16 17 17 16 21 21 22 16 36 49 47 43 44 43 44 43 38 38 36 38 37 35 35 34 34 32 32 32 32 33 33 32 32 32 32 33 32 32 30 28
17 17 17 16 17 17 19 17 18 23 25 27 17 36 56 41 46 49 48 48 51 43 41 40 37 36 37 38 37 37 36 36 36 36 35 37 37 37 39 37 36 36 34
27 27 22 21 20 21 23 24 20 21 20 20 27 29 31 30 25 40 51 46 45 45 44 41 40 40 40 41 40 40 38 38 37 37 38 39 39 41 42 42 42 41 40
33 34 33 31 30 30 29 29 29 26 26 25 26 25 24 27 29 28 31 32 38 44 43 40 42 44 43 43 41 41 40 41 40 39 40 40 40 41 43 43 42 43 42
41 41 40 39 40 41 40 37 36 35 34 32 32 32 32 31 31 33 34 35 36 37 37 39 44 45 46 46 46 46 45 45 47 46 45 44 42 42 43 45 44 44 40
44 46 50 52 49 46 45 43 41 41 42 42 39 38 39 38 38 39 40 40 42 42 44 46 48 51 53 53 52 52 52 52 52 51 50 48 46 45 45 45 44 44 41
50 49 50 49 49 49 49 48 48 48 48 48 46 47 46 46 47 47 47 47 48 48 49 50 50 52 53 55 55 54 54 54 55 54 53 52 50 49 46 48 47 46 46
49 49 51 51 52 52 53 53 52 52 51 51 52 52 51 51 50 51 52 53 53 54 55 56 57 58 58 59 59 58 57 58 58 57 58 58 57 54 54 52 50 50 51
46 46 46 48 49 48 49 50 52 51 51 52 53 53 54 55 55 55 56 56 57 58 58 59 61 61 63 64 64 64 63 63 64 63 63 63 64 63 60 58 57 55 54
50 50 49 49 50 50 51 51 51 51 52 52 52 52 54 56 58 60 61 62 63 64 64 65 65 66 66 66 66 67 68 67 67 67 67 67 69 69 68 66 64 63 62
48 49 49 50 52 52 53 54 54 55 55 55 56 56 57 57 58 60 62 64 65 66 68 69 70 72 72 71 72 72 70 70 71 71 71 71 72 72 71 71 70 69 68
51 51 52 53 53 53 54 55 56 57 58 59 60 60 61 62 64 65 67 68 69 71 73 74 75 77 78 78 79 79 77 76 77 77 77 77 78 78 77 75 73 73 72
48 48 49 49 50 51 51 51 53 54 56 57 59 61 63 65 67 68 70 71 73 74 76 77 79 79 81 82 84 86 86 85 84 84 85 86 86 85 84 84 82 80 78
51 53 54 54 55 55 56 57 57 57 57 59 60 61 64 65 67 69 71 73 75 77 78 80 81 82 82 83 84 85 84 85 88 90 90 91 91 91 91 90 88 86 84
52 53 54 55 55 56 56 57 58 59 59 58 59 59 60 62 64 66 69 70 73 76 80 84 87 90 92 94 95 93 93 93 92 92 92 93 93 94 96 97 96 94 92
45 46 47 48 50 51 52 53 53 53 53 54 56 58 60 61 62 64 65 68 72 76 82 87 91 94 97 99 101 102 103 105 105 105 103 103 100 97 97 97 99 98 97
46 47 47 47 47 47 47 48 49 50 52 54 55 55 56 55 58 62 69 72 76 79 80 81 86 88 89 90 90 92 95 102 104 106 106 103 100 97 97 98 100 101 100

GFSGL_500_spd_105.txt.gz
Wind_Speed
25 24 23 23 22 19 19 16 16 16 16 17 17 16 16 16 15 16 14 12 13 14 13 11 10 10 10 9 8 7 7 7 7 8 8 8 10 10 12 12 12 13 14
26 25 24 23 24 26 24 20 18 19 20 19 18 18 17 16 16 16 15 14 15 15 15 14 12 12 11 11 10 10 9 9 9 10 10 9 10 10 12 13 13 13 14
28 20 23 26 26 28 28 27 23 22 22 23 23 21 20 18 18 18 17 17 16 17 17 16 16 13 12 13 13 13 12 10 11 13 13 11 12 12 14 14 16 18 16
33 29 23 26 27 26 28 29 30 27 26 25 25 24 23 22 22 20 20 19 19 19 19 18 19 18 17 16 15 15 14 14 13 14 15 15 14 13 14 18 19 17 18
36 32 37 31 28 28 32 31 31 32 30 28 27 28 28 26 25 24 23 22 22 22 22 22 22 21 20 19 18 16 16 18 18 18 18 18 18 17 14 14 16 18 17
46 35 40 39 31 29 35 34 35 34 33 33 32 30 31 30 30 28 26 26 24 24 24 23 21 22 21 19 19 18 17 17 17 17 18 18 17 15 14 16 16 18 20
23 35 36 35 35 34 37 36 41 39 37 37 38 36 34 33 32 32 31 30 28 28 26 25 24 24 22 21 21 21 20 18 18 17 17 18 18 18 15 16 17 17 18
15 13 14 17 19 35 18 36 41 38 41 42 40 41 42 38 36 35 35 34 33 33 32 31 30 27 26 25 25 24 23 23 22 20 20 21 22 24 22 20 21 20 21
18 16 15 13 15 15 13 13 30 39 41 40 34 42 43 45 41 39 36 38 38 38 37 36 36 34 32 31 31 30 29 28 28 27 26 26 27 28 29 28 28 25 24
19 18 18 22 22 16 11 12 14 21 20 28 35 34 38 46 49 47 42 40 40 41 40 40 39 40 38 36 36 34 33 33 33 33 33 33 32 32 33 31 31 30 30
22 22 21 17 17 21 14 13 14 13 14 14 18 27 26 45 47 50 44 43 44 45 44 48 46 46 43 42 42 41 39 38 38 38 37 38 38 37 37 37 36 34 33
27 23 19 17 20 19 17 17 16 16 18 18 19 20 27 23 23 35 45 49 38 44 48 47 50 52 50 49 47 46 45 44 42 41 40 39 39 40 40 39 38 37 35
31 26 24 24 25 25 24 25 24 23 23 24 23 24 22 20 21 23 28 29 28 27 30 44 57 56 56 58 52 49 48 45 44 44 42 41 39 39 40 40 39 39 37
38 37 33 34 33 32 34 34 32 32 33 33 31 30 29 28 29 28 29 29 35 35 32 32 33 39 35 51 57 52 49 49 48 46 46 45 44 45 44 44 44 44 42
46 48 42 38 40 37 41 43 40 41 42 40 40 38 36 36 37 37 37 36 36 36 38 39 41 42 42 42 42 47 49 50 51 52 51 51 51 50 50 50 48 49 47
46 49 52 48 46 47 46 47 49 48 46 44 45 45 45 44 43 43 44 44 44 45 45 46 46 47 47 49 51 52 54 55 57 58 57 56 56 55 54 53 52 50 50
52 53 53 50 48 46 49 50 50 51 51 52 51 51 52 51 52 52 50 49 50 52 54 54 54 54 54 55 57 57 58 59 59 61 61 60 60 59 58 57 57 56 54
53 54 57 56 56 53 52 52 52 53 54 55 56 56 56 57 57 57 57 58 57 58 57 58 60 60 61 62 63 64 65 66 66 66 67 66 66 66 66 65 65 63 62
53 53 52 53 55 53 52 51 50 50 50 52 53 55 56 57 58 58 59 61 62 63 63 63 65 66 68 68 68 69 70 70 71 72 72 72 72 72 72 72 71 70 68
49 50 51 52 54 54 53 53 54 55 55 55 56 57 57 58 59 60 60 61 62 63 65 67 68 68 68 70 72 74 74 76 76 77 77 77 77 76 75 74 75 76 74
50 50 49 49 50 51 51 52 53 54 55 56 57 58 59 60 60 61 63 64 65 66 67 69 70 70 72 73 74 75 76 78 79 81 81 81 80 80 80 80 80 79 79
48 49 50 50 51 53 53 55 55 56 58 58 59 59 60 61 63 63 65 67 69 71 72 74 75 77 78 79 80 81 82 83 85 86 86 87 87 87 86 87 87 87 87
50 50 51 51 51 51 52 52 53 53 54 55 56 57 58 59 59 61 62 63 66 68 70 72 75 77 80 82 84 86 87 88 89 90 91 92 93 93 94 94 94 94 94
51 51 52 53 55 56 57 57 57 58 58 57 58 58 59 60 60 61 63 65 67 67 69 71 74 76 78 80 82 84 86 90 93 95 97 96 96 96 96 97 97 99 101
48 47 48 49 51 52 54 55 57 57 58 58 58 58 58 58 59 60 61 62 64 67 70 72 72 73 78 80 83 86 89 92 94 96 98 100 103 106 108 109 106 105 103
44 41 44 48 48 48 50 51 52 52 51 52 53 52 52 53 55 58 60 62 64 64 65 67 71 75 79 81 81 81 83 77 74 76 74 72 73 76 82 91 101 111 114

GFSGL_500_spd_108.txt.gz
Wind_Speed
26 26 25 23 21 19 17 17 15 14 13 14 14 14 14 13 12 12 11 12 11 11 10 8 7 8 8 9 10 10 9 9 10 12 11 11 11 10 13 12 12 14 13
28 27 26 27 26 25 22 19 18 17 16 15 16 16 15 15 15 14 15 15 14 13 12 12 13 12 11 10 11 12 11 11 11 12 13 13 13 11 13 14 14 14 16
26 29 28 28 27 28 27 26 23 21 20 20 20 19 18 17 17 17 16 16 16 16 15 15 15 15 15 15 15 14 14 14 13 13 14 13 13 12 13 15 16 17 16
31 30 31 31 30 29 28 29 29 26 24 22 23 23 21 21 21 20 18 17 18 19 19 18 17 17 16 16 17 15 16 16 16 15 16 15 13 12 14 17 20 17 15
34 32 35 34 27 28 31 31 30 31 30 27 25 25 25 24 23 22 22 21 21 21 21 20 19 19 17 18 19 20 20 18 17 17 18 18 17 16 15 16 17 17 15
33 37 36 37 40 33 31 35 32 33 33 32 30 29 28 27 28 27 27 26 24 23 22 22 21 19 19 20 22 21 23 22 20 19 18 17 17 16 15 17 17 16 16
28 21 36 43 45 42 40 38 33 34 35 36 33 32 33 31 31 31 31 32 29 27 26 25 23 22 22 23 23 23 24 23 22 22 21 21 19 18 16 16 16 17 17
19 20 23 32 37 43 45 42 37 40 38 38 36 35 35 35 36 35 34 33 34 34 34 31 29 28 26 26 26 27 26 27 25 25 24 25 23 23 23 21 21 21 22
15 16 14 21 41 25 29 31 39 26 39 44 40 39 37 38 41 43 39 37 37 38 37 38 34 32 33 31 32 31 31 30 30 30 30 30 29 29 29 28 28 26 25
19 13 16 17 18 21 20 13 14 18 23 22 34 42 42 39 42 41 42 46 44 41 39 41 39 37 37 36 37 35 35 35 36 36 36 36 35 35 35 34 34 32 32
21 18 21 20 20 20 19 19 20 19 17 16 18 18 31 31 29 37 41 41 42 47 46 45 44 45 43 42 41 43 41 39 39 40 40 42 41 41 41 40 39 39 38
31 26 27 26 24 25 24 24 24 24 21 19 15 13 14 19 21 20 29 36 43 47 52 51 49 49 47 48 47 47 49 49 46 45 46 48 47 46 46 46 44 43 43
35 34 33 31 29 27 26 25 24 22 21 23 25 27 24 20 22 23 24 23 20 22 23 25 39 31 30 39 46 52 50 51 54 54 50 52 51 49 48 47 46 46 45
33 34 35 35 35 28 28 29 28 27 28 28 27 26 26 28 28 27 27 26 25 27 27 29 29 35 34 33 34 33 37 44 52 57 58 59 56 52 51 50 49 47 46
42 40 37 37 41 37 33 36 38 36 36 36 37 38 36 36 37 35 33 34 35 35 36 37 36 36 39 39 40 41 38 39 39 42 47 53 57 55 52 52 52 50 51
46 45 43 43 45 46 43 42 43 46 45 42 42 44 47 45 43 43 43 43 43 43 44 46 44 45 46 46 46 48 47 47 47 46 48 54 53 55 56 58 58 58 57
50 49 49 49 50 52 51 52 52 48 51 50 49 50 49 49 49 49 49 49 50 52 52 51 52 54 55 55 55 55 55 56 56 57 57 57 59 61 62 62 64 63 62
51 50 50 51 55 57 56 54 57 54 55 49 50 51 52 52 54 55 56 57 58 58 59 59 59 59 59 61 63 63 63 64 64 65 66 67 68 67 67 68 68 71 70
55 56 58 56 54 54 56 59 57 55 54 52 54 54 56 56 56 56 58 59 59 60 61 62 63 63 63 65 65 66 69 70 72 72 73 73 74 75 74 75 75 75 75
64 59 61 59 59 55 55 52 53 53 55 55 56 57 58 58 57 57 58 58 60 61 61 62 63 64 65 66 66 67 68 69 71 73 77 79 80 80 79 80 81 80 80
39 42 43 46 47 49 51 54 54 56 57 59 60 61 62 62 62 62 62 63 64 65 66 67 68 70 71 72 73 73 74 74 75 76 77 78 79 80 82 84 85 86 86
41 43 45 46 50 53 55 56 56 56 57 57 58 58 58 60 61 61 62 63 64 65 67 68 69 71 73 74 75 77 78 79 80 81 83 84 84 85 86 87 89 89 90
44 46 47 49 51 54 54 55 57 58 58 57 58 59 59 59 60 61 62 63 64 65 65 66 68 70 72 74 76 78 81 83 83 86 88 91 92 93 94 95 96 96 95
47 48 50 52 54 55 56 57 58 58 59 59 59 60 60 61 61 61 62 62 63 64 65 67 68 70 71 72 73 74 76 79 83 86 88 89 89 90 92 95 98 100 101
47 48 49 49 51 52 54 56 58 59 59 59 60 60 60 60 60 60 61 61 61 61 62 64 65 66 66 68 70 73 76 78 81 85 88 89 91 95 95 96 99 99 99
51 52 51 53 55 56 56 55 55 56 56 55 55 57 56 56 56 56 56 56 57 58 59 60 61 63 65 67 68 71 77 83 85 84 83 81 79 73 67 62 63 65 67

GFSGL_500_spd_114.txt.gz
Wind_Speed
20 19 17 15 14 13 11 10 9 10 10 6 5 8 10 9 9 9 9 8 8 6 6 6 5 4 3 5 6 6 8 8 9 11 8 8 10 13 16 15 13 13 14
20 22 20 19 19 18 17 14 10 11 13 12 11 13 12 13 12 12 10 11 9 9 9 9 9 8 7 8 9 9 11 11 11 12 13 13 14 13 15 16 15 14 13
21 24 23 18 20 21 21 20 19 16 14 15 15 14 14 15 15 15 14 13 13 12 11 11 11 12 12 13 12 14 14 14 15 16 17 17 18 13 15 16 16 16 11
21 19 21 27 23 21 22 23 23 22 20 17 17 17 18 17 15 17 17 16 15 14 14 14 15 14 14 15 16 17 16 16 16 17 18 19 19 17 16 16 18 17 13
23 25 24 25 25 23 18 23 25 25 25 26 24 23 21 17 21 22 23 18 19 16 16 15 15 16 17 17 17 18 18 19 19 19 20 20 19 19 18 17 16 16 17
32 24 24 26 26 28 31 23 26 28 28 28 28 26 23 25 25 24 24 24 16 14 18 14 14 18 19 20 20 21 21 22 22 22 23 22 21 18 18 18 17 16 17
26 28 34 37 36 34 28 32 32 31 28 27 28 28 29 31 33 31 27 25 26 27 23 23 20 22 22 23 23 23 23 23 22 23 24 24 23 23 21 20 19 19 20
25 29 33 33 33 32 29 27 33 36 32 32 30 29 31 32 34 35 31 31 30 29 31 30 28 30 28 27 27 27 28 27 26 26 28 28 27 26 26 26 25 25 25
18 17 18 13 17 19 26 32 33 33 40 39 35 40 35 36 39 36 35 33 32 32 33 31 30 30 32 35 34 34 34 34 33 33 34 32 31 32 31 32 32 32 31
28 18 15 19 19 20 21 25 31 37 46 45 44 41 48 41 46 42 36 37 40 39 34 31 35 37 38 38 38 40 40 40 40 40 39 37 38 38 35 38 38 37 38
22 21 21 19 22 23 23 25 26 28 39 35 34 41 40 42 36 34 37 44 47 45 40 41 45 43 39 39 41 44 46 44 43 42 43 43 41 45 40 43 41 41 43
31 26 26 24 25 26 24 21 19 19 19 21 24 27 29 30 30 31 35 31 28 34 32 26 25 29 31 30 35 40 43 46 47 48 46 48 47 46 48 48 48 48 49
35 32 33 31 30 30 36 36 26 24 23 22 21 19 18 19 21 23 22 19 15 17 18 20 22 26 28 28 25 25 25 26 30 35 40 39 37 36 37 37 38 42 48
45 41 40 39 36 32 31 31 30 30 30 29 29 29 30 30 29 30 29 28 27 27 29 30 32 33 34 33 32 30 29 29 27 28 29 34 36 36 37 38 39 38 39
44 43 43 45 43 39 38 37 36 35 33 31 33 34 33 32 31 31 30 29 29 30 29 31 32 32 33 35 36 36 37 36 38 40 41 42 42 43 42 43 42 46 45
44 37 45 38 38 39 39 38 38 38 38 38 38 39 39 38 38 36 35 37 38 38 38 38 40 41 42 44 44 44 44 44 45 46 48 49 50 52 53 54 54 55 55
47 50 48 47 47 45 43 43 42 42 41 41 42 43 44 45 46 47 47 46 45 47 47 48 47 48 51 50 50 49 51 53 53 54 55 56 57 58 59 59 61 62 62
51 48 47 47 51 47 46 48 48 48 48 49 49 49 49 50 51 52 53 52 51 52 52 54 55 53 54 56 55 54 54 55 56 56 57 57 58 59 60 59 60 61 61
50 52 42 52 56 49 48 52 53 53 52 56 57 56 55 54 55 56 58 60 61 60 57 58 59 56 55 57 56 55 54 55 56 58 58 59 62 63 65 66 68 69 70
36 41 45 47 47 47 48 46 48 58 59 66 63 62 60 60 61 60 63 63 64 65 60 59 57 55 55 56 59 60 61 61 63 63 64 65 65 67 69 71 74 75 77
42 48 49 51 45 48 51 53 54 52 57 59 77 70 63 62 65 66 66 68 67 67 67 57 55 58 59 60 60 61 62 63 64 66 68 70 72 74 76 78 80 83 85
48 47 49 44 42 44 40 42 43 42 46 59 65 64 57 57 59 55 46 47 50 51 51 52 55 57 59 60 62 64 67 69 71 72 74 76 78 80 81 82 83 84 86
38 39 42 45 46 48 46 44 46 47 49 48 44 39 39 41 44 44 42 44 47 52 55 54 56 58 61 62 63 65 68 69 71 73 74 76 78 79 80 80 81 83 85
36 36 38 39 38 39 39 41 41 41 41 42 43 44 44 47 49 51 52 54 54 56 57 58 59 60 62 64 66 67 68 68 70 70 70 72 74 74 76 77 78 79 82
37 37 38 40 41 43 43 43 44 45 46 48 49 49 49 50 50 51 52 53 54 55 55 56 58 58 60 62 63 64 64 64 66 67 69 68 68 69 70 71 71 74 79
34 35 36 38 40 42 44 46 46 46 46 47 48 50 51 51 51 52 53 53 53 54 55 55 55 54 54 55 55 56 56 55 54 55 58 61 64 66 67 68 71 73 72

GFSGL_500_spd_117.txt.gz
Wind_Speed
17 17 16 15 14 12 11 10 10 8 9 9 8 9 9 10 8 6 5 6 6 6 6 6 4 4 4 4 4 5 6 7 8 6 7 9 10 12 16 16 14 15 16
19 19 19 18 17 16 13 10 9 10 11 12 10 11 13 12 11 9 9 10 10 11 11 10 9 8 9 9 8 8 8 8 10 11 13 14 11 13 14 15 15 14 14
20 23 21 20 21 21 18 15 15 15 15 15 15 15 14 15 15 13 13 14 14 14 14 13 12 11 11 10 11 11 12 12 14 16 16 17 16 14 15 15 15 14 13
22 21 21 25 20 25 24 20 19 19 19 18 16 16 16 14 14 15 16 16 16 17 16 15 14 15 14 13 13 13 13 15 17 16 16 17 17 16 16 18 18 16 14
25 26 23 22 20 25 26 20 19 22 21 22 20 19 17 16 17 19 19 21 21 21 20 18 16 18 17 16 17 15 17 17 18 19 19 19 19 18 18 16 17 19 18
26 27 27 25 23 25 27 25 24 22 20 23 21 20 21 22 24 23 22 22 19 20 24 24 17 17 19 20 21 20 20 20 20 21 22 21 20 19 18 19 18 18 21
23 28 27 27 24 26 27 26 28 24 31 27 23 23 27 27 28 28 25 24 24 23 21 19 18 22 23 21 22 23 22 22 23 25 24 22 22 21 21 21 20 20 20
19 20 23 25 27 29 30 31 27 29 26 38 29 25 27 29 31 32 29 30 30 31 28 24 25 27 27 26 28 29 28 28 29 29 29 28 26 25 26 27 26 26 26
16 19 20 22 21 19 20 25 28 25 26 35 29 30 30 28 34 33 32 31 31 32 30 30 31 35 34 31 32 31 32 33 35 36 36 35 33 34 35 34 31 30 34
18 21 21 12 12 16 20 22 22 27 26 30 27 29 35 38 38 36 36 34 36 37 35 38 36 33 33 37 37 38 37 38 41 40 40 40 38 39 39 39 37 36 37
27 25 22 19 17 19 21 22 23 24 26 28 30 39 38 35 45 39 38 43 45 45 47 37 38 40 43 42 41 40 42 43 43 43 43 44 44 40 39 40 41 41 44
32 28 27 23 22 22 22 23 22 25 23 22 23 30 34 43 37 34 37 32 31 32 32 37 42 40 38 38 31 29 31 31 33 35 38 41 42 43 45 46 46 44 43
36 34 31 29 29 29 26 24 22 22 24 25 24 23 20 21 21 25 32 34 32 28 29 30 29 27 27 23 23 26 26 27 27 29 30 29 28 28 27 28 30 32 35
43 44 41 38 34 31 31 31 31 33 32 30 28 30 30 32 25 25 22 23 25 24 26 26 26 27 30 31 33 31 32 31 30 31 31 32 32 33 32 34 37 39 41
46 47 47 46 44 43 39 40 40 38 36 31 31 33 32 31 32 34 35 35 36 36 35 34 33 30 30 31 31 33 34 34 35 37 37 39 41 41 41 43 44 45 47
44 45 46 47 46 43 43 42 45 43 43 40 39 36 38 37 35 37 38 39 37 36 37 38 36 37 38 37 37 37 39 41 43 43 43 45 47 48 49 49 50 51 53
42 41 41 41 44 44 40 48 42 44 41 42 41 39 39 41 40 42 42 42 43 44 44 45 45 45 46 47 48 48 47 49 50 50 52 51 51 53 51 51 50 49 49
43 43 44 44 45 47 45 48 44 43 43 43 43 45 45 44 44 45 45 46 48 50 52 52 51 52 53 53 54 55 56 56 56 55 56 54 54 54 56 56 58 57 58
46 45 46 45 46 51 51 49 48 43 50 53 51 47 46 49 52 54 52 52 53 54 56 56 57 60 61 61 62 63 63 61 61 60 59 56 56 58 60 62 64 65 66
46 47 45 50 44 38 46 51 49 52 55 57 53 54 53 56 59 57 56 54 60 62 62 61 62 62 63 62 62 62 60 59 58 59 61 62 63 64 65 66 67 67 69
49 51 49 52 47 51 45 45 54 50 47 48 49 52 50 49 52 54 52 53 56 57 72 66 61 64 65 63 62 59 59 57 58 59 58 58 60 63 64 66 67 69 71
51 50 47 43 44 45 46 43 45 46 48 49 41 43 45 45 43 46 49 56 59 62 61 57 54 57 55 48 47 48 49 51 56 59 60 61 63 67 69 71 74 76 79
42 42 41 42 40 41 46 47 47 48 47 49 44 42 39 40 44 44 45 45 42 42 42 42 43 45 47 49 51 51 52 54 58 62 65 66 68 70 72 75 76 76 78
36 36 35 35 36 35 34 36 36 36 37 40 38 38 41 43 43 42 42 42 43 45 46 48 49 51 54 56 56 57 57 57 59 61 64 65 66 67 69 70 70 69 70
33 34 34 35 36 36 36 38 40 41 43 44 45 45 46 46 45 45 46 47 47 47 49 50 51 52 51 53 54 55 58 60 61 59 60 60 60 58 57 57 60 64 69
29 31 32 33 34 34 36 37 38 42 44 45 46 47 48 47 46 45 46 47 48 50 51 52 53 53 52 52 52 51 51 50 49 48 51 51 51 52 56 59 62 67 67

GFSGL_500_spd_120.txt.gz
Wind_Speed
18 17 16 16 15 12 10 11 10 10 10 10 9 10 10 9 8 9 10 9 9 9 10 8 7 6 6 6 5 5 7 8 7 8 9 8 12 15 16 15 15 15 15
23 21 19 17 16 15 13 12 11 11 12 13 12 11 13 11 10 10 12 11 11 11 12 10 9 9 8 8 8 9 8 9 9 11 10 11 13 15 17 17 17 18 18
24 25 23 23 22 20 18 18 16 15 15 16 16 15 15 13 12 14 15 14 14 13 13 12 14 14 14 14 13 12 11 13 14 14 14 14 15 15 14 15 15 15 16
27 27 26 23 22 23 21 22 21 20 20 20 18 17 16 15 17 18 17 18 17 17 17 15 16 18 17 17 15 14 14 14 15 16 16 15 14 13 16 18 17 16 16
32 30 31 28 28 25 21 26 25 23 23 23 21 22 19 19 21 20 20 19 16 17 19 20 19 21 20 19 18 17 18 17 19 19 18 16 16 16 17 17 19 20 16
28 30 24 27 27 26 25 29 24 28 20 20 23 25 26 25 25 24 22 21 19 18 19 19 28 25 25 23 20 20 21 22 22 20 19 19 18 19 19 19 19 20 20
27 26 33 39 33 29 28 26 26 25 26 21 26 28 30 30 28 26 24 25 24 22 21 23 21 21 28 27 23 24 24 24 23 22 22 22 21 21 23 23 23 22 21
25 30 32 32 35 30 26 25 28 25 27 28 25 28 32 31 29 29 29 29 27 27 28 29 29 27 26 27 28 28 28 30 30 30 28 28 28 28 29 28 28 30 27
26 26 23 18 23 24 24 26 24 29 26 27 27 28 37 27 26 27 25 29 28 28 30 32 33 31 30 32 32 34 36 35 34 33 32 33 33 35 36 35 35 36 37
23 19 17 20 19 21 20 20 21 23 14 26 29 31 36 21 25 27 27 24 29 33 33 33 33 35 35 34 37 36 37 37 38 37 38 37 37 39 39 40 40 40 40
26 22 21 24 32 21 19 20 20 21 27 28 31 26 20 29 32 27 27 34 34 37 41 38 39 40 40 40 41 42 41 43 43 43 45 44 41 40 40 42 41 38 39
26 23 21 29 29 26 14 20 22 24 26 28 30 30 28 25 31 36 40 43 43 38 37 36 33 34 35 35 38 38 37 40 35 33 30 27 25 26 27 29 29 27 27
23 22 23 24 23 25 22 25 24 27 28 28 30 29 26 23 23 23 24 26 30 35 36 33 32 34 36 36 38 41 31 28 28 29 31 31 30 30 30 31 32 33 30
34 32 31 32 32 33 29 30 30 31 30 30 31 34 33 32 31 30 29 27 25 24 27 28 28 28 27 26 29 29 30 31 31 33 32 30 30 31 32 33 36 39 41
41 40 40 40 40 41 40 39 38 38 36 36 38 39 36 34 32 33 33 32 30 29 28 30 31 32 33 36 37 36 35 35 35 35 36 37 37 37 39 40 41 42 44
40 39 41 43 44 45 47 46 45 45 44 44 44 44 42 41 39 39 38 36 35 35 35 37 39 39 38 37 37 37 37 39 40 41 42 43 44 46 48 49 51 52 50
41 43 43 42 43 43 43 44 45 45 45 46 44 43 39 47 48 46 42 39 41 41 39 40 41 43 46 47 45 46 47 49 51 52 52 54 55 56 56 57 58 60 61
41 41 42 42 43 46 47 43 43 43 44 46 39 42 52 57 56 53 42 41 43 44 43 45 45 47 49 50 52 53 55 57 58 59 60 61 63 64 65 66 66 65 63
41 42 43 45 45 45 44 44 47 47 47 47 49 51 53 49 52 52 51 46 51 54 52 52 53 54 55 55 55 58 60 61 63 65 64 65 64 65 68 69 66 64 63
45 45 44 46 47 48 47 47 47 47 49 49 51 52 51 52 49 58 48 49 56 58 53 56 57 61 64 58 58 61 64 68 71 70 68 67 67 67 69 67 67 68 66
47 48 45 48 48 47 47 46 51 48 49 53 54 53 51 53 59 60 63 60 63 62 62 60 62 67 63 60 57 57 60 63 66 67 66 65 61 60 61 61 60 61 61
40 41 41 43 44 44 45 45 44 44 47 51 54 55 52 56 54 57 60 55 57 59 54 51 51 51 51 55 56 55 56 52 49 50 50 50 52 53 56 59 62 63 66
42 41 42 42 43 45 44 46 48 46 45 45 46 48 49 48 47 48 47 44 43 43 42 41 43 46 48 49 49 48 48 50 51 52 54 55 58 60 63 66 68 70 72
35 38 39 39 40 39 38 38 39 40 40 39 40 40 41 42 44 43 42 42 43 44 45 47 48 49 50 52 52 52 53 54 55 57 58 59 60 61 62 64 64 64 64
25 30 32 33 37 40 40 40 41 41 41 41 43 44 44 44 44 45 46 47 47 47 49 50 50 49 51 53 53 52 52 54 55 56 57 57 56 56 55 57 59 60 61
29 30 32 31 31 33 35 37 38 39 40 42 43 44 44 44 43 44 46 46 46 47 47 47 49 50 51 53 55 55 55 54 54 54 54 54 55 56 55 54 55 57 56